[[{"header":{"parameterUnit":"m.s-1","parameterCategory":1,"la1":31.0,"la2":29.5877,"lo1":-88.7671,"lo2":-86.6584,"dy":0.0162,"dx":0.0185,"nx":115,"ny":88,"refTime":"2023-06-07T18:00:00:Z","depth":0,"parameterNumber":2,"parameterNumberName":"U-component_of_WINDS"},"data":[0.0,0.0,0.0,0.0,0.0,0.0,0.0,0.0,0.0,0.0,0.0,0.0,0.0,0.0,0.0,0.0,0.0,0.0,0.0,0.0,0.0,0.0,0.0,0.0,0.0,0.0,0.0,0.0,0.0,0.0,0.0,0.0,0.0,0.0,0.0,0.0,0.0,0.0,0.0,0.0,0.0,0.0,0.0,0.0,0.0,0.0,0.0,0.0,0.0,0.0,0.0,0.0,0.0,0.0,0.0,0.0,0.0,0.0,0.0,0.0,0.0,0.0,0.0,0.0,0.0,0.0,0.0,0.0,0.0,0.0,0.0,0.0,0.0,0.0,0.0,0.0,0.0,0.0,0.0,0.0,0.0,0.0,0.0,0.0,0.0,0.0,0.0,0.0,0.0,0.0,0.0,0.0,0.0,0.0,0.0,0.0,0.0,0.0,0.0,0.0,0.0,0.0,0.0,0.0,0.0,0.0,0.0,0.0,0.0,0.0,0.0,0.0,0.0,0.0,0.0,0.0,0.0,0.0,0.0,0.0,0.0,0.0,0.0,0.0,0.0,0.0,0.0,0.0,0.0,0.0,0.0,0.0,0.0,0.0,0.0,0.0,0.0,0.0,0.0,0.0,0.0,0.0,0.0,0.0,0.0,0.0,0.0,0.0,0.0,0.0,0.0,0.0,0.0,0.0,0.0,0.0,0.0,0.0,0.0,0.0,0.0,0.0,0.0,0.0,0.0,0.0,0.0,0.0,0.0,0.0,0.0,0.0,0.0,0.0,0.0,0.0,0.0,0.0,0.0,0.0,0.0,0.0,0.0,0.0,0.0,0.0,0.0,0.0,0.0,0.0,0.0,0.0,0.0,0.0,0.0,0.0,0.0,0.0,0.0,0.0,0.0,0.0,0.0,0.0,0.0,0.0,0.0,0.0,0.0,0.0,0.0,0.0,0.0,0.0,0.0,0.0,0.0,0.0,0.0,0.0,0.0,0.0,0.0,0.0,0.0,0.0,0.0,0.0,0.0,0.0,0.0,0.0,0.0,0.0,0.0,0.0,0.0,0.0,0.0,0.0,0.0,0.0,0.0,0.0,0.0,0.0,0.0,0.0,0.0,0.0,0.0,0.0,0.0,0.0,0.0,0.0,0.0,0.0,0.0,0.0,0.0,0.0,0.0,0.0,0.0,0.0,0.0,0.0,0.0,0.0,0.0,0.0,0.0,0.0,0.0,0.0,0.0,0.0,0.0,0.0,0.0,0.0,0.0,0.0,0.0,0.0,0.0,0.0,0.0,0.0,0.0,0.0,0.0,0.0,0.0,0.0,0.0,0.0,0.0,0.0,0.0,0.0,0.0,0.0,0.0,0.0,0.0,0.0,0.0,0.0,0.0,0.0,0.0,0.0,0.0,0.0,0.0,0.0,0.0,0.0,0.0,0.0,0.0,0.0,0.0,0.0,0.0,0.0,0.0,0.0,0.0,0.0,0.0,0.0,0.0,0.0,0.0,0.0,0.0,0.0,0.0,0.0,0.0,0.0,0.0,0.0,0.0,0.0,0.0,0.0,0.0,0.0,0.0,0.0,0.0,0.0,0.0,0.0,0.0,0.0,0.0,0.0,0.0,0.0,0.0,0.0,0.0,0.0,0.0,0.0,0.0,0.0,0.0,0.0,0.0,0.0,0.0,0.0,0.0,0.0,0.0,0.0,0.0,0.0,0.0,0.0,0.0,0.0,0.0,0.0,0.0,0.0,0.0,0.0,0.0,0.0,0.0,0.0,0.0,0.0,0.0,0.0,0.0,0.0,0.0,0.0,0.0,0.0,0.0,0.0,0.0,0.0,0.0,0.0,0.0,0.0,0.0,0.0,0.0,0.0,0.0,0.0,0.0,0.0,0.0,0.0,0.0,0.0,0.0,0.0,0.0,0.0,0.0,0.0,0.0,0.0,0.0,0.0,0.0,0.0,0.0,0.0,0.0,0.0,0.0,0.0,0.0,0.0,0.0,0.0,0.0,0.0,0.0,0.0,0.0,0.0,0.0,0.0,0.0,0.0,0.0,0.0,0.0,0.0,0.0,0.0,0.0,0.0,0.0,0.0,0.0,0.0,0.0,0.0,0.0,0.0,0.0,0.0,0.0,0.0,0.0,0.0,0.0,0.0,0.0,0.0,0.0,0.0,0.0,0.0,0.0,0.0,0.0,0.0,0.0,0.0,0.0,0.0,0.0,0.0,0.0,0.0,0.0,0.0,0.0,0.0,0.0,0.0,0.0,0.0,0.0,0.0,0.0,0.0,0.0,0.0,0.0,0.0,0.0,0.0,0.0,0.0,0.0,0.0,0.0,0.0,0.0,0.0,0.0,0.0,0.0,0.0,0.0,0.0,0.0,0.0,0.0,0.0,0.0,0.0,0.0,0.0,0.0,0.0,0.0,0.0,0.0,0.0,0.0,0.0,0.0,0.0,0.0,0.0,0.0,0.0,0.0,0.0,0.0,0.0,0.0,0.0,0.0,0.0,0.0,0.0,0.0,0.0,0.0,0.0,0.0,0.0,0.0,0.0,0.0,0.0,0.0,0.0,0.0,0.0,0.0,0.0,0.0,0.0,0.0,0.0,0.0,0.0,0.0,0.0,0.0,0.0,0.0,0.0,0.0,0.0,0.0,0.0,0.0,0.0,0.0,0.0,0.0,0.0,0.0,0.0,0.0,0.0,0.0,0.0,0.0,0.0,0.0,0.0,0.0,0.0,0.0,0.0,0.0,0.0,0.0,0.0,0.0,0.0,0.0,0.0,0.0,0.0,0.0,0.0,0.0,0.0,0.0,0.0,0.0,0.0,0.0,0.0,0.0,0.0,0.0,0.0,0.0,0.0,0.0,0.0,0.0,0.0,0.0,0.0,0.0,0.0,0.0,0.0,0.0,0.0,0.0,0.0,0.0,0.0,0.0,0.0,0.0,0.0,0.0,0.0,0.0,0.0,0.0,0.0,0.0,0.0,0.0,0.0,0.0,0.0,0.0,0.0,0.0,0.0,0.0,0.0,0.0,0.0,0.0,0.0,0.0,0.0,0.0,0.0,0.0,0.0,0.0,0.0,0.0,0.0,0.0,0.0,0.0,0.0,0.0,0.0,0.0,0.0,0.0,0.0,0.0,0.0,0.0,0.0,0.0,0.0,0.0,0.0,0.0,0.0,0.0,0.0,0.0,0.0,0.0,0.0,0.0,0.0,0.0,0.0,0.0,0.0,0.0,0.0,0.0,0.0,0.0,0.0,0.0,0.0,0.0,0.0,0.0,0.0,0.0,0.0,0.0,0.0,0.0,0.0,0.0,0.0,0.0,0.0,0.0,0.0,0.0,0.0,0.0,0.0,0.0,0.0,0.0,0.0,0.0,0.0,0.0,0.0,0.0,0.0,0.0,0.0,0.0,0.0,0.0,0.0,0.0,0.0,0.0,0.0,0.0,0.0,0.0,0.0,0.0,0.0,0.0,0.0,0.0,0.0,0.0,0.0,0.0,0.0,0.0,0.0,0.0,0.0,0.0,0.0,0.0,0.0,0.0,0.0,0.0,0.0,0.0,0.0,0.0,0.0,0.0,0.0,0.0,0.0,0.0,0.0,0.0,0.0,0.0,0.0,0.0,0.0,0.0,0.0,0.0,0.0,0.0,0.0,0.0,0.0,0.0,0.0,0.0,0.0,0.0,0.0,0.0,0.0,0.0,0.0,0.0,0.0,0.0,0.0,0.0,0.0,0.0,0.0,0.0,0.0,0.0,0.0,0.0,0.0,0.0,0.0,0.0,0.0,0.0,0.0,0.0,0.0,0.0,0.0,0.0,0.0,0.0,0.0,0.0,0.0,0.0,0.0,0.0,0.0,0.0,0.0,0.0,0.0,0.0,0.0,0.0,0.0,0.0,0.0,0.0,0.0,0.0,0.0,0.0,0.0,0.0,0.0,0.0,0.0,0.0,0.0,0.0,0.0,0.0,0.0,0.0,0.0,0.0,0.0,0.0,0.0,0.0,0.0,0.0,0.0,0.0,0.0,0.0,0.0,0.0,0.0,0.0,0.0,0.0,0.0,0.0,0.0,0.0,0.0,0.0,0.0,0.0,0.0,0.0,0.0,0.0,0.0,0.0,0.0,0.0,0.0,0.0,0.0,0.0,0.0,0.0,0.0,0.0,0.0,0.0,0.0,0.0,0.0,0.0,0.0,0.0,0.0,0.0,0.0,0.0,0.0,0.0,0.0,0.0,0.0,0.0,0.0,0.0,0.0,0.0,0.0,0.0,0.0,0.0,0.0,-0.3764,0.0,0.0,0.0,0.0,0.0,0.0,0.0,0.0,0.0,0.0,0.0,0.0,0.0,0.0,0.0,0.0,0.0,0.0,0.0,0.0,0.0,0.0,0.0,0.0,0.0,0.0,0.0,0.0,0.0,0.0,0.0,0.0,0.0,0.0,0.0,0.0,0.0,0.0,0.0,0.0,0.0,0.0,0.0,0.0,0.0,0.0,0.0,0.0,0.0,0.0,0.0,0.0,0.0,0.0,0.0,0.0,0.0,0.0,0.0,0.0,0.0,0.0,0.0,0.0,0.0,0.0,0.0,0.0,0.0,0.0,0.0,0.0,0.0,0.0,0.0,0.0,0.0,0.0,0.0,0.0,0.0,0.0,0.0,0.0,0.0,0.0,0.0,0.0,0.0,0.0,0.0,0.0,0.0,0.0,0.0,0.0,0.0,0.0,0.0,0.0,0.0,0.0,0.0,0.0,0.0,0.0,0.0,0.0,0.0,0.0,-0.2875,-0.3479,-0.3776,-0.3958,-0.4007,0.0,0.0,0.0,0.0,0.0,0.0,0.0,0.0,0.0,0.0,0.0,0.0,0.0,0.0,0.0,0.0,0.0,0.0,0.0,0.0,0.0,0.0,0.0,0.0,0.0,0.0,0.0,0.0,0.0,0.0,0.0,0.0,0.0,0.0,0.0,0.0,0.0,0.0,0.0,0.0,0.0,0.0,0.0,0.0,0.0,0.0,0.0,0.0,0.0,0.0,0.0,0.0,0.0,0.0,0.0,0.0,0.0,0.0,0.0,0.0,0.0,0.0,0.0,0.0,0.0,0.0,0.0,0.0,0.0,0.0,0.0,0.0,0.0,0.0,0.0,0.0,0.0,0.0,0.0,0.0,0.0,0.0,0.0,0.0,0.0,0.0,0.0,0.0,0.0,0.0,0.0,0.0,0.0,0.0,0.0,0.0,0.0,0.0,0.0,0.0,0.0,0.0,0.0,0.0,0.0,0.0,0.0,0.0,0.0,0.0,0.0,0.0,-0.4512,-0.4781,-0.4609,0.0,0.0,0.0,0.0,0.0,0.0,0.0,0.0,0.0,0.0,0.0,0.0,0.0,0.0,0.0,0.0,0.0,0.0,0.0,0.0,0.0,0.0,0.0,0.0,0.0,0.0,0.0,0.0,0.0,0.0,0.0,0.0,0.0,0.0,0.0,0.0,0.0,0.0,0.0,0.0,0.0,0.0,0.0,0.0,0.0,0.0,0.0,0.0,0.0,0.0,0.0,0.0,0.0,0.0,0.0,0.0,0.0,0.0,0.0,0.0,0.0,0.0,0.0,0.0,0.0,0.0,0.0,0.0,0.0,0.0,0.0,0.0,0.0,0.0,0.0,0.0,0.0,0.0,0.0,0.0,0.0,0.0,0.0,0.0,0.0,0.0,0.0,0.0,0.0,0.0,0.0,0.0,0.0,0.0,0.0,0.0,0.0,0.0,0.0,0.0,0.0,0.0,0.0,0.0,0.0,0.0,0.0,0.0,0.0,0.0,-0.3705,-0.5004,-0.5984,0.0,-0.5613,0.0,0.0,0.0,0.0,0.0,0.0,0.0,0.0,0.0,0.0,0.0,0.0,0.0,0.0,0.0,0.0,0.0,0.0,0.0,0.0,0.0,0.0,0.0,0.0,0.0,0.0,0.0,0.0,0.0,0.0,0.0,0.0,0.0,0.0,0.0,0.0,0.0,0.0,0.0,0.0,0.0,0.0,0.0,0.0,0.0,0.0,0.0,0.0,0.0,0.0,0.0,0.0,0.0,0.0,0.0,0.0,0.0,0.0,0.0,0.0,0.0,0.0,0.0,0.0,0.0,0.0,0.0,0.0,0.0,0.0,0.0,0.0,0.0,0.0,0.0,0.0,0.0,0.0,0.0,0.0,0.0,0.0,0.0,0.0,0.0,0.0,0.0,0.0,0.0,0.0,0.0,0.0,0.0,0.0,0.0,0.0,0.0,0.0,0.0,0.0,0.0,0.0,0.0,0.0,0.0,0.0,0.0,0.0,0.0,0.0,-0.3767,-0.5175,-0.7074,-0.692,0.0,0.0,0.0,0.0,0.0,0.0,0.0,0.0,0.0,0.0,0.0,0.0,0.0,0.0,0.0,0.0,0.0,0.0,0.0,0.0,0.0,0.0,0.0,0.0,0.0,0.0,0.0,0.0,0.0,0.0,0.0,0.0,0.0,0.0,0.0,0.0,0.0,0.0,0.0,0.0,0.0,0.0,0.0,0.0,0.0,0.0,0.0,0.0,0.0,0.0,0.0,0.0,0.0,0.0,0.0,0.0,0.0,0.0,0.0,0.0,0.0,0.0,0.0,0.0,0.0,0.0,0.0,0.0,0.0,0.0,0.0,0.0,0.0,0.0,0.0,0.0,0.0,0.0,0.0,0.0,0.0,0.0,0.0,0.0,0.0,0.0,0.0,0.0,0.0,0.0,0.0,0.0,0.0,0.0,0.0,0.0,0.0,0.0,0.0,0.0,0.0,0.0,0.0,0.0,0.0,0.0,0.0,0.0,0.0,0.0,-0.3372,-0.3928,-0.5515,-0.6813,-0.6341,-0.3983,0.0,0.0,0.0,0.0,0.0,0.0,0.0,0.0,0.0,0.0,0.0,0.0,0.0,0.0,0.0,0.0,0.0,0.0,0.0,0.0,0.0,0.0,0.0,0.0,0.0,0.0,0.0,0.0,0.0,0.0,0.0,0.0,0.0,0.0,0.0,0.0,0.0,0.0,0.0,0.0,0.0,0.0,0.0,0.0,0.0,0.0,0.0,0.0,0.0,0.0,0.0,0.0,0.0,0.0,0.0,0.0,0.0,0.0,0.0,0.0,0.0,0.0,0.0,0.0,0.0,0.0,0.0,0.0,0.0,0.0,0.0,0.0,0.0,0.0,0.0,0.0,0.0,0.0,0.0,0.0,0.0,0.0,0.0,0.0,0.0,0.0,0.0,0.0,0.0,0.0,0.0,0.0,0.0,0.0,0.0,0.0,0.0,0.0,0.0,0.0,0.0,0.0,0.0,0.0,0.0,0.0,0.0,0.0,-0.6035,-0.4316,-0.4317,-0.6251,-0.4709,-0.4124,0.0,0.0,0.0,0.0,0.0,0.0,0.0,0.0,0.0,0.0,0.0,0.0,0.0,0.0,0.0,0.0,0.0,0.0,0.0,0.0,0.0,0.0,0.0,0.0,0.0,0.0,0.0,0.0,0.0,0.0,0.0,0.0,0.0,0.0,0.0,0.0,0.0,0.0,0.0,0.0,0.0,0.0,0.0,0.0,0.0,0.0,0.0,0.0,0.0,0.0,0.0,0.0,0.0,0.0,0.0,0.0,0.0,0.0,0.0,0.0,0.0,0.0,0.0,0.0,0.0,0.0,0.0,0.0,0.0,0.0,0.0,0.0,0.0,0.0,0.0,0.0,0.0,0.0,0.0,0.0,0.0,0.0,0.0,0.0,0.0,0.0,0.0,0.0,0.0,0.0,0.0,0.0,0.0,0.0,0.0,0.0,0.0,0.0,0.0,0.0,0.0,0.0,0.0,0.0,0.0,0.0,0.0,0.0,0.0,-0.3772,-0.4066,-0.4328,-0.4617,-0.6057,-0.5864,0.0,0.0,0.0,0.0,0.0,0.0,0.0,0.0,0.0,0.0,0.0,0.0,0.0,0.0,0.0,0.0,0.0,0.0,0.0,0.0,0.0,0.0,0.0,0.0,0.0,0.0,0.0,0.0,0.0,0.0,0.0,0.0,0.0,0.0,0.0,0.0,0.0,0.0,0.0,0.0,0.0,0.0,0.0,0.0,0.0,0.0,0.0,0.0,0.0,0.0,0.0,0.0,0.0,0.0,0.0,0.0,0.0,0.0,0.0,0.0,0.0,0.0,0.0,0.0,0.0,0.0,0.0,0.0,0.0,0.0,0.0,0.0,0.0,0.0,0.0,0.0,0.0,0.0,0.0,0.0,0.0,0.0,0.0,0.0,0.0,0.0,0.0,0.0,0.0,0.0,0.0,0.0,0.0,0.0,0.0,0.0,0.0,0.0,0.0,0.0,0.0,0.0,0.0,0.0,0.0,0.0,0.0,0.0,0.0,-0.2244,0.0,-0.4324,0.0,-0.5285,-0.5308,0.0,0.0,0.0,0.0,0.0,0.0,0.0,0.0,0.0,0.0,0.0,0.0,0.0,0.0,0.0,0.0,0.0,0.0,0.0,0.0,0.0,0.0,0.0,0.0,0.0,0.0,0.0,0.0,0.0,0.0,0.0,0.0,0.0,0.0,0.0,0.0,0.0,0.0,0.0,0.0,0.0,0.0,0.0,0.0,0.0,0.0,0.0,0.0,0.0,0.0,0.0,0.0,0.0,0.0,0.0,0.0,0.0,0.0,0.0,0.0,0.0,0.0,0.0,0.0,0.0,0.0,0.0,0.0,0.0,0.0,0.0,0.0,0.0,0.0,0.0,0.0,0.0,0.0,0.0,0.0,0.0,0.0,0.0,0.0,0.0,0.0,0.0,0.0,0.0,0.0,0.0,0.0,0.0,0.0,0.0,0.0,0.0,0.0,0.0,0.0,0.0,0.0,0.0,0.0,0.0,0.0,0.0,0.0,-0.1775,-0.1885,-0.4004,-0.4145,-0.2248,-0.2012,-0.2047,0.0,0.0,0.0,0.0,0.0,0.0,0.0,0.0,0.0,0.0,0.0,0.0,0.0,0.0,0.0,0.0,0.0,0.0,0.0,0.0,0.0,0.0,0.0,0.0,0.0,0.0,0.0,0.0,0.0,0.0,0.0,0.0,0.0,0.0,0.0,0.0,0.0,0.0,0.0,0.0,0.0,0.0,0.0,0.0,0.0,0.0,0.0,0.0,0.0,0.0,0.0,0.0,0.0,0.0,0.0,0.0,0.0,0.0,0.0,0.0,0.0,0.0,0.0,0.0,0.0,0.0,0.0,0.0,0.0,0.0,0.0,0.0,0.0,0.0,0.0,0.0,0.0,0.0,0.0,0.0,0.0,0.0,0.0,0.0,0.0,0.0,0.0,0.0,0.0,0.0,0.0,0.0,0.0,0.0,0.0,0.0,0.0,0.0,0.0,0.0,0.0,0.0,0.0,0.0,0.0,0.0,0.0,0.0,0.0,-0.1205,-0.2275,-0.1988,-0.0169,-0.0391,-0.069,0.0,0.0,0.0,0.0,0.0,0.0,0.0,0.0,0.0,0.0,0.0,0.0,0.0,0.0,0.0,0.0,0.0,0.0,0.0,0.0,0.0,0.0,0.0,0.0,0.0,0.0,0.0,0.0,0.0,0.0,0.0,0.0,0.0,0.0,0.0,0.0,0.0,0.0,0.0,0.0,0.0,0.0,0.0,0.0,0.0,0.0,0.0,0.0,0.0,0.0,0.0,0.0,0.0,0.0,0.0,0.0,0.0,0.0,0.0,0.0,0.0,0.0,0.0,0.0,0.0,0.0,0.0,0.0,0.0,0.0,0.0,0.0,0.0,0.0,0.0,0.0,0.0,0.0,0.0,0.0,0.0,0.0,0.0,0.0,0.0,0.0,0.0,0.0,0.0,0.0,0.0,0.0,0.0,0.0,0.0,0.0,0.0,0.0,0.0,0.0,0.0,0.0,0.0,0.0,0.0,0.0,0.0,0.0,0.0,-0.0596,-0.0918,-0.0594,0.0536,0.1304,0.1251,0.033,0.0,0.0,0.0,0.0,0.0,0.0,0.0,0.0,0.0,0.0,0.0,0.0,0.0,0.0,0.0,0.0,0.0,0.0,0.0,0.0,0.0,0.0,0.0,0.0,0.0,0.0,0.0,0.0,0.0,0.0,0.0,0.0,0.0,0.0,0.0,0.0,0.0,0.0,0.0,0.0,0.0,0.0,0.0,0.0,0.0,0.0,0.0,0.0,0.0,0.0,0.0,0.0,0.0,0.0,0.0,0.0,0.0,0.0,0.0,0.0,0.0,0.0,0.0,0.0,0.0,0.0,0.0,0.0,0.0,0.0,0.0,0.0,0.0,0.0,0.0,0.0,0.0,0.0,0.0,0.0,0.0,0.0,0.0,0.0,0.0,0.0,0.0,0.0,0.0,0.0,0.0,0.0,0.0,0.0,0.0,0.0,0.0,0.0,0.0,0.0,0.0,0.0,0.0,0.0,0.0,0.0,0.0,0.0,0.0144,0.0281,0.0324,0.0231,0.2759,0.3364,0.0,0.0,0.0,0.0,0.0,0.0,0.0,0.0,0.0,0.0,0.0,0.0,0.0,0.0,0.0,0.0,0.0,0.0,0.0,0.0,0.0,0.0,0.0,0.0,0.0,0.0,0.0,0.0,0.0,0.0,0.0,0.0,0.0,0.0,0.0,0.0,0.0,0.0,0.0,0.0,0.0,0.0,0.0,0.0,0.0,0.0,0.0,0.0,0.0,0.0,0.0,0.0,0.0,0.0,0.0,0.0,0.0,0.0,0.0,0.0,0.0,0.0,0.0,0.0,0.0,0.0,0.0,0.0,0.0,0.0,0.0,0.0,0.0,0.0,0.0,0.0,0.0,0.0,0.0,0.0,0.0,0.0,0.0,0.0,0.0,0.0,0.0,0.0,0.0,0.0,0.0,0.0,0.0,0.0,0.0,0.0,0.0,0.0,0.0,0.0,0.0,0.0,0.0,0.0,0.0,0.0,0.0,0.0,0.0,0.2274,0.3845,0.3837,0.2067,0.1482,0.1494,0.0,0.0,0.0,0.0,0.0,0.0,0.0,0.0,0.0,0.0,0.0,0.0,0.0,0.0,0.0,0.0,0.0,0.0,0.0,0.0,0.0,0.0,0.0,0.0,0.0,0.0,0.0,0.0,0.0,0.0,0.0,0.0,0.0,0.0,0.0,0.0,0.0,0.0,0.0,0.0,0.0,0.0,0.0,0.0,0.0,0.0,0.0,0.0,0.0,0.0,0.0,0.0,0.0,0.0,0.0,0.0,0.0,0.0,0.0,0.0,0.0,0.0,0.0,0.0,0.0,0.0,0.0,0.0,0.0,0.0,0.0,0.0,0.0,0.0,0.0,0.0,0.0,0.0,0.0,0.0,0.0,0.0,0.0,0.0,0.0,0.0,0.0,0.0,0.0,0.0,0.0,0.0,0.0,0.0,0.0,0.0,0.0,0.0,0.0,0.0,0.0,0.0,0.0,0.0,0.0,0.0,0.0,0.0,0.2134,0.3114,0.5296,0.5708,0.4143,0.293,0.2469,0.0,0.0,0.0,0.0,0.0,0.0,0.0,0.0,0.0,0.0,0.0,0.0,0.0,0.0,0.0,0.0,0.0,0.0,0.0,0.0,0.0,0.0,0.0,0.0,0.0,0.0,0.0,0.0,0.0,0.0,0.0,0.0,0.0,0.0,0.0,0.0,0.0,0.0,0.0,0.0,0.0,0.0,0.0,0.0,0.0,0.0,0.0,0.0,0.0,0.0,0.0,0.0,0.0,0.0,0.0,0.0,0.0,0.0,0.0,0.0,0.0,0.0,0.0,0.0,0.0,0.0,0.0,0.0,0.0,0.0,0.0,0.0,0.0,0.0,0.0,0.0,0.0,0.0,0.0,0.0,0.0,0.0,0.0,0.0,0.0,0.0,0.0,0.0,0.0,0.0,0.0,0.0,0.0,0.0,0.0,0.0,0.0,0.0,0.0,0.0,0.0,0.0,0.0,0.0,0.0,0.0,0.0,0.0,0.3738,0.3336,0.5466,0.6451,0.604,0.5613,0.4869,0.0,0.0,0.0,0.0,0.0,0.0,0.0,0.0,0.0,0.0,0.0,0.0,0.0,0.0,0.0,0.0,0.0,0.0,0.0,0.0,0.0,0.0,0.0,0.0,0.0,0.0,0.0,0.0,0.0,0.0,0.0,0.0,0.0,0.0,0.0,0.0,0.0,0.0,0.0,0.0,0.0,0.0,0.0,0.0,0.0,0.0,0.0,0.0,0.0,0.0,0.0,0.0,0.0,0.0,0.0,0.0,0.0,0.0,0.0,0.0,0.0,0.0,0.0,0.0,0.0,0.0,0.0,0.0,0.0,0.0,0.0,0.0,0.0,0.0,0.0,0.0,0.0,0.0,0.0,0.0,0.0,0.0,0.0,0.0,0.0,0.0,0.0,0.0,0.0,0.0,0.0,0.0,0.0,0.0,0.0,0.0,0.0,0.0,0.0,0.0,0.0,0.0,0.0,0.0,0.0,0.0,0.0,0.0,0.4467,0.4697,0.5795,0.6283,0.6037,0.5609,0.5005,0.0,0.0,0.0,0.0,0.0,0.0,0.0,0.0,0.0,0.0,0.0,0.0,0.0,0.0,0.0,0.0,0.0,0.0,0.0,0.0,0.0,0.0,0.0,0.0,0.0,0.0,0.0,0.0,0.0,0.0,0.0,0.0,0.0,0.0,0.0,0.0,0.0,0.0,0.0,0.0,0.0,0.0,0.0,0.0,0.0,0.0,0.0,0.0,-0.1344,0.0,0.0,0.0,0.0,0.0,0.0,0.0,0.0,0.0,0.0,0.0,0.0,0.0,0.0,0.0,0.0,0.0,0.0,0.0,0.0,0.0,0.0,0.0,0.0,0.0,0.0,0.0,0.0,0.0,0.0,0.0,0.0,0.0,0.0,0.0,0.0,0.0,0.0,0.0,0.0,0.0,0.0,0.0,0.0,0.0,0.0,0.0,0.0,0.0,0.0,0.0,0.0,0.0,0.0,0.0,0.0,0.0,0.0,0.0,0.485,0.5338,0.6013,0.6295,0.6132,0.6064,0.5472,0.0,0.0,0.0,0.0,0.0,0.0,0.0,0.0,0.0,0.0,0.0,0.0,0.0,0.0,0.0,0.0,0.0,0.0,0.0,0.0,0.0,0.0,0.0,0.0,0.0,0.0,0.0,0.0,0.0,0.0,0.0,0.0,0.0,0.0,0.0,0.0,0.0,0.0,0.0,0.0,0.0,0.0,0.0,0.0,0.0,0.0,0.0,0.0,0.0,0.0,0.0,0.0,0.0,0.0,0.0,0.0,0.0,0.0,0.0,0.0,0.0,0.0,0.0,0.0,0.0,0.0,0.0,0.0,0.0,0.0,0.0,0.0,0.0,0.0,0.0,0.0,0.0,0.0,0.0,0.0,0.0,0.0,0.0,0.0,0.0,0.0,0.0,0.0,0.0,0.0,0.0,0.0,0.0,0.0,0.0,0.0,0.0,0.0,0.0,0.0,0.0,0.0,0.0,0.0,0.0,0.0,0.0,0.4307,0.4901,0.5606,0.6135,0.6356,0.6338,0.6548,0.5924,0.4469,0.0,0.0,0.0,0.0,0.0,0.0,0.0,0.0,0.0,0.0,0.0,0.0,0.0,0.0,0.0,0.0,0.0,0.0,0.0,0.0,0.0,0.0,0.0,0.0,0.0,0.0,0.0,0.0,0.0,0.0,0.0,0.0,0.0,0.0,0.0,0.0,0.0,0.0,0.0893,-0.0079,0.0,0.0,0.0,0.0,0.0,0.0,0.0,0.0,-0.2142,0.0,0.0,0.0,0.0,0.0,0.0,0.0,0.0,0.0,0.0,0.0,0.0,0.0,0.0,0.0,0.0,0.0,0.0,0.0,0.0,0.0,0.0,0.0,0.0,0.0,0.0,0.0,0.0,0.0,0.0,0.0,0.0,0.0,0.0,0.0,0.0,0.0,0.0,0.0,0.0,0.0,0.0,0.0,0.0,0.0,0.0,0.0,0.0,0.0,0.0,0.0,0.0,0.0,0.0,0.0,0.0,0.3965,0.3955,0.4531,0.5732,0.5986,0.6152,0.6321,0.6371,0.6044,0.5384,0.0,0.0,0.0,0.0,0.0,0.0,0.0,0.0,0.0,0.0,0.0,0.0,0.0,0.0,0.0,0.0,0.0,0.0,0.0,0.0,0.0,0.0,0.0,0.0,0.0,0.0,0.0,0.0,0.0,0.0,0.0,0.0,0.0,0.0,0.0,0.0,0.0,0.0,0.0,0.0144,-0.0936,0.0,0.0,0.0,0.0,0.0,0.0,0.0,0.0,-0.233,0.0,0.0,0.0,0.0,0.0,0.0,0.0,0.0,0.0,0.0,0.0,0.0,0.0,0.0,0.0,0.0,0.0,0.0,0.0,0.0,0.0,0.0,0.0,0.0,0.0,0.0,0.0,0.0,0.0,0.0,0.0,0.0,0.0,0.0,0.0,0.0,0.0,0.0,0.0,0.0,0.0,0.0,0.0,0.0,0.0,0.0,0.0,0.0,0.0,0.0,0.0,0.0,0.0,0.0,0.0,0.3992,0.4324,0.4877,0.5667,0.5911,0.6064,0.6132,0.6211,0.6129,0.0,0.0,0.0,0.0,0.0,0.0,0.0,0.0,0.0,0.0,0.0,0.0,0.0,0.0,0.0,0.0,0.0,0.0,0.0,0.0,0.0,0.0,0.0,0.0,0.0,0.0,0.0,0.0,0.0,0.0,0.0,0.0,0.0,0.0,0.0,0.0,0.0,0.0,0.0,0.0,0.0095,-0.0993,-0.3336,0.0,0.0,0.0,0.0,0.0,0.0,-0.2631,-0.2642,0.0,0.0,0.0,0.0,0.0,0.0,0.0,0.0,0.0,0.0,0.0,0.0,0.0,0.0,0.0,0.0,0.0,0.0,0.0,0.0,0.0,0.0,0.0,0.0,0.0,0.0,0.0,0.0,0.0,0.0,0.0,0.0,0.0,0.0,0.0,0.0,0.0,0.0,0.0,0.0,0.0,0.0,0.0,0.0,0.0,0.0,0.0,0.0,0.0,0.0,0.0,0.0,0.0,0.0,0.0,0.3979,0.4694,0.522,0.5579,0.582,0.5956,0.5976,0.6077,0.6128,0.0,0.0,0.0,0.0,0.0,0.0,0.0,0.0,0.0,0.0,0.0,0.0,0.0,0.0,0.0,0.0,0.0,0.0,0.0,0.0,0.0,0.0,0.0,0.0,0.0,0.0,0.0,0.0,0.0,0.0,0.0,0.0,0.0,0.0,0.0,0.0,0.0,0.0,0.0,0.0,0.0,-0.1325,-0.3664,-0.3486,0.0,0.0,0.0,0.0,-0.2796,-0.3039,0.0,0.0,0.0,0.0,0.0,0.0,0.0,0.0,0.0,0.0,0.0,0.0,0.0,0.0,0.0,0.0,0.0,0.0,0.0,0.0,0.0,0.0,0.0,0.0,0.0,0.0,0.0,0.0,0.0,0.0,0.0,0.0,0.0,0.0,0.0,0.0,0.0,0.0,0.0,0.0,0.0,0.0,0.0,0.0,0.0,0.0,0.0,0.0,0.0,0.0,0.0,0.0,0.0,0.0,0.0,0.0,0.4016,0.4494,0.5016,0.5559,0.5623,0.5701,0.5817,0.5822,0.5906,0.0,0.0,0.0,0.0,0.0,0.0,0.0,0.0,0.0,0.0,0.0,0.0,0.0,0.0,0.0,0.0,0.0,0.0,0.0,0.0,0.0,0.0,0.0,0.0,0.0,0.0,0.0,0.0,0.0,0.0,0.0,0.0,0.0,0.0,0.0,0.0,0.0,0.0,0.0,0.0,0.0,-0.2073,-0.2436,-0.2716,-0.2961,0.0,0.0,-0.2812,-0.3037,-0.3604,0.0,0.0,0.0,0.0,0.0,0.0,0.0,0.0,0.0,0.0,0.0,0.0,0.0,0.0,0.0,0.0,0.0,0.0,0.0,0.0,0.0,0.0,0.0,0.0,0.0,0.0,0.0,0.0,0.0,0.0,0.0,0.0,0.0,0.0,0.0,0.0,0.0,0.0,0.0,0.0,0.0,0.0,0.0,0.0,0.0,0.0,0.0,0.0,0.0,0.0,0.0,0.0,0.0,0.0,0.0,0.3741,0.4029,0.4629,0.5111,0.5447,0.5545,0.562,0.5681,0.5577,0.577,0.0,0.0,0.0,0.0,0.0,0.0,0.0,0.0,0.0,0.0,0.0,0.0,0.0,0.0,0.0,0.0,0.0,0.0,0.0,0.0,0.0,0.0,0.0,0.0,0.0,0.0,0.0,0.0,0.0,0.0,0.0,0.0,0.0,0.0,0.0,0.0,0.0,0.0,0.0,0.0,0.0,0.0,-0.3504,-0.3503,0.0,0.0,0.0,-0.3407,-0.3376,0.0,0.0,0.0,0.0,0.0,0.0,0.0,0.0,0.0,0.0,0.0,0.0,0.0,0.0,0.0,0.0,0.0,0.0,0.0,0.0,0.0,0.0,0.0,0.0,0.0,0.0,0.0,0.0,0.0,0.0,0.0,0.0,0.0,0.0,0.0,0.0,0.0,0.0,0.0,0.0,0.0,0.0,0.0,0.0,0.0,0.0,0.0,0.0,0.0,0.0,0.0,0.0,0.0,0.0,0.0,0.0,0.0,0.4029,0.4752,0.5206,0.5422,0.5471,0.5532,0.5528,0.538,0.0,0.0,0.0,0.0,0.0,0.0,0.0,0.0,0.0,0.0,0.0,0.0,0.0,0.0,0.0,0.0,0.0,0.0,0.0,0.0,0.0,0.0,0.0,0.0,0.0,0.0,0.0,-0.0427,0.0,0.0,0.0,0.0,0.0,0.0,0.0,0.0,0.0,0.0,0.0,0.0,0.0,0.0,-0.4186,-0.4538,-0.4228,-0.3969,0.0,0.0,-0.3825,-0.3804,-0.4466,-0.5163,0.0,0.0,0.0,0.0,0.0,0.0,0.0,0.0,0.0,0.0,0.0,0.0,0.0,0.0,0.0,0.0,0.0,0.0,0.0,0.0,0.0,0.0,0.0,0.0,0.0,0.0,0.0,0.0,0.0,0.0,0.0,0.0,0.0,0.0,0.0,0.0,0.0,0.0,0.0,0.0,0.0,0.0,0.0,0.0,0.0,0.0,0.0,0.0,0.0,0.0,0.0,0.0,0.0,0.0,0.0,0.4036,0.4755,0.5203,0.5422,0.5369,0.5376,0.5442,0.5213,0.535,0.0,0.0,0.0,0.0,0.0,0.0,0.0,0.0,0.0,0.0,0.0,0.0,0.0,0.0,0.0,0.0,0.0,0.0,0.0,0.0,0.0,0.0,0.0,0.0,0.0,0.0,0.0,0.0,0.0,0.0,0.0,0.0,0.0,0.0,0.0,0.0,0.0,0.0,0.0,0.0,0.0,-0.3327,-0.4665,-0.4463,-0.4274,0.0,0.0,-0.3799,-0.4365,-0.4921,-0.5245,-0.5027,0.0,0.0,0.0,0.0,0.0,0.0,0.0,0.0,0.0,0.0,0.0,0.0,0.0,0.0,0.0,0.0,0.0,0.0,0.0,0.0,0.0,0.0,0.0,0.0,0.0,0.0,0.0,0.0,0.0,0.0,0.0,0.0,0.0,0.0,0.0,0.0,0.0,0.0,0.0,0.0,0.0,0.0,0.0,0.0,0.0,0.0,0.0,0.0,0.0,0.0,0.0,0.0,0.0,0.3866,0.4026,0.4667,0.5118,0.5415,0.5428,0.5428,0.5428,0.5213,0.5269,0.0,0.0,0.0,0.0,0.0,0.0,0.0,0.0,0.0,0.0,0.0,0.0,0.0,0.0,0.0,0.0,0.0,0.0,0.0,0.0,0.0,0.0,0.0,0.0,0.0,0.0,0.0,0.0,-0.2717,-0.2817,-0.09,0.0,0.0,0.0,0.0,0.0,0.0,0.0,0.0,0.0,0.0,-0.433,-0.5095,-0.4866,0.0,0.0,-0.4667,-0.4556,-0.472,-0.5104,-0.5233,-0.471,-0.4855,0.0,0.0,0.0,0.0,0.0,0.0,0.0,0.0,0.0,0.0,0.0,0.0,0.0,0.0,0.0,0.0,0.0,0.0,0.0,0.0,0.0,0.0,0.0,0.0,0.0,0.0,0.0,0.0,0.0,0.0,0.0,0.0,0.0,0.0,0.0,0.0,0.0,0.0,0.0,0.0,0.0,0.0,0.0,0.0,0.0,0.0,0.0,0.0,0.0,0.0,0.0,0.0,0.3914,0.4022,0.4653,0.5108,0.5422,0.5428,0.5428,0.5425,0.5257,0.5248,0.0,0.0,0.0,0.0,0.0,0.0,0.0,0.0,0.0,0.0,0.0,0.0,0.0,0.0,0.0,0.0,0.0,0.0,0.0,0.0,0.0,0.0,0.0,0.0,0.0,0.0,0.0,0.0,-0.1503,-0.2139,-0.1186,0.0,0.0,0.0,0.0,0.0,0.0,0.0,0.0,0.0,0.0,-0.5104,-0.5222,-0.5088,-0.4921,-0.4982,-0.4967,-0.4984,-0.4937,-0.4273,-0.3926,-0.4442,0.0,0.0,0.0,0.0,0.0,0.0,0.0,0.0,0.0,0.0,0.0,0.0,0.0,0.0,0.0,0.0,0.0,0.0,0.0,0.0,0.0,0.0,0.0,0.0,0.0,0.0,0.0,0.0,0.0,0.0,0.5636,0.0,0.0,0.0,0.0,0.0,0.0,0.0,0.0,0.0,0.0,0.0,0.0,0.0,0.0,0.0,0.0,0.0,0.0,0.0,0.0,0.0,0.0,0.4016,0.3979,0.4745,0.5199,0.5422,0.5428,0.5428,0.5428,0.5422,0.5417,0.5354,0.0,0.0,0.0,0.0,0.0,0.0,0.0,0.0,0.0,0.0,0.0,0.0,0.0,0.0,0.0,0.0,0.0,0.0,0.0,0.0,0.0,0.0,0.0,0.0,0.0,0.0,-0.0,-0.0,-0.1005,0.0,0.0,0.0,0.0,0.0,0.0,0.0,0.0,0.0,0.0,-0.5009,-0.5273,-0.4942,-0.5033,-0.5114,-0.5118,-0.4947,-0.4846,-0.5034,-0.2365,-0.11,0.0,0.0,0.0,0.0,0.0,0.0,0.0,0.0,0.0,0.0,0.0,0.0,0.0,0.0,0.0,0.0,0.0,0.0,0.0,0.0,0.0,0.0,0.0,0.0,0.0,0.0,0.0,0.4327,0.4655,0.0,0.0,0.0,0.0,0.0,0.0,0.0,0.0,0.0,0.0,0.0,0.6737,0.5994,0.0,0.0,0.0,0.0,0.0,0.0,0.0,0.0,0.0,0.0,0.0,0.0,0.4019,0.4053,0.4696,0.5203,0.5422,0.5428,0.5428,0.5428,0.5428,0.524,0.4959,0.0,0.0,0.0,0.0,0.0,0.0,0.0,0.0,0.0,0.0,0.0,0.0,0.0,0.0,0.0,0.0,0.0,0.0,0.0,0.0,0.0,0.0,0.0,0.0,0.0,-0.0,0.0,0.0,0.0,0.0,0.0,0.0,0.0,0.0,0.0,0.0,0.0,-0.4887,-0.5083,-0.5037,-0.4984,-0.4911,-0.4958,-0.5023,0.0,0.0,0.0,0.0,0.0,0.0,0.0,0.0,0.0,0.0,0.0,0.0,0.0,0.0,-0.4754,-0.4348,-0.4391,-0.446,-0.4324,0.0,0.0,0.0,0.0,0.0,0.0,0.0,0.0,0.0,0.0,0.0,0.0,0.0,0.0,0.4723,0.0,0.5067,0.0,0.0,0.0,0.0,0.0,0.0,0.0,0.0,0.6103,0.6258,0.6348,0.5708,0.5617,0.0,0.5928,0.5649,0.0,0.0,0.0,0.0,0.0,0.0,0.0,0.0,0.428,0.4209,0.486,0.5257,0.5355,0.5428,0.5428,0.5428,0.5428,0.5288,0.4935,0.5266,0.5069,0.0,0.0,0.0,0.0,0.0,0.0,0.0,0.0,0.0,0.0,0.0,0.0,0.0,0.0,0.0,0.0,0.0,0.0,0.0,0.0,0.0,0.0,0.0,-0.0,0.0,0.0,0.0,0.0,0.0,0.0,0.0,0.0,0.0,-0.1121,-0.3221,-0.4893,-0.505,-0.4951,-0.485,-0.4783,0.0,0.0,0.0,0.0,0.0,0.0,0.0,-0.4098,-0.2165,-0.3334,-0.4656,-0.5071,-0.547,-0.5634,-0.5428,0.0,0.0,-0.4824,-0.4645,-0.4803,-0.5305,-0.5081,-0.4775,-0.4638,-0.51,-0.5542,0.0,0.0,0.0,0.0,0.0,0.0,0.0,0.0,0.5291,0.5292,0.0,0.5622,0.0,0.0,0.0,0.0,0.0,0.5309,0.0,0.0,0.674,0.6818,0.5926,0.6141,0.6211,0.6057,0.6528,0.6352,0.5861,0.5582,0.0,0.0,0.0,0.0,0.0,0.0,0.4762,0.4549,0.5116,0.5428,0.5428,0.5428,0.5428,0.5428,0.5428,0.5425,0.5408,0.5387,0.5188,0.4684,0.3873,0.0,0.0,0.0,0.0,0.0,0.0,0.0,0.0,0.0,0.0,0.0,0.0,0.0,0.0,0.0,0.0,0.0,0.0,0.0,0.0,0.0679,0.0,0.0,0.0,0.0,0.0,0.0,0.0,0.0,0.0,0.0,-0.2903,-0.424,-0.5182,-0.462,0.0,0.0,0.0,0.0,-0.4774,-0.4748,-0.4701,-0.4704,-0.4773,-0.465,-0.4723,-0.5311,0.0,0.0,-0.6106,-0.626,-0.61,-0.5533,-0.5532,-0.5504,-0.5236,-0.5052,-0.5036,-0.5396,-0.543,-0.5303,-0.5101,-0.5454,-0.5956,0.7061,0.0,0.0,0.0,0.0,0.5429,0.5616,0.5758,0.546,0.5112,0.4752,0.5056,0.0,0.0,0.0,0.0,0.0,0.0,0.5944,0.5807,0.6135,0.6368,0.6444,0.6568,0.6647,0.6668,0.6894,0.6759,0.6274,0.6125,0.5599,0.4877,0.0,0.0,0.0,0.0,0.4602,0.4653,0.5111,0.5428,0.5428,0.5428,0.5428,0.5428,0.5428,0.5428,0.5428,0.5373,0.5199,0.486,0.4504,0.0,0.0,0.0,0.0,0.0,0.0,0.0,0.0,0.0,0.0,0.0,0.0,0.0,0.0,0.0,0.0,0.0,0.0,0.0,0.0574,0.0225,-0.0,0.0,0.0,0.0,0.0,0.0,0.0,0.0,0.0,0.0,-0.4312,-0.4568,-0.475,0.0,0.0,-0.3837,-0.4571,-0.4706,-0.477,-0.485,-0.4853,0.0,0.0,-0.4645,-0.4846,-0.5899,-0.5894,-0.5926,-0.6262,-0.6264,-0.6233,-0.6074,-0.6112,-0.603,-0.5935,-0.5701,-0.5684,-0.5935,-0.6019,-0.6083,-0.6103,-0.6284,-0.6434,0.7887,0.7269,0.6706,0.6511,0.6419,0.6183,0.614,0.6342,0.6127,0.5677,0.5202,0.525,0.5322,0.5466,0.5155,0.0,0.0,0.0,0.6342,0.6158,0.6193,0.6383,0.678,0.6848,0.6956,0.7095,0.7125,0.7003,0.6732,0.6616,0.6252,0.559,0.0,0.0,0.5036,0.5046,0.5009,0.5057,0.5311,0.545,0.5518,0.5459,0.5428,0.5428,0.5428,0.5428,0.5428,0.5428,0.5281,0.5098,0.4836,0.4565,0.0,0.0,0.0,0.0,0.0,0.0,0.0,0.0,0.0,0.0,0.0,0.381,0.407,0.0,0.0,0.0,0.329,0.1837,0.0174,-0.0,0.0,0.0,0.0,0.0,0.0,0.0,0.0,-0.4435,-0.4731,-0.4722,-0.475,-0.4707,-0.4727,-0.4927,-0.4363,-0.4216,-0.4845,0.0,-0.488,-0.4854,-0.4918,-0.4948,-0.4971,-0.4816,-0.5047,-0.6146,-0.6287,-0.6316,-0.6252,-0.628,-0.6257,-0.6261,-0.6261,-0.6261,-0.6261,-0.6105,-0.603,-0.622,-0.6318,-0.6342,-0.643,-0.6524,-0.6521,0.7885,0.7687,0.7643,0.778,0.7927,0.6997,0.6739,0.6993,0.6997,0.681,0.6417,0.6109,0.6074,0.6331,0.5202,0.0,0.6643,0.671,0.6682,0.6546,0.6688,0.6837,0.6983,0.7017,0.7238,0.7387,0.7244,0.7177,0.716,0.7069,0.684,0.6334,0.6006,0.5711,0.5481,0.5647,0.5722,0.5589,0.5586,0.5589,0.5586,0.544,0.5428,0.5428,0.5425,0.5425,0.5428,0.5425,0.5425,0.5415,0.4965,0.4738,0.4707,0.0,0.0,0.0,0.0,0.0,0.0,0.0,0.0,0.0,0.0,0.0,0.0,0.0,0.0,0.0,0.361,0.0,0.0185,-0.0,0.0,0.0,0.0,-0.1313,-0.4577,-0.4965,-0.4914,-0.4932,0.0,0.0,-0.4584,-0.4716,-0.4882,-0.4954,-0.5229,-0.5311,-0.5164,-0.5123,-0.5031,-0.4962,-0.4952,-0.502,-0.5133,-0.5084,-0.5307,-0.6099,-0.6254,-0.6228,-0.6266,-0.6207,-0.622,-0.6234,-0.624,-0.6247,-0.6257,-0.6325,-0.6261,-0.6257,-0.627,-0.6278,-0.6361,-0.6364,-0.6361,0.8441,0.8299,0.8313,0.8161,0.7973,0.7591,0.7536,0.76,0.76,0.7636,0.7608,0.726,0.7242,0.726,0.6324,0.6185,0.6869,0.7231,0.7346,0.7153,0.7193,0.7292,0.7431,0.7262,0.7211,0.7536,0.7702,0.7684,0.7482,0.7208,0.7078,0.6908,0.6597,0.624,0.5766,0.5677,0.5623,0.5593,0.5589,0.5589,0.5586,0.544,0.5428,0.5428,0.5394,0.5394,0.5428,0.5394,0.5394,0.5425,0.5322,0.5152,0.5026,0.4568,0.0,0.0,0.0,0.0,0.0,0.0,0.0,0.0,0.0,0.4632,0.5215,0.0,0.3592,0.0,0.0922,0.0634,-0.0,-0.0,0.0,0.0,-0.0,-0.0367,-0.123,-0.3658,-0.5178,-0.4946,-0.5174,-0.5227,-0.484,-0.47,-0.4458,-0.4025,-0.4807,-0.5403,-0.5346,-0.5181,-0.5058,-0.5034,-0.5179,-0.5322,-0.5336,-0.5573,-0.5867,-0.6212,-0.6177,-0.6119,-0.6078,-0.5912,-0.5868,-0.6054,-0.6081,-0.6129,-0.6237,-0.6261,-0.6261,-0.6261,-0.6291,-0.6346,-0.6444,-0.6471,-0.6555,0.8642,0.8679,0.8574,0.8299,0.8024,0.8153,0.8174,0.8116,0.8184,0.8096,0.7986,0.7841,0.7752,0.7647,0.7102,0.6966,0.7231,0.759,0.7675,0.7472,0.7475,0.7519,0.7594,0.7419,0.7453,0.7689,0.7921,0.7921,0.7682,0.7449,0.7292,0.732,0.6893,0.6508,0.623,0.603,0.5918,0.5979,0.5854,0.5725,0.5593,0.5508,0.5628,0.5947,0.5578,0.5539,0.5834,0.5414,0.5185,0.5159,0.5165,0.5191,0.5102,0.4806,0.4707,0.0,0.0,0.0,0.0,0.0,0.0,0.0,0.0,0.0,0.0,0.0,0.3898,-0.0,-0.0,-0.0,-0.0,-0.0,-0.0,-0.0,-0.0,-0.0,-0.0,-0.1755,-0.3579,-0.4951,-0.4598,-0.4395,-0.5036,-0.4997,-0.4527,-0.3535,-0.4527,-0.537,-0.538,-0.536,-0.5311,-0.5254,-0.542,-0.5532,-0.5406,-0.5596,-0.5853,-0.6153,-0.6072,-0.5999,-0.6499,-0.6075,-0.5847,-0.6426,-0.6247,-0.6081,-0.6227,-0.6261,-0.6261,-0.6261,-0.6261,-0.6288,-0.6359,-0.6458,-0.6458,0.8818,0.8913,0.8652,0.8364,0.8163,0.8521,0.8601,0.8377,0.8509,0.833,0.7994,0.7989,0.7896,0.776,0.7675,0.7675,0.7658,0.7872,0.7868,0.7655,0.7634,0.7638,0.7655,0.7634,0.7699,0.7831,0.7914,0.7917,0.7831,0.7716,0.7638,0.7597,0.7085,0.6789,0.6774,0.6468,0.6369,0.6413,0.6179,0.5922,0.5654,0.5589,0.5898,0.6461,0.5994,0.5892,0.6158,0.5312,0.4884,0.4914,0.4918,0.4931,0.5074,0.4955,0.4781,0.0,0.4556,0.0,0.0,0.0,0.0,0.0,0.0,0.0,0.0,0.4951,0.3389,-0.0,-0.0,-0.0,-0.0,-0.0,-0.0,-0.0,-0.0,-0.0,-0.0,-0.0,-0.1206,-0.4375,-0.3299,-0.3102,-0.5158,-0.543,-0.4854,-0.3889,-0.4737,-0.5521,-0.5437,-0.5515,-0.5559,-0.543,-0.562,-0.5701,-0.556,-0.5467,-0.562,-0.5996,-0.6109,-0.6239,-0.6924,-0.6489,-0.6165,-0.6818,-0.6423,-0.6051,-0.6224,-0.6261,-0.6261,-0.6261,-0.6261,-0.6261,-0.6349,-0.6532,-0.6514,0.8913,0.8933,0.8876,0.8835,0.8709,0.8869,0.8465,0.777,0.7797,0.7942,0.8206,0.81,0.8007,0.797,0.7982,0.7972,0.7963,0.7982,0.7972,0.7953,0.7828,0.7838,0.7946,0.7731,0.7751,0.7987,0.797,0.7974,0.7994,0.7967,0.7935,0.7897,0.7764,0.7499,0.7017,0.0,0.0,0.0,0.6183,0.6129,0.5942,0.5589,0.5522,0.5683,0.6876,0.0,0.5261,0.4763,0.4686,0.4914,0.4918,0.0,0.0,0.0,0.0,0.0,0.0,0.0,0.0,0.0,0.0,0.0,0.4472,0.4575,0.4593,0.2476,0.0715,-0.0,-0.0,-0.0,-0.0,-0.0,-0.0,-0.0,-0.0,-0.0,-0.0,-0.0,-0.0337,-0.0876,-0.0,-0.1953,-0.5358,-0.5693,-0.5385,-0.5193,-0.5752,-0.5949,-0.5634,-0.5604,-0.5671,-0.5722,-0.5728,-0.5718,-0.5752,-0.5701,-0.5799,-0.5689,-0.6569,-0.6813,-0.6328,-0.658,-0.6511,-0.632,-0.5913,-0.5945,-0.6283,-0.6261,-0.6412,-0.6335,-0.6335,-0.6261,-0.6338,-0.7211,-0.7807,0.8937,0.0,0.8937,0.8961,0.0,0.8716,0.837,0.7838,0.8133,0.8364,0.8473,0.8336,0.8326,0.8255,0.8086,0.7969,0.7923,0.7657,0.7627,0.7821,0.7743,0.7824,0.8038,0.7858,0.7861,0.8038,0.8038,0.8038,0.8038,0.8038,0.7967,0.8014,0.8037,0.7785,0.7366,0.7146,0.681,0.6366,0.6363,0.6295,0.6139,0.5772,0.5747,0.6127,0.0,0.0,0.0,0.0,0.0,0.0,0.0,0.0,0.0,0.0,0.0,0.445,0.3257,0.2461,0.2285,0.2288,0.2231,0.2261,0.2264,0.2297,0.2279,0.0893,-0.0,-0.0,-0.0,-0.0,-0.0,-0.0,-0.0,-0.0,-0.0,-0.0,-0.0,-0.0,-0.0,-0.0,-0.0,-0.122,-0.429,-0.5493,-0.5772,-0.581,-0.5817,-0.5909,-0.5978,-0.5911,-0.5858,-0.6006,-0.5898,-0.5823,-0.6096,-0.6968,-0.7054,-0.636,-0.7011,-0.7663,-0.7342,-0.7057,-0.7,-0.7107,-0.6929,-0.6869,-0.7631,-0.7783,-0.7702,-0.7302,-0.6747,-0.6357,-0.6377,-0.7631,-0.8782,0.8937,0.8937,0.8937,0.8907,0.8888,0.8673,0.8425,0.8225,0.0,0.0,0.0,0.8659,0.8495,0.8469,0.8255,0.8058,0.7882,0.7374,0.7318,0.7675,0.7678,0.7804,0.8035,0.8038,0.8038,0.8038,0.8038,0.8038,0.8038,0.8038,0.8038,0.8028,0.8014,0.7866,0.7594,0.7295,0.7021,0.6783,0.6603,0.6441,0.6295,0.5973,0.6093,0.6717,0.5552,0.5315,0.6136,0.5395,0.4969,0.4794,0.4541,0.4358,0.4508,0.4611,0.483,0.4989,0.2622,0.082,-0.0,-0.0,-0.0,-0.0,-0.0,-0.0,-0.0,-0.0,-0.0,-0.0,-0.0,-0.0,-0.0,-0.0,-0.0,-0.0,-0.0,-0.0,-0.0,-0.0,-0.0,-0.0,-0.0,-0.081,-0.2901,-0.5035,-0.6225,-0.6003,-0.578,-0.5698,-0.6126,-0.6139,-0.618,-0.6572,-0.6245,-0.601,-0.6541,-0.8375,-0.8971,-0.7969,-0.8163,-0.8669,-0.8922,-0.8211,-0.7794,-0.8387,-0.8124,-0.8296,-0.9015,-0.9145,-0.9135,-0.8571,-0.7694,-0.7075,-0.7435,-0.8489,-0.9372,0.8937,0.8937,0.8937,0.8913,0.8876,0.8872,0.8852,0.8788,0.8499,0.8353,0.834,0.8459,0.8503,0.8486,0.8464,0.8361,0.8218,0.7443,0.737,0.798,0.7977,0.7997,0.8038,0.8038,0.8038,0.8038,0.8038,0.8038,0.8038,0.8038,0.8038,0.8035,0.8018,0.7868,0.7597,0.7295,0.7119,0.7071,0.6807,0.6597,0.6441,0.6023,0.5864,0.5901,0.5274,0.5003,0.5279,0.5264,0.5212,0.4897,0.342,0.3169,0.4428,0.4932,0.3953,0.1343,0.3685,0.3824,-0.0,-0.0,-0.0,-0.0,-0.0,-0.0,-0.0,-0.0,-0.0,-0.0,-0.0,-0.0,-0.0,-0.0,-0.0,-0.0,-0.0,-0.0,-0.0,-0.0,-0.0,-0.0,-0.0,-0.0903,-0.309,-0.5061,-0.62,-0.6115,-0.6057,-0.6245,-0.6447,-0.6244,-0.6615,-0.7246,-0.6769,-0.6336,-0.6802,-0.9553,-1.1193,-1.1527,-1.0035,-0.9583,-1.0213,-0.9466,-0.8826,-0.8969,-0.8942,-0.9059,-0.9406,-0.9296,-0.9442,-0.9281,-0.9281,-0.9787,-1.0633,-1.0481,-0.9672,0.8937,0.8937,0.8937,0.8937,0.8937,0.8937,0.8937,0.892,0.8726,0.8632,0.8638,0.8703,0.873,0.8723,0.8742,0.8577,0.8265,0.7958,0.7885,0.8035,0.7957,0.8004,0.8147,0.8079,0.8038,0.8038,0.8038,0.8038,0.8038,0.8038,0.8038,0.8031,0.7963,0.7907,0.76,0.738,0.7224,0.7044,0.6851,0.6668,0.659,0.6156,0.5925,0.5928,0.5587,0.4885,0.3785,0.2924,0.3281,0.5064,0.4404,0.3393,0.2113,0.2318,0.1753,0.0231,0.1794,0.2042,0.0157,-0.0,-0.0,-0.0,-0.0,-0.0,-0.0,-0.0,-0.0,-0.0,-0.0,-0.0,-0.0,-0.0,-0.0,-0.0,-0.0,-0.0,-0.0,-0.0,-0.0,-0.2892,-0.3455,-0.3784,-0.4701,-0.5714,-0.6259,-0.6159,-0.6232,-0.6652,-0.7654,-0.7419,-0.7253,-0.7706,-0.7838,-0.7947,-0.8041,-1.0336,-1.2083,-1.2284,-1.1451,-1.0149,-0.9387,-0.8954,-0.9752,-0.9612,-0.9772,-1.0279,-1.0714,-1.095,-1.095,-1.0875,-1.0421,-1.094,-1.1671,-1.0177,-0.8268,0.8937,0.8937,0.8937,0.8937,0.8937,0.8937,0.8937,0.8937,0.8933,0.8937,0.8937,0.8937,0.8937,0.8913,0.8911,0.8723,0.8457,0.8539,0.8375,0.8119,0.8018,0.8089,0.8282,0.816,0.7992,0.7982,0.7959,0.8038,0.8038,0.8038,0.8038,0.8024,0.799,0.7842,0.76,0.7451,0.7295,0.7132,0.6854,0.6705,0.6688,0.6298,0.6091,0.6091,0.6003,0.5182,0.3524,0.1251,0.1327,0.3912,0.4155,0.29,-0.0,-0.0,-0.0,-0.0,-0.0,-0.0,-0.0,-0.0,-0.0,-0.0,-0.0,-0.0,-0.0,-0.0,-0.0,-0.0,-0.0,-0.0,-0.0,-0.0,-0.0,-0.0,-0.0,-0.0,-0.0,-0.0777,-0.2515,-0.5689,-0.6247,-0.6227,-0.6285,-0.6281,-0.6264,-0.6254,-0.6261,-0.7123,-0.8688,-0.8584,-0.8241,-0.8528,-0.8954,-0.9451,-0.9878,-1.1193,-1.215,-1.2298,-1.184,-1.064,-0.8985,-0.9612,-1.0405,-1.0507,-1.0863,-1.1354,-1.207,-1.2231,-1.2157,-1.2003,-1.1236,-1.0588,-1.0709,-0.8684,-0.6721,0.8937,0.8937,0.8937,0.8937,0.8937,0.8937,0.8937,0.8937,0.8937,0.8937,0.8937,0.8937,0.8937,0.8933,0.8903,0.8801,0.8665,0.8752,0.8663,0.8445,0.8428,0.8438,0.8448,0.821,0.8037,0.8014,0.8009,0.7949,0.8038,0.8038,0.8038,0.8021,0.7986,0.7842,0.76,0.7448,0.7295,0.7051,0.6946,0.6795,0.6685,0.641,0.6257,0.6254,0.6274,0.622,0.5469,0.2158,-0.0,0.0455,-0.0,-0.0,-0.0,-0.0,-0.0,-0.0,-0.0,-0.0,-0.0,-0.0,-0.0,-0.0,-0.0,-0.0,-0.0,-0.0,-0.0,-0.0,-0.0,-0.0,-0.0,-0.0,-0.0,-0.0,-0.0,-0.0,-0.0,-0.3454,-0.593,-0.6169,-0.6308,-0.6295,-0.6281,-0.6278,-0.6271,-0.6261,-0.6261,-0.7038,-0.8832,-0.919,-0.9448,-1.0034,-0.9921,-1.0215,-1.144,-1.207,-1.2305,-1.2224,-1.1527,-1.107,-1.104,-1.0825,-1.0971,-1.1573,-1.1944,-1.207,-1.2224,-1.2305,-1.2305,-1.2238,-1.1397,-1.0346,-0.8708,-0.7261,-0.649,0.8937,0.8937,0.8937,0.8937,0.8937,0.8937,0.8937,0.8937,0.8937,0.8937,0.8937,0.8937,0.8937,0.8937,0.8937,0.8899,0.8845,0.8849,0.8815,0.8743,0.8662,0.8618,0.8601,0.8357,0.8143,0.7958,0.7994,0.8022,0.7952,0.8038,0.8038,0.8021,0.7885,0.774,0.76,0.7448,0.7302,0.7071,0.6873,0.616,0.5181,0.5827,0.6295,0.6305,0.6322,0.5029,0.2716,0.086,-0.0,-0.0,-0.0,-0.0,-0.0,-0.0,-0.0,-0.0,-0.0,-0.0,-0.0,-0.0,-0.0,-0.0,-0.0,-0.0,-0.0,-0.0,-0.0,-0.0,-0.0,-0.0,-0.0,-0.0,-0.0,-0.0,-0.0,-0.0942,-0.354,-0.5207,-0.6322,-0.6302,-0.6291,-0.6278,-0.6271,-0.6268,-0.6264,-0.6261,-0.6261,-0.7111,-0.888,-0.9311,-0.9976,-1.1236,-1.1298,-1.1372,-1.215,-1.2305,-1.2305,-1.2231,-1.1996,-1.1996,-1.2003,-1.2077,-1.1848,-1.2305,-1.2305,-1.2305,-1.2305,-1.2305,-1.2305,-1.217,-1.1958,-1.0767,-0.7565,-0.6563,-0.6338,0.8937,0.8937,0.8937,0.8937,0.8937,0.8937,0.8937,0.8937,0.8937,0.8937,0.8937,0.8937,0.8937,0.8937,0.8937,0.8937,0.8937,0.8937,0.8937,0.8927,0.8821,0.8774,0.8757,0.8618,0.8469,0.8237,0.8074,0.7981,0.7955,0.8038,0.8038,0.7915,0.7784,0.764,0.76,0.7451,0.7312,0.7088,0.6944,0.6085,0.5004,0.57,0.6258,0.6232,0.5145,0.3067,-0.0,-0.0,-0.0,-0.0,-0.0,-0.0,-0.0,-0.0,-0.0,-0.0,-0.0,-0.0,-0.0,-0.1098,-0.1726,-0.1644,-0.0784,-0.0,-0.0,-0.0,-0.0,-0.0,-0.0,-0.0,-0.0,-0.0,-0.0,-0.0,-0.0864,-0.3144,-0.5767,-0.6322,-0.6305,-0.6281,-0.6278,-0.6271,-0.6264,-0.6261,-0.6261,-0.6261,-0.6335,-0.7022,-0.877,-0.9372,-0.997,-1.1929,-1.2231,-1.2231,-1.2305,-1.2305,-1.2305,-1.2305,-1.2224,-1.2224,-1.2305,-1.2305,-1.2305,-1.2305,-1.2305,-1.2305,-1.2305,-1.2305,-1.2325,-1.2109,-1.1546,-1.0127,-0.7003,-0.6391,-0.6325,0.8937,0.8937,0.8937,0.8937,0.8937,0.8937,0.8937,0.8937,0.8937,0.8937,0.8937,0.8937,0.8937,0.8937,0.8937,0.8937,0.8937,0.8937,0.8937,0.8937,0.8923,0.8923,0.892,0.8886,0.8842,0.8689,0.824,0.7994,0.8048,0.8038,0.8038,0.8028,0.7788,0.7644,0.7614,0.7475,0.7329,0.7108,0.7075,0.7004,0.6724,0.642,0.6016,0.5569,0.2467,-0.0,-0.0,-0.0,-0.0,-0.0,-0.0,-0.0,-0.0,-0.0,-0.0,-0.0,-0.0,-0.0,-0.0,-0.3458,-0.568,-0.5347,-0.0,-0.0,-0.0,-0.0,-0.0,-0.0,-0.0,-0.0,-0.0,-0.0,-0.0,-0.0,-0.3698,-0.5686,-0.6169,-0.6298,-0.6285,-0.6278,-0.6271,-0.6264,-0.6261,-0.6261,-0.6261,-0.6261,-0.6261,-0.7022,-0.877,-0.9296,-1.0201,-1.1626,-1.2305,-1.2305,-1.2305,-1.2305,-1.2305,-1.2305,-1.2305,-1.2305,-1.2305,-1.2305,-1.2305,-1.2305,-1.2305,-1.2305,-1.2305,-1.2318,-1.2271,-1.1558,-0.9707,-0.7895,-0.7363,-0.6583,-0.6444,0.8937,0.8937,0.8937,0.8937,0.8937,0.8937,0.8937,0.8937,0.8937,0.8937,0.8937,0.8937,0.8937,0.8937,0.8937,0.8937,0.8937,0.8937,0.8937,0.8937,0.8937,0.8937,0.8933,0.8879,0.8889,0.8845,0.8367,0.817,0.7959,0.8038,0.8038,0.8014,0.7885,0.779,0.7624,0.7522,0.7292,0.7161,0.7125,0.7153,0.6694,0.3926,0.2229,0.2208,0.082,-0.0,-0.0,-0.0,-0.0,-0.0,-0.0,-0.0,-0.0,-0.0,-0.0,-0.0,-0.0,-0.0,-0.0,-0.3932,-0.6318,-0.622,-0.4956,-0.2669,-0.0,-0.0,-0.0,-0.0,-0.0,-0.0,-0.2907,-0.1648,-0.1098,-0.3696,-0.5277,-0.6305,-0.6295,-0.6281,-0.6274,-0.6271,-0.6264,-0.6261,-0.6261,-0.6261,-0.6261,-0.6261,-0.6261,-0.7249,-0.8694,-0.9296,-1.0051,-1.17,-1.2305,-1.2305,-1.2305,-1.2305,-1.2305,-1.2305,-1.2305,-1.2305,-1.2305,-1.2305,-1.2305,-1.2305,-1.2305,-1.2305,-1.2305,-1.2311,-1.2271,-1.19,-0.9883,-0.9035,-0.8505,-0.7816,-0.7294,0.8937,0.8937,0.8937,0.8937,0.8937,0.8937,0.8937,0.8937,0.8937,0.8937,0.8937,0.8937,0.8937,0.894,0.8947,0.8944,0.8937,0.8937,0.8937,0.8937,0.8937,0.8937,0.8937,0.8937,0.8862,0.881,0.8401,0.812,0.8099,0.8046,0.8026,0.8022,0.798,0.7889,0.7727,0.7422,0.7207,0.6971,0.5678,0.4806,0.4418,0.1685,-0.0,-0.0,-0.0,-0.0,-0.0,-0.0,-0.0,-0.0,-0.0,-0.0,-0.0,-0.0,-0.0,-0.0,-0.0,-0.0,-0.0,-0.2668,-0.48,-0.6139,-0.6237,-0.4896,-0.2217,-0.0788,-0.0709,-0.1505,-0.2047,-0.3301,-0.4164,-0.329,-0.329,-0.5755,-0.6302,-0.6288,-0.6281,-0.6274,-0.6268,-0.6261,-0.6261,-0.6261,-0.6261,-0.6261,-0.6261,-0.6261,-0.6644,-0.7638,-0.8922,-0.9669,-1.0346,-1.1929,-1.2305,-1.2305,-1.2305,-1.2305,-1.2305,-1.2305,-1.2305,-1.2305,-1.2305,-1.2305,-1.2305,-1.2305,-1.2305,-1.2305,-1.2305,-1.2305,-1.2264,-1.2311,-1.1732,-1.076,-0.9965,-0.915,-0.8546,0.8937,0.8937,0.8937,0.8937,0.8937,0.8937,0.8937,0.8937,0.8937,0.8937,0.8937,0.894,0.8944,0.8944,0.8964,0.896,0.8947,0.8947,0.8944,0.8937,0.8937,0.894,0.894,0.894,0.8866,0.8932,0.8334,0.8063,0.7824,0.7623,0.7573,0.7766,0.7342,0.7329,0.7997,0.7468,0.7029,0.5794,0.2589,-0.0,-0.0,-0.0,-0.0,-0.0,-0.0,-0.0,-0.0,-0.0,-0.0,-0.0,-0.0,-0.0,-0.0,-0.0,-0.0,-0.0,-0.0,-0.0,-0.0,-0.0,-0.2349,-0.487,-0.6084,-0.6083,-0.5173,-0.2631,-0.2066,-0.4766,-0.5589,-0.5506,-0.4148,-0.4854,-0.5808,-0.6291,-0.6285,-0.6278,-0.6274,-0.6268,-0.6261,-0.6261,-0.6261,-0.6342,-0.6345,-0.6288,-0.6291,-0.6443,-0.7138,-0.8363,-0.9402,-1.0137,-1.1019,-1.1929,-1.2305,-1.2305,-1.2305,-1.2305,-1.2305,-1.2305,-1.2305,-1.2305,-1.2305,-1.2305,-1.2305,-1.2305,-1.2305,-1.2305,-1.2305,-1.2305,-1.2305,-1.2264,-1.2164,-1.2016,-1.1186,-1.0212,-0.964,0.8937,0.8937,0.8937,0.8937,0.8937,0.8937,0.8937,0.8937,0.8937,0.8937,0.894,0.8957,0.896,0.8856,0.8873,0.888,0.8876,0.8873,0.8856,0.8944,0.8937,0.8947,0.896,0.8964,0.8889,0.8879,0.8766,0.7378,0.5732,0.5378,0.5256,0.493,0.3407,0.4606,0.7658,0.776,0.6189,0.2364,0.0838,-0.0,-0.0,-0.0,-0.0,-0.0,-0.0,-0.0,-0.0,-0.0,-0.0,-0.0,-0.0,-0.0,-0.0,-0.0,-0.0,-0.0,-0.0,-0.0,-0.0,-0.0,-0.0,-0.2278,-0.455,-0.6086,-0.6299,-0.495,-0.4615,-0.6128,-0.6241,-0.5895,-0.5643,-0.5802,-0.6281,-0.6281,-0.6274,-0.6264,-0.6268,-0.6264,-0.6261,-0.6261,-0.6261,-0.6475,-0.6662,-0.6596,-0.6314,-0.6321,-0.6788,-0.7783,-1.0357,-1.0257,-1.0576,-1.1848,-1.2077,-1.2305,-1.2305,-1.2305,-1.2305,-1.2305,-1.2305,-1.2305,-1.2305,-1.2305,-1.2305,-1.2305,-1.2305,-1.2305,-1.2305,-1.2305,-1.2305,-1.2305,-1.2238,-1.2083,-1.1855,-1.136,-1.0663,0.8937,0.8937,0.8937,0.8937,0.8937,0.8937,0.8937,0.894,0.8947,0.895,0.8957,0.8863,0.819,0.7733,0.8323,0.8897,0.8893,0.89,0.8883,0.886,0.8964,0.886,0.8873,0.8863,0.8933,0.8391,0.6668,0.5764,0.5746,0.3653,0.2563,0.212,0.084,0.1554,0.4735,0.4931,0.304,-0.0,-0.0,-0.0,-0.0,-0.0,-0.0,-0.0,-0.0,-0.0,-0.0,-0.0,-0.0,-0.0,-0.0,-0.0,-0.0,-0.0,-0.0,-0.0,-0.0,-0.0,-0.0,-0.0,-0.0,-0.0,-0.2488,-0.3848,-0.3946,-0.3942,-0.4335,-0.6018,-0.6268,-0.6291,-0.6281,-0.6329,-0.6325,-0.6271,-0.6268,-0.6261,-0.6261,-0.6261,-0.6261,-0.6261,-0.6261,-0.6523,-0.6652,-0.6676,-0.6421,-0.6445,-0.6404,-0.7228,-1.0039,-1.0383,-1.1073,-1.1781,-1.2157,-1.2305,-1.2305,-1.2305,-1.2305,-1.2305,-1.2305,-1.2305,-1.2305,-1.2305,-1.2305,-1.2305,-1.2305,-1.2305,-1.2305,-1.2305,-1.2305,-1.2305,-1.2305,-1.2157,-1.2022,-1.2133,-1.1495,0.8937,0.8937,0.8937,0.8937,0.8937,0.8937,0.8937,0.894,0.896,0.8742,0.852,0.8768,0.707,0.5371,0.651,0.7424,0.8214,0.765,0.7877,0.81,0.8323,0.8323,0.889,0.8883,0.886,0.814,0.4062,0.374,0.646,0.3081,0.0109,0.0322,-0.0,-0.0,-0.0,-0.0,-0.0,-0.0,-0.0,-0.0,-0.0,-0.0,-0.0,-0.0,-0.0,-0.0,-0.0,-0.0,-0.0,-0.0,-0.0,-0.0,-0.0,-0.0,-0.0,-0.0,-0.0,-0.0,-0.0,-0.0,-0.0,-0.0,-0.0644,-0.0329,-0.159,-0.2243,-0.3309,-0.5948,-0.6321,-0.6305,-0.6308,-0.6383,-0.6393,-0.6305,-0.6278,-0.6264,-0.6355,-0.6285,-0.6285,-0.6352,-0.6352,-0.6356,-0.6647,-0.6627,-0.6688,-0.6647,-0.658,-0.7556,-0.8535,-0.9689,-1.101,-1.1658,-1.2042,-1.2264,-1.2277,-1.2305,-1.2305,-1.2305,-1.2311,-1.2311,-1.2311,-1.2311,-1.2305,-1.2305,-1.2305,-1.2305,-1.2305,-1.2305,-1.2305,-1.2305,-1.2305,-1.2305,-1.2277,-1.2289,-1.1389,0.8937,0.8937,0.8937,0.8937,0.8937,0.8937,0.8937,0.894,0.8964,0.7724,0.648,0.7979,0.583,-0.0,-0.0,0.2353,-0.0,-0.0,0.3703,0.5394,0.5622,0.6977,0.8568,0.8805,0.8802,0.8329,0.6468,0.5133,0.2687,0.2896,0.1883,-0.0,-0.0,-0.0,-0.0,-0.0,-0.0,-0.0,-0.0,-0.0,-0.0,-0.0,-0.0,-0.0,-0.0,-0.0,-0.0,-0.0,-0.0,-0.0,-0.0,-0.0,-0.0,-0.0,-0.0,-0.0,-0.0,-0.1572,-0.3862,-0.4494,-0.3221,-0.0549,-0.1787,-0.3435,-0.5129,-0.5042,-0.5518,-0.6572,-0.6461,-0.6383,-0.6322,-0.6479,-0.6441,-0.6496,-0.6352,-0.6312,-0.6376,-0.6417,-0.638,-0.6302,-0.6451,-0.6498,-0.6499,-0.6566,-0.6803,-0.6925,-0.6961,-0.6929,-0.7829,-0.9207,-1.064,-1.1181,-1.1652,-1.21,-1.2311,-1.2331,-1.2305,-1.2305,-1.2311,-1.2325,-1.2318,-1.2318,-1.2311,-1.2305,-1.2305,-1.2305,-1.2305,-1.2305,-1.2305,-1.2305,-1.2305,-1.2305,-1.2224,-1.2123,-1.0836,0.8937,0.8937,0.8937,0.8937,0.8937,0.8937,0.8937,0.8944,0.886,0.7276,0.5137,0.4817,0.325,-0.0,-0.0,-0.0,-0.0,-0.0,-0.0,0.2244,0.258,0.3587,0.4821,0.5164,0.5732,0.6862,0.5719,0.4817,0.3699,0.3245,0.1562,-0.0,-0.0,-0.0,-0.0,-0.0,-0.0,-0.0,-0.0,-0.0,-0.0,-0.0,-0.0,-0.0,-0.0,-0.0,-0.0,-0.0,-0.0,-0.0,-0.0,-0.0,-0.0,-0.0,-0.0,-0.0,-0.1768,-0.4216,-0.5836,-0.6454,-0.5291,-0.3547,-0.4309,-0.542,-0.6645,-0.6956,-0.6902,-0.6666,-0.6637,-0.6515,-0.6503,-0.6488,-0.6586,-0.6644,-0.6536,-0.6434,-0.6403,-0.643,-0.6464,-0.6488,-0.659,-0.6679,-0.6587,-0.6738,-0.6863,-0.6983,-0.7121,-0.6979,-0.7083,-0.8719,-1.0124,-1.0846,-1.1676,-1.229,-1.2348,-1.2344,-1.2325,-1.2311,-1.2276,-1.2263,-1.2271,-1.2271,-1.2291,-1.2284,-1.2331,-1.2305,-1.2305,-1.2305,-1.2305,-1.2305,-1.2305,-1.2311,-1.2231,-1.1347,-1.0051,0.8937,0.8937,0.8937,0.8937,0.8937,0.8937,0.894,0.895,0.8876,0.7524,0.5037,0.1568,-0.0,-0.0,-0.0,-0.0,-0.0,-0.0,-0.0,-0.0,-0.0,-0.0,-0.0,-0.0,-0.0,0.3467,0.1229,0.3021,0.4597,0.2577,0.0891,-0.0,-0.0,-0.0,-0.0,-0.0,-0.0,-0.0,-0.0,-0.0,-0.0,-0.0,-0.0,-0.0,-0.0,-0.0,-0.0,-0.0,-0.0,-0.0,-0.0,-0.0,-0.0,-0.0,-0.0,-0.0,-0.4062,-0.604,-0.6895,-0.6603,-0.6407,-0.6147,-0.6293,-0.6837,-0.7052,-0.7097,-0.6953,-0.6719,-0.6756,-0.6764,-0.6695,-0.6668,-0.6759,-0.6834,-0.6773,-0.6597,-0.6413,-0.643,-0.6576,-0.6719,-0.6753,-0.6885,-0.6917,-0.696,-0.682,-0.7065,-0.7118,-0.7022,-0.7513,-0.8919,-1.0065,-1.077,-1.1667,-1.2665,-1.2596,-1.2355,-1.2324,-1.2264,-1.23,-1.2332,-1.233,-1.2317,-1.2276,-1.2276,-1.2271,-1.2305,-1.2305,-1.2305,-1.2238,-1.1929,-1.1706,-1.2016,-1.2103,-1.0547,-0.9113,0.8937,0.8937,0.8937,0.8937,0.8937,0.8937,0.895,0.8856,0.8886,0.8444,0.674,0.2353,-0.0,-0.0,-0.0,-0.0,-0.0,-0.0,-0.0,-0.0,-0.0,-0.0,-0.0,-0.0,-0.0,-0.0,-0.0,-0.0,-0.0,0.4487,0.4369,-0.0,-0.0,-0.0,-0.0,-0.0,-0.0,-0.0,-0.0,-0.0,-0.0,-0.0,-0.0,-0.0,-0.0,-0.0,-0.0,-0.0,-0.0,-0.0,-0.0,-0.0,-0.0,-0.3367,-0.4977,-0.4959,-0.4446,-0.522,-0.6472,-0.6795,-0.6654,-0.6654,-0.6797,-0.6949,-0.7085,-0.7099,-0.7034,-0.6926,-0.6885,-0.6861,-0.6837,-0.6858,-0.6898,-0.6926,-0.6905,-0.681,-0.6675,-0.6732,-0.6858,-0.6966,-0.7017,-0.7068,-0.7041,-0.7031,-0.7014,-0.7132,-0.7099,-0.7125,-0.7947,-0.9105,-1.0011,-1.0762,-1.2147,-1.3002,-1.2868,-1.2612,-1.2516,-1.2437,-1.2342,-1.2459,-1.2461,-1.2443,-1.2441,-1.2417,-1.2325,-1.2305,-1.2305,-1.219,-1.2129,-1.1658,-1.1099,-1.1558,-1.1347,-0.9727,-0.885,0.8937,0.8937,0.8937,0.8944,0.8954,0.8954,0.8856,0.8876,0.8897,0.8907,0.7653,0.2578,-0.0,-0.0,-0.0,-0.0,-0.0,-0.0,-0.0,-0.0,-0.0,-0.0,-0.0,-0.0,-0.0,-0.0,-0.0,-0.0,-0.0,-0.0,0.269,-0.0,-0.0,-0.0,-0.0,-0.0,-0.0,-0.0,-0.0,-0.0,-0.0,-0.0,-0.0,-0.0,-0.0,-0.0,-0.0,-0.0,-0.0,-0.0,-0.2021,-0.2156,-0.1115,-0.4405,-0.6857,-0.68,-0.6138,-0.562,-0.6754,-0.6865,-0.6824,-0.6824,-0.6909,-0.6993,-0.7099,-0.7139,-0.7071,-0.6987,-0.6983,-0.7031,-0.7031,-0.694,-0.7027,-0.7027,-0.7027,-0.6987,-0.6929,-0.684,-0.685,-0.6927,-0.7058,-0.7105,-0.7139,-0.7139,-0.7139,-0.7139,-0.7139,-0.7173,-0.7698,-0.8789,-0.9957,-1.1036,-1.2554,-1.3332,-1.318,-1.2968,-1.2762,-1.2626,-1.2505,-1.2687,-1.2828,-1.2762,-1.2639,-1.2516,-1.2365,-1.2311,-1.2311,-1.2203,-1.1515,-1.0548,-1.0146,-1.0846,-1.094,-1.0089,-0.937,0.8937,0.894,0.8944,0.8954,0.8856,0.8409,0.8422,0.89,0.8907,0.8112,0.6746,0.2017,-0.0,-0.0,-0.0,-0.0,-0.0,-0.0,-0.0,-0.0,-0.0,-0.0,-0.0,-0.0,-0.0,-0.0,-0.0,-0.0,-0.0,-0.0,-0.0,-0.0,-0.0,-0.0,-0.0,-0.0,-0.0,-0.0,-0.0,-0.0,-0.0,-0.0,-0.0,-0.0,-0.0,-0.0,-0.0,-0.0,-0.0,-0.0,-0.4589,-0.4446,-0.3348,-0.4425,-0.7081,-0.7111,-0.6906,-0.6926,-0.6913,-0.7034,-0.7007,-0.7041,-0.7041,-0.7024,-0.7024,-0.7136,-0.7085,-0.7058,-0.7058,-0.7119,-0.7139,-0.7122,-0.7126,-0.7129,-0.7132,-0.7139,-0.7119,-0.694,-0.6887,-0.6867,-0.7058,-0.7129,-0.7139,-0.7139,-0.7139,-0.7139,-0.7139,-0.7228,-0.7749,-0.8528,-0.9698,-1.0792,-1.2152,-1.3454,-1.3487,-1.2882,-1.2716,-1.2919,-1.2706,-1.2928,-1.3066,-1.3003,-1.2856,-1.2599,-1.2432,-1.2385,-1.2009,-1.1452,-1.0605,-0.9355,-0.8874,-0.9246,-0.9755,-1.0384,-0.9766,0.8937,0.894,0.896,0.8856,0.8409,0.6376,0.6728,0.8677,0.8453,0.5956,-0.0,-0.0,-0.0,-0.0,-0.0,-0.0,-0.0,-0.0,-0.0,-0.0,-0.0,-0.0,-0.0,-0.0,-0.0,-0.0,-0.0,-0.0,-0.0,-0.0,-0.0,-0.0,-0.0,-0.0,-0.0,-0.0,-0.0,-0.0,-0.0,-0.0,-0.0,-0.0,-0.2536,-0.4979,-0.2704,-0.0,-0.0,-0.0,-0.0,-0.0,-0.0,-0.6106,-0.5891,-0.6532,-0.6982,-0.7143,-0.7132,-0.7149,-0.7136,-0.7126,-0.7109,-0.7041,-0.7105,-0.7095,-0.7132,-0.7139,-0.7115,-0.7115,-0.7109,-0.7139,-0.7139,-0.7139,-0.7139,-0.7139,-0.7139,-0.7139,-0.7132,-0.7034,-0.6997,-0.6974,-0.7112,-0.7139,-0.7139,-0.7139,-0.7139,-0.7139,-0.7139,-0.7139,-0.7401,-0.8273,-0.9396,-1.0504,-1.1701,-1.2841,-1.3769,-1.3019,-1.2632,-1.3131,-1.3135,-1.3169,-1.3324,-1.3187,-1.2968,-1.2849,-1.2639,-1.2505,-1.1877,-1.1174,-1.1103,-1.0895,-0.9428,-0.788,-0.9051,-1.0354,-0.9524,0.8954,0.8957,0.887,0.7059,0.4918,0.6277,0.5721,0.4374,0.4263,0.269,-0.0,-0.0,-0.0,-0.0,-0.0,-0.0,-0.0,-0.0,-0.0,-0.0,-0.0,-0.0,-0.0,-0.0,-0.0,-0.0,-0.0,-0.0,-0.0,-0.0,-0.0,-0.0,-0.0,-0.0,-0.0,-0.0,-0.0,-0.0,-0.0,-0.0,-0.0,-0.2296,-0.5829,-0.6208,-0.5529,-0.2991,-0.0,-0.0,-0.0,-0.0,-0.0,-0.5833,-0.6729,-0.7084,-0.7074,-0.716,-0.7149,-0.7139,-0.7139,-0.7139,-0.7136,-0.7139,-0.7139,-0.7139,-0.7139,-0.7139,-0.7139,-0.7139,-0.7139,-0.7139,-0.7139,-0.7139,-0.7139,-0.7139,-0.7143,-0.7146,-0.716,-0.7217,-0.7207,-0.7166,-0.7234,-0.7231,-0.7139,-0.7139,-0.7139,-0.7139,-0.7139,-0.7139,-0.7139,-0.7925,-0.8973,-1.0269,-1.1466,-1.3018,-1.3987,-1.3527,-1.2846,-1.324,-1.3406,-1.3441,-1.3581,-1.3475,-1.3437,-1.3326,-1.3039,-1.2665,-1.2346,-1.1809,-1.212,-1.2421,-1.1648,-1.0824,-1.0312,-1.0085,-0.9298,0.8863,0.887,0.889,0.5489,0.1341,0.4933,0.4375,-0.0,-0.0,-0.0,-0.0,-0.0,-0.0,-0.0,-0.0,-0.0,-0.0,-0.0,-0.0,-0.0,-0.0,-0.0,-0.0,-0.0,-0.0,-0.0,-0.0,-0.0,-0.0,-0.0,-0.0,-0.0,-0.0,-0.0,-0.0,-0.0,-0.0,-0.0,-0.0,-0.0,-0.2526,-0.5584,-0.7993,-0.7973,-0.802,-0.5713,-0.0,-0.0,-0.0,-0.4714,-0.5305,-0.5275,-0.6723,-0.7183,-0.719,-0.7183,-0.716,-0.7143,-0.7139,-0.7139,-0.7139,-0.7139,-0.7139,-0.7139,-0.7139,-0.7139,-0.7139,-0.7139,-0.7139,-0.7139,-0.7139,-0.7139,-0.7139,-0.7153,-0.717,-0.7197,-0.7231,-0.7268,-0.7205,-0.7248,-0.7361,-0.7408,-0.7404,-0.7848,-0.7937,-0.758,-0.758,-0.7408,-0.7492,-0.7665,-0.8623,-0.9927,-1.1381,-1.3237,-1.4088,-1.4076,-1.3608,-1.346,-1.3387,-1.328,-1.3554,-1.3811,-1.3757,-1.3642,-1.312,-1.2709,-1.2496,-1.2496,-1.2614,-1.2979,-1.3696,-1.3008,-1.1126,-1.0108,-0.9446,0.8873,0.8897,0.8792,0.5493,-0.0,-0.0,-0.0,-0.0,-0.0,-0.0,-0.0,-0.0,-0.0,-0.0,-0.0,-0.0,-0.0,-0.0,-0.0,-0.0,-0.0,-0.0,-0.0,-0.0,-0.0,-0.0,-0.0,-0.0,-0.0,-0.0,-0.0,-0.0,-0.0,-0.0,-0.0,-0.0,-0.0,-0.0,-0.0,-0.0,-0.5989,-0.7485,-0.7949,-0.7994,-0.7909,-0.7521,-0.6165,-0.5573,-0.575,-0.4412,-0.6062,-0.6643,-0.7104,-0.7288,-0.7333,-0.7302,-0.7231,-0.7143,-0.716,-0.7146,-0.7139,-0.7139,-0.7139,-0.7139,-0.7139,-0.7139,-0.7139,-0.7139,-0.7139,-0.7139,-0.7139,-0.7139,-0.7139,-0.7193,-0.7348,-0.7403,-0.7444,-0.7724,-0.7745,-0.7869,-0.8068,-0.7978,-0.7929,-0.8464,-0.8823,-0.838,-0.8025,-0.7937,-0.8021,-0.8364,-0.8873,-1.0346,-1.13,-1.3074,-1.4099,-1.4081,-1.402,-1.381,-1.3627,-1.3323,-1.3585,-1.3933,-1.4,-1.3776,-1.336,-1.2981,-1.2838,-1.2851,-1.308,-1.3437,-1.3808,-1.2588,-1.0752,-1.0054,-0.9493,0.8897,0.8565,0.5276,0.2464,-0.0,-0.0,-0.0,-0.0,-0.0,-0.0,-0.0,-0.0,-0.0,-0.0,-0.0,-0.0,-0.0,-0.0,-0.0,-0.0,-0.0,-0.0,-0.0,-0.0,-0.0,-0.0,-0.0,-0.0,-0.0,-0.0,-0.0,-0.0,-0.0,-0.0,-0.0,-0.0,-0.0,-0.0,-0.0,-0.0,-0.6516,-0.8012,-0.7992,-0.7972,-0.8004,-0.8031,-0.7935,-0.7756,-0.713,-0.6117,-0.7161,-0.7237,-0.724,-0.7376,-0.7595,-0.7688,-0.754,-0.7366,-0.7282,-0.7197,-0.717,-0.7146,-0.7146,-0.7139,-0.7139,-0.7146,-0.7146,-0.7139,-0.7139,-0.7143,-0.7143,-0.7139,-0.72,-0.7351,-0.7786,-0.7766,-0.7908,-0.8306,-0.8486,-0.8687,-0.8955,-0.9177,-0.9327,-0.957,-0.9932,-0.9589,-0.9423,-0.9437,-0.9506,-0.9662,-1.0341,-1.1193,-1.1969,-1.2832,-1.3691,-1.4092,-1.4092,-1.3978,-1.3974,-1.3796,-1.3732,-1.3901,-1.4018,-1.4065,-1.3788,-1.3532,-1.3176,-1.2586,-1.2227,-1.2998,-1.3926,-1.2468,-1.1079,-0.9857,-0.9191,0.8003,0.6182,0.1793,-0.0,-0.0,-0.0,-0.0,-0.0,-0.0,-0.0,-0.0,-0.0,-0.0,-0.0,-0.0,-0.0,-0.0,-0.0,-0.0,-0.0,-0.0,-0.0,-0.0,-0.0,-0.0,-0.0,-0.0,-0.0,-0.0,-0.0,-0.0,-0.0,-0.0,-0.0,-0.0,-0.0,-0.0,-0.0,-0.0,-0.405,-0.6441,-0.7607,-0.7882,-0.7962,-0.8041,-0.7994,-0.801,-0.7935,-0.7849,-0.7692,-0.751,-0.747,-0.7379,-0.7516,-0.7743,-0.7844,-0.7725,-0.7594,-0.7485,-0.7292,-0.7185,-0.7151,-0.7207,-0.7227,-0.7231,-0.721,-0.721,-0.7238,-0.7221,-0.7197,-0.7071,-0.7081,-0.7485,-0.7934,-0.8477,-0.8379,-0.8529,-0.915,-0.9757,-1.022,-1.0632,-1.1364,-1.1338,-1.1107,-1.0935,-1.0697,-1.0722,-1.0926,-1.0916,-1.0885,-1.1117,-1.1707,-1.2049,-1.2747,-1.3626,-1.4068,-1.4082,-1.4132,-1.413,-1.4096,-1.4018,-1.3955,-1.4045,-1.4105,-1.4082,-1.4001,-1.3622,-1.2374,-1.1375,-1.2883,-1.3798,-1.2903,-1.1662,-1.024,-0.8911,0.5626,0.0561,-0.0,-0.0,-0.0,-0.0,-0.0,-0.0,-0.0,-0.0,-0.0,-0.0,-0.0,-0.0,-0.0,-0.0,-0.0,-0.0,-0.0,-0.0,-0.0,-0.0,-0.0,-0.0,-0.0,-0.0,-0.0,-0.0,-0.0,-0.0,-0.0,-0.0,-0.0,-0.0,-0.0,-0.0,-0.0,-0.1862,-0.4513,-0.5374,-0.6095,-0.6825,-0.7982,-0.7949,-0.8041,-0.8031,-0.8018,-0.801,-0.7938,-0.7797,-0.7723,-0.7672,-0.76,-0.7657,-0.7894,-0.7897,-0.7897,-0.7777,-0.7716,-0.7406,-0.7363,-0.7419,-0.7448,-0.737,-0.739,-0.737,-0.7377,-0.7397,-0.737,-0.7302,-0.7171,-0.7244,-0.766,-0.9083,-0.9839,-1.02,-1.0301,-1.0457,-1.1055,-1.1631,-1.2275,-1.2907,-1.3163,-1.2787,-1.218,-1.1843,-1.1912,-1.2112,-1.1796,-1.1774,-1.1643,-1.1878,-1.1958,-1.2656,-1.3815,-1.4088,-1.4088,-1.4088,-1.4079,-1.4072,-1.4041,-1.4119,-1.4085,-1.4119,-1.4088,-1.4088,-1.4075,-1.3246,-1.2908,-1.3607,-1.3639,-1.2674,-1.1084,-0.9222,-0.8321,0.2132,-0.0,-0.0,-0.0,-0.0,-0.0,-0.0,-0.0,-0.0,-0.0,-0.0,-0.0,-0.0,-0.0,-0.0,-0.0,-0.0,-0.0,-0.0,-0.0,-0.0,-0.0,-0.0,-0.0,-0.0,-0.0,-0.0,-0.0,-0.0,-0.0,-0.0,-0.0,-0.0,-0.0,-0.0,-0.0,-0.0,-0.506,-0.7078,-0.7615,-0.7379,-0.7307,-0.8153,-0.8045,-0.8038,-0.8038,-0.8028,-0.7991,-0.7963,-0.7936,-0.7885,-0.7858,-0.7841,-0.7909,-0.7929,-0.8038,-0.7936,-0.7936,-0.7896,-0.765,-0.7604,-0.7691,-0.764,-0.7519,-0.7543,-0.7519,-0.7519,-0.7526,-0.7526,-0.7458,-0.7267,-0.7244,-0.7894,-1.0054,-1.142,-1.1891,-1.2021,-1.1972,-1.2136,-1.2693,-1.344,-1.4231,-1.4311,-1.4381,-1.3707,-1.3083,-1.3143,-1.313,-1.2814,-1.2661,-1.2607,-1.2583,-1.2747,-1.2838,-1.3906,-1.4088,-1.4088,-1.4088,-1.4088,-1.4088,-1.4088,-1.4082,-1.4062,-1.4082,-1.4088,-1.4088,-1.4088,-1.4088,-1.4088,-1.4088,-1.3404,-1.246,-1.0537,-0.8341,-0.7797,-0.0,-0.0,-0.0,-0.0,-0.0,-0.0,-0.0,-0.0,-0.0,-0.0,-0.0,-0.0,-0.0,-0.0,-0.0,-0.0,-0.0,-0.0,-0.0,-0.0,-0.0,-0.0,-0.0,-0.0,-0.0,-0.0,-0.0,-0.0,-0.0,-0.0,-0.0,-0.0,-0.0,-0.0,-0.0,-0.2241,-0.4797,-0.788,-0.8737,-0.8642,-0.8263,-0.8241,-0.817,-0.8048,-0.8038,-0.8038,-0.8038,-0.8021,-0.8024,-0.8021,-0.8014,-0.8028,-0.8031,-0.8038,-0.8038,-0.8038,-0.8038,-0.8038,-0.7977,-0.7882,-0.7808,-0.7889,-0.777,-0.7662,-0.7662,-0.7662,-0.7665,-0.7662,-0.7662,-0.7739,-0.7712,-0.8419,-0.9793,-1.2173,-1.3222,-1.3779,-1.3427,-1.3284,-1.3417,-1.3635,-1.4353,-1.484,-1.4734,-1.4663,-1.4216,-1.3658,-1.3665,-1.3652,-1.3672,-1.3593,-1.3659,-1.3646,-1.373,-1.3906,-1.4088,-1.4088,-1.4088,-1.4088,-1.4088,-1.4088,-1.4088,-1.4088,-1.4088,-1.4088,-1.4088,-1.4088,-1.4088,-1.4088,-1.4088,-1.4088,-1.3297,-1.2284,-0.9646,-0.7692,-0.7601,-0.0,-0.0,-0.0,-0.0,-0.0,-0.0,-0.0,-0.0,-0.0,-0.0,-0.0,-0.0,-0.0,-0.0,-0.0,-0.0,-0.0,-0.0,-0.0,-0.0,-0.0,-0.0,-0.0,-0.0,-0.0,-0.0,-0.0,-0.0,-0.0,-0.0,-0.0,-0.0,-0.4485,-0.5164,-0.1121,-0.573,-0.845,-0.8856,-0.8481,-0.8352,-0.833,-0.8136,-0.8116,-0.8048,-0.8038,-0.8038,-0.8038,-0.8038,-0.8038,-0.8038,-0.8038,-0.8038,-0.8038,-0.8038,-0.8038,-0.8038,-0.8038,-0.8038,-0.8031,-0.8018,-0.7936,-0.8028,-0.7811,-0.7811,-0.7807,-0.7807,-0.7811,-0.7811,-0.8,-0.86,-0.9325,-1.0359,-1.2066,-1.3588,-1.4657,-1.4922,-1.4551,-1.4377,-1.4415,-1.4444,-1.476,-1.497,-1.4877,-1.473,-1.4449,-1.4156,-1.4128,-1.4095,-1.4108,-1.4108,-1.4088,-1.4088,-1.4088,-1.4088,-1.4088,-1.4088,-1.4088,-1.4088,-1.4088,-1.4088,-1.4088,-1.4088,-1.4088,-1.4088,-1.4088,-1.4088,-1.4088,-1.4088,-1.3789,-1.3341,-1.3025,-1.1787,-0.9087,-0.7326,-0.7529,-0.0,-0.0,-0.0,-0.0,-0.0,-0.0,-0.0,-0.0,-0.0,-0.0,-0.0,-0.0,-0.0,-0.0,-0.0,-0.0,-0.0,-0.0,-0.0,-0.0,-0.0,-0.0,-0.0,-0.0,-0.0,-0.0,-0.0,-0.2781,-0.0,-0.5276,-0.4257,-0.0,-0.6284,-0.6396,-0.4364,-0.5712,-0.6611,-0.8504,-0.8669,-0.8508,-0.8377,-0.8296,-0.8136,-0.8048,-0.8048,-0.8038,-0.8038,-0.8038,-0.8038,-0.8038,-0.8038,-0.8038,-0.8038,-0.8038,-0.8038,-0.8038,-0.8038,-0.8038,-0.8038,-0.8028,-0.8018,-0.797,-0.795,-0.7946,-0.796,-0.7963,-0.7963,-0.8248,-0.8815,-0.9146,-0.8848,-1.1159,-1.3076,-1.4608,-1.5405,-1.5233,-1.5022,-1.5114,-1.516,-1.5271,-1.5545,-1.5244,-1.5077,-1.5087,-1.475,-1.4502,-1.4361,-1.4135,-1.4108,-1.4108,-1.4095,-1.4088,-1.4088,-1.4088,-1.4102,-1.4235,-1.4156,-1.4137,-1.4077,-1.4088,-1.4088,-1.4115,-1.4088,-1.4088,-1.4088,-1.4088,-1.4115,-1.39,-1.3034,-1.2534,-1.172,-1.0825,-0.8635,-0.7546,-0.7801,-0.0,-0.0,-0.0,-0.0,-0.0,-0.0,-0.0,-0.0,-0.0,-0.0,-0.0,-0.0,-0.0,-0.0,-0.0,-0.0,-0.0,-0.0,-0.0,-0.0,-0.0,-0.0,-0.0,-0.0,-0.0,-0.0,-0.2651,-0.5526,-0.8214,-0.8677,-0.7753,-0.6837,-0.785,-0.7621,-0.6487,-0.671,-0.7165,-0.8689,-0.8649,-0.8611,-0.8496,-0.8347,-0.8163,-0.8116,-0.8082,-0.8038,-0.8038,-0.8038,-0.8038,-0.8038,-0.8038,-0.8038,-0.8038,-0.8038,-0.8038,-0.8038,-0.8038,-0.8038,-0.8038,-0.8038,-0.8031,-0.8024,-0.8038,-0.8038,-0.8038,-0.8021,-0.8414,-0.8909,-0.971,-0.9964,-1.0206,-1.2651,-1.3689,-1.523,-1.5605,-1.5531,-1.5524,-1.5524,-1.5545,-1.5758,-1.5785,-1.5511,-1.5304,-1.5322,-1.5194,-1.4845,-1.4602,-1.4388,-1.4182,-1.4182,-1.4188,-1.4182,-1.4137,-1.419,-1.421,-1.4449,-1.4328,-1.4123,-1.4137,-1.4242,-1.4083,-1.4123,-1.4064,-1.4088,-1.4102,-1.4122,-1.4083,-1.3722,-1.3049,-1.1457,-0.9722,-0.8682,-0.7695,-0.7746,-0.7921,-0.0,-0.0,-0.0,-0.0,-0.0,-0.0,-0.0,-0.0,-0.0,-0.0,-0.0,-0.0,-0.0,-0.0,-0.0,-0.0,-0.0,-0.0,-0.0,-0.0,-0.0,-0.0,-0.0,-0.0,-0.0,-0.0,-0.4605,-0.7301,-0.8883,-0.8883,-0.8644,-0.8507,-0.8615,-0.8465,-0.8222,-0.8251,-0.8371,-0.8742,-0.8723,-0.8598,-0.8499,-0.8289,-0.8177,-0.8133,-0.8099,-0.8048,-0.8038,-0.8038,-0.8038,-0.8038,-0.8038,-0.8038,-0.8038,-0.8038,-0.8038,-0.8038,-0.8038,-0.8038,-0.8038,-0.8038,-0.8038,-0.8038,-0.8237,-0.8137,-0.8137,-0.8333,-0.8722,-0.9702,-1.0783,-1.1726,-1.2662,-1.3442,-1.422,-1.5082,-1.569,-1.5772,-1.5772,-1.5772,-1.5765,-1.5825,-1.5825,-1.5685,-1.5565,-1.5478,-1.5443,-1.494,-1.475,-1.4865,-1.4643,-1.4389,-1.4382,-1.4263,-1.4236,-1.4248,-1.4373,-1.4694,-1.4783,-1.4669,-1.4508,-1.4522,-1.4342,-1.4177,-1.4236,-1.419,-1.4162,-1.4188,-1.4296,-1.3969,-1.3183,-1.1329,-0.9245,-0.8273,-0.7665,-0.7846,-0.7969,-0.0,-0.0,-0.0,-0.0,-0.0,-0.0,-0.0,-0.0,-0.0,-0.0,-0.0,-0.0,-0.0,-0.0,-0.0,-0.0,-0.0,-0.0,-0.0,-0.0,-0.0,-0.0,-0.0,-0.0,-0.0,-0.0,-0.5513,-0.8965,-0.8954,-0.886,-0.8886,-0.8696,-0.8776,-0.8706,-0.8788,-0.8838,-0.8835,-0.8794,-0.8662,-0.8587,-0.8472,-0.8279,-0.8194,-0.813,-0.8085,-0.8041,-0.8038,-0.8038,-0.8035,-0.8028,-0.8035,-0.8038,-0.8038,-0.8038,-0.8038,-0.8038,-0.8038,-0.8038,-0.8038,-0.8038,-0.8035,-0.823,-0.8722,-0.9316,-0.9217,-0.9019,-0.9312,-1.0681,-1.1955,-1.3006,-1.3454,-1.4124,-1.4721,-1.5324,-1.5825,-1.5825,-1.5825,-1.5825,-1.5825,-1.5825,-1.5825,-1.5765,-1.5577,-1.5698,-1.5545,-1.5068,-1.4896,-1.5023,-1.5102,-1.4838,-1.4603,-1.4482,-1.4447,-1.4471,-1.485,-1.5259,-1.5266,-1.5328,-1.5075,-1.4741,-1.4497,-1.4412,-1.4401,-1.4415,-1.4282,-1.4469,-1.473,-1.4231,-1.3743,-1.1573,-0.963,-0.8634,-0.7821,-0.7986,-0.8038,-0.0,-0.0,-0.0,-0.0,-0.0,-0.0,-0.0,-0.0,-0.0,-0.0,-0.0,-0.0,-0.0,-0.0,-0.0,-0.0,-0.0,-0.0,-0.0,-0.0,-0.2885,-0.0,-0.0,-0.0956,-0.0,-0.3938,-0.6409,-0.8944,-0.8923,-0.8933,-0.8866,-0.874,-0.8709,-0.8615,-0.8578,-0.8747,-0.8737,-0.8699,-0.8638,-0.8584,-0.8465,-0.8319,-0.8211,-0.8133,-0.8082,-0.8041,-0.8038,-0.8038,-0.8014,-0.7987,-0.7984,-0.8001,-0.7997,-0.7994,-0.8035,-0.8038,-0.8038,-0.8021,-0.8011,-0.8028,-0.8021,-0.8411,-0.93,-1.0096,-1.0391,-1.0386,-1.1258,-1.2328,-1.3323,-1.4202,-1.4447,-1.4702,-1.5216,-1.5825,-1.5825,-1.5825,-1.5825,-1.5825,-1.5825,-1.5825,-1.5792,-1.5644,-1.5637,-1.5792,-1.5745,-1.5458,-1.5357,-1.5391,-1.5454,-1.5187,-1.493,-1.4823,-1.4711,-1.4707,-1.5187,-1.5504,-1.5586,-1.5494,-1.5308,-1.506,-1.4819,-1.4687,-1.4721,-1.4606,-1.4523,-1.4731,-1.4947,-1.4929,-1.4306,-1.1939,-0.9786,-0.8578,-0.7926,-0.796,-0.8004,-0.0,-0.0,-0.0,-0.0,-0.0,-0.0,-0.0,-0.0,-0.0,-0.0,-0.0,-0.0,-0.0,-0.0,-0.0,-0.0,-0.0,-0.0,-0.3891,-0.7823,-0.6862,-0.5921,-0.4237,-0.253,-0.4259,-0.7203,-0.8852,-0.8811,-0.8903,-0.8899,-0.8818,-0.8713,-0.8249,-0.8314,-0.8645,-0.8703,-0.8696,-0.8638,-0.8672,-0.8676,-0.854,-0.8397,-0.8272,-0.8211,-0.8123,-0.8038,-0.8038,-0.8014,-0.7974,-0.7933,-0.7926,-0.7967,-0.796,-0.797,-0.8024,-0.8038,-0.8038,-0.8414,-0.8499,-0.8612,-0.8799,-0.9083,-0.9669,-1.096,-1.1653,-1.1653,-1.2425,-1.3596,-1.4682,-1.4981,-1.5235,-1.5216,-1.5622,-1.5825,-1.5825,-1.5825,-1.5825,-1.5825,-1.5825,-1.5825,-1.5812,-1.567,-1.5677,-1.5825,-1.5805,-1.5685,-1.5658,-1.5738,-1.5678,-1.5497,-1.5376,-1.5124,-1.5026,-1.5028,-1.5305,-1.5631,-1.5772,-1.5671,-1.5524,-1.5471,-1.5325,-1.5146,-1.5017,-1.4993,-1.4904,-1.4845,-1.4989,-1.4099,-1.2962,-1.1661,-0.9803,-0.8499,-0.8035,-0.8031,-0.8031,-0.0,-0.0,-0.0,-0.0,-0.0,-0.0,-0.0,-0.0,-0.0,-0.0,-0.0,-0.0,-0.0,-0.0,-0.0,-0.0,-0.0,-0.3558,-0.673,-0.7917,-0.8241,-0.7792,-0.7232,-0.5991,-0.7083,-0.7921,-0.8686,-0.8804,-0.8893,-0.8849,-0.8872,-0.8699,-0.8308,-0.8259,-0.8567,-0.8632,-0.8655,-0.8604,-0.8726,-0.8598,-0.8306,-0.8377,-0.8357,-0.8187,-0.8038,-0.8038,-0.8038,-0.8031,-0.8021,-0.8007,-0.8018,-0.8018,-0.7997,-0.8024,-0.8035,-0.8038,-0.8233,-0.8909,-0.9395,-0.969,-1.0083,-1.1361,-1.2339,-1.2909,-1.3199,-1.3011,-1.3499,-1.4765,-1.5547,-1.5743,-1.5845,-1.5832,-1.5825,-1.5825,-1.5825,-1.5825,-1.5825,-1.5825,-1.5825,-1.5825,-1.5825,-1.5825,-1.5825,-1.5818,-1.5792,-1.5772,-1.5765,-1.5785,-1.5765,-1.5665,-1.5631,-1.5491,-1.5252,-1.5246,-1.5524,-1.5624,-1.5798,-1.5825,-1.5698,-1.5691,-1.5806,-1.5511,-1.5219,-1.5378,-1.5391,-1.5097,-1.375,-1.1216,-1.0219,-1.0036,-0.9661,-0.8226,-0.8038,-0.8035,-0.8035,-0.0,-0.0,-0.0,-0.0,-0.0,-0.0,-0.0,-0.0,-0.0,-0.0,-0.0,-0.0,-0.0,-0.0,-0.0,-0.0,-0.0,-0.0,-0.7421,-0.8323,-0.8453,-0.831,-0.833,-0.8347,-0.8268,-0.8565,-0.8649,-0.8862,-0.891,-0.8879,-0.8808,-0.8716,-0.8498,-0.8438,-0.852,-0.8577,-0.8625,-0.8608,-0.8781,-0.857,-0.8191,-0.8319,-0.8323,-0.813,-0.8038,-0.8038,-0.8038,-0.8031,-0.7991,-0.7848,-0.7805,-0.8459,-0.8864,-0.96,-0.9406,-0.9312,-0.9505,-0.9993,-1.048,-1.097,-1.156,-1.2931,-1.3619,-1.3686,-1.3878,-1.3782,-1.4465,-1.5642,-1.5642,-1.5832,-1.5832,-1.5825,-1.5825,-1.5825,-1.5825,-1.5825,-1.5825,-1.5825,-1.5825,-1.5825,-1.5825,-1.5825,-1.5825,-1.5825,-1.5812,-1.5812,-1.5825,-1.5825,-1.5825,-1.5825,-1.5825,-1.5792,-1.5518,-1.5485,-1.5631,-1.5785,-1.5812,-1.5825,-1.5825,-1.5805,-1.5758,-1.5584,-1.5531,-1.5119,-1.4899,-1.4663,-1.3011,-1.0351,-0.9079,-0.8996,-0.8616,-0.8038,-0.8038,-0.8038,-0.8038,-0.0,-0.0,-0.0,-0.0,-0.0,-0.0,-0.0,-0.0,-0.0,-0.0,-0.0,-0.0,-0.0,-0.0,-0.0,-0.0,-0.0,-0.0,-0.6969,-0.8336,-0.8416,-0.8448,-0.8424,-0.8348,-0.8545,-0.8642,-0.8842,-0.8889,-0.893,-0.8876,-0.891,-0.8737,-0.8793,-0.8745,-0.856,-0.8526,-0.8567,-0.8632,-0.8686,-0.8584,-0.8472,-0.8408,-0.8275,-0.8143,-0.8038,-0.8038,-0.8038,-0.8018,-0.7953,-0.8293,-0.8426,-0.917,-1.0134,-1.1082,-1.0881,-1.0685,-1.0872,-1.1146,-1.1419,-1.1925,-1.2694,-1.3471,-1.3866,-1.4166,-1.4459,-1.4848,-1.554,-1.573,-1.5825,-1.5825,-1.5825,-1.5825,-1.5825,-1.5825,-1.5825,-1.5825,-1.5825,-1.5825,-1.5825,-1.5825,-1.5838,-1.5838,-1.5838,-1.5838,-1.5838,-1.5838,-1.5825,-1.5825,-1.5825,-1.5825,-1.5825,-1.5825,-1.5745,-1.5772,-1.5825,-1.5825,-1.5825,-1.5825,-1.5825,-1.5825,-1.5615,-1.505,-1.4652,-1.4333,-1.4112,-1.3773,-1.2381,-0.9993,-0.9019,-0.8333,-0.8137,-0.8038,-0.8038,-0.8038,-0.8038,-0.0,-0.0,-0.0,-0.0,-0.0,-0.0,-0.0,-0.0,-0.0,-0.0,-0.0,-0.0,-0.0,-0.0,-0.0,-0.0,-0.0,-0.3831,-0.6403,-0.8141,-0.836,-0.8492,-0.8615,-0.8528,-0.8518,-0.8706,-0.8804,-0.8835,-0.9127,-0.9057,-0.8927,-0.8979,-0.8824,-0.8852,-0.8815,-0.875,-0.8659,-0.8703,-0.8696,-0.8645,-0.8615,-0.8499,-0.8296,-0.816,-0.8038,-0.8038,-0.8038,-0.8038,-0.8609,-0.9257,-0.9883,-1.059,-1.1512,-1.2365,-1.236,-1.2047,-1.2139,-1.2308,-1.249,-1.3086,-1.3957,-1.474,-1.514,-1.514,-1.5337,-1.5337,-1.5825,-1.5825,-1.5825,-1.5825,-1.5825,-1.5825,-1.5825,-1.5825,-1.5825,-1.5825,-1.5825,-1.5825,-1.5825,-1.5845,-1.5872,-1.5879,-1.5797,-1.5797,-1.579,-1.5777,-1.5838,-1.5838,-1.5825,-1.5825,-1.5737,-1.5825,-1.5825,-1.5825,-1.5825,-1.5825,-1.5825,-1.5825,-1.573,-1.5635,-1.5134,-1.4226,-1.3753,-1.3204,-1.2775,-1.2438,-1.0838,-0.932,-0.8726,-0.8137,-0.8038,-0.8038,-0.8038,-0.8038,-0.8038]},{"header":{"parameterUnit":"m.s-1","parameterCategory":1,"la1":31.0,"la2":29.5877,"lo1":-88.7671,"lo2":-86.6584,"dy":0.0162,"dx":0.0185,"nx":115,"ny":88,"refTime":"2023-06-07T18:00:00:Z","depth":0,"parameterNumber":3,"parameterNumberName":"V-component_of_WINDS"},"data":[0.0,0.0,0.0,0.0,0.0,0.0,0.0,0.0,0.0,0.0,0.0,0.0,0.0,0.0,0.0,0.0,0.0,0.0,0.0,0.0,0.0,0.0,0.0,0.0,0.0,0.0,0.0,0.0,0.0,0.0,0.0,0.0,0.0,0.0,0.0,0.0,0.0,0.0,0.0,0.0,0.0,0.0,0.0,0.0,0.0,0.0,0.0,0.0,0.0,0.0,0.0,0.0,0.0,0.0,0.0,0.0,0.0,0.0,0.0,0.0,0.0,0.0,0.0,0.0,0.0,0.0,0.0,0.0,0.0,0.0,0.0,0.0,0.0,0.0,0.0,0.0,0.0,0.0,0.0,0.0,0.0,0.0,0.0,0.0,0.0,0.0,0.0,0.0,0.0,0.0,0.0,0.0,0.0,0.0,0.0,0.0,0.0,0.0,0.0,0.0,0.0,0.0,0.0,0.0,0.0,0.0,0.0,0.0,0.0,0.0,0.0,0.0,0.0,0.0,0.0,0.0,0.0,0.0,0.0,0.0,0.0,0.0,0.0,0.0,0.0,0.0,0.0,0.0,0.0,0.0,0.0,0.0,0.0,0.0,0.0,0.0,0.0,0.0,0.0,0.0,0.0,0.0,0.0,0.0,0.0,0.0,0.0,0.0,0.0,0.0,0.0,0.0,0.0,0.0,0.0,0.0,0.0,0.0,0.0,0.0,0.0,0.0,0.0,0.0,0.0,0.0,0.0,0.0,0.0,0.0,0.0,0.0,0.0,0.0,0.0,0.0,0.0,0.0,0.0,0.0,0.0,0.0,0.0,0.0,0.0,0.0,0.0,0.0,0.0,0.0,0.0,0.0,0.0,0.0,0.0,0.0,0.0,0.0,0.0,0.0,0.0,0.0,0.0,0.0,0.0,0.0,0.0,0.0,0.0,0.0,0.0,0.0,0.0,0.0,0.0,0.0,0.0,0.0,0.0,0.0,0.0,0.0,0.0,0.0,0.0,0.0,0.0,0.0,0.0,0.0,0.0,0.0,0.0,0.0,0.0,0.0,0.0,0.0,0.0,0.0,0.0,0.0,0.0,0.0,0.0,0.0,0.0,0.0,0.0,0.0,0.0,0.0,0.0,0.0,0.0,0.0,0.0,0.0,0.0,0.0,0.0,0.0,0.0,0.0,0.0,0.0,0.0,0.0,0.0,0.0,0.0,0.0,0.0,0.0,0.0,0.0,0.0,0.0,0.0,0.0,0.0,0.0,0.0,0.0,0.0,0.0,0.0,0.0,0.0,0.0,0.0,0.0,0.0,0.0,0.0,0.0,0.0,0.0,0.0,0.0,0.0,0.0,0.0,0.0,0.0,0.0,0.0,0.0,0.0,0.0,0.0,0.0,0.0,0.0,0.0,0.0,0.0,0.0,0.0,0.0,0.0,0.0,0.0,0.0,0.0,0.0,0.0,0.0,0.0,0.0,0.0,0.0,0.0,0.0,0.0,0.0,0.0,0.0,0.0,0.0,0.0,0.0,0.0,0.0,0.0,0.0,0.0,0.0,0.0,0.0,0.0,0.0,0.0,0.0,0.0,0.0,0.0,0.0,0.0,0.0,0.0,0.0,0.0,0.0,0.0,0.0,0.0,0.0,0.0,0.0,0.0,0.0,0.0,0.0,0.0,0.0,0.0,0.0,0.0,0.0,0.0,0.0,0.0,0.0,0.0,0.0,0.0,0.0,0.0,0.0,0.0,0.0,0.0,0.0,0.0,0.0,0.0,0.0,0.0,0.0,0.0,0.0,0.0,0.0,0.0,0.0,0.0,0.0,0.0,0.0,0.0,0.0,0.0,0.0,0.0,0.0,0.0,0.0,0.0,0.0,0.0,0.0,0.0,0.0,0.0,0.0,0.0,0.0,0.0,0.0,0.0,0.0,0.0,0.0,0.0,0.0,0.0,0.0,0.0,0.0,0.0,0.0,0.0,0.0,0.0,0.0,0.0,0.0,0.0,0.0,0.0,0.0,0.0,0.0,0.0,0.0,0.0,0.0,0.0,0.0,0.0,0.0,0.0,0.0,0.0,0.0,0.0,0.0,0.0,0.0,0.0,0.0,0.0,0.0,0.0,0.0,0.0,0.0,0.0,0.0,0.0,0.0,0.0,0.0,0.0,0.0,0.0,0.0,0.0,0.0,0.0,0.0,0.0,0.0,0.0,0.0,0.0,0.0,0.0,0.0,0.0,0.0,0.0,0.0,0.0,0.0,0.0,0.0,0.0,0.0,0.0,0.0,0.0,0.0,0.0,0.0,0.0,0.0,0.0,0.0,0.0,0.0,0.0,0.0,0.0,0.0,0.0,0.0,0.0,0.0,0.0,0.0,0.0,0.0,0.0,0.0,0.0,0.0,0.0,0.0,0.0,0.0,0.0,0.0,0.0,0.0,0.0,0.0,0.0,0.0,0.0,0.0,0.0,0.0,0.0,0.0,0.0,0.0,0.0,0.0,0.0,0.0,0.0,0.0,0.0,0.0,0.0,0.0,0.0,0.0,0.0,0.0,0.0,0.0,0.0,0.0,0.0,0.0,0.0,0.0,0.0,0.0,0.0,0.0,0.0,0.0,0.0,0.0,0.0,0.0,0.0,0.0,0.0,0.0,0.0,0.0,0.0,0.0,0.0,0.0,0.0,0.0,0.0,0.0,0.0,0.0,0.0,0.0,0.0,0.0,0.0,0.0,0.0,0.0,0.0,0.0,0.0,0.0,0.0,0.0,0.0,0.0,0.0,0.0,0.0,0.0,0.0,0.0,0.0,0.0,0.0,0.0,0.0,0.0,0.0,0.0,0.0,0.0,0.0,0.0,0.0,0.0,0.0,0.0,0.0,0.0,0.0,0.0,0.0,0.0,0.0,0.0,0.0,0.0,0.0,0.0,0.0,0.0,0.0,0.0,0.0,0.0,0.0,0.0,0.0,0.0,0.0,0.0,0.0,0.0,0.0,0.0,0.0,0.0,0.0,0.0,0.0,0.0,0.0,0.0,0.0,0.0,0.0,0.0,0.0,0.0,0.0,0.0,0.0,0.0,0.0,0.0,0.0,0.0,0.0,0.0,0.0,0.0,0.0,0.0,0.0,0.0,0.0,0.0,0.0,0.0,0.0,0.0,0.0,0.0,0.0,0.0,0.0,0.0,0.0,0.0,0.0,0.0,0.0,0.0,0.0,0.0,0.0,0.0,0.0,0.0,0.0,0.0,0.0,0.0,0.0,0.0,0.0,0.0,0.0,0.0,0.0,0.0,0.0,0.0,0.0,0.0,0.0,0.0,0.0,0.0,0.0,0.0,0.0,0.0,0.0,0.0,0.0,0.0,0.0,0.0,0.0,0.0,0.0,0.0,0.0,0.0,0.0,0.0,0.0,0.0,0.0,0.0,0.0,0.0,0.0,0.0,0.0,0.0,0.0,0.0,0.0,0.0,0.0,0.0,0.0,0.0,0.0,0.0,0.0,0.0,0.0,0.0,0.0,0.0,0.0,0.0,0.0,0.0,0.0,0.0,0.0,0.0,0.0,0.0,0.0,0.0,0.0,0.0,0.0,0.0,0.0,0.0,0.0,0.0,0.0,0.0,0.0,0.0,0.0,0.0,0.0,0.0,0.0,0.0,0.0,0.0,0.0,0.0,0.0,0.0,0.0,0.0,0.0,0.0,0.0,0.0,0.0,0.0,0.0,0.0,0.0,0.0,0.0,0.0,0.0,0.0,0.0,0.0,0.0,0.0,0.0,0.0,0.0,0.0,0.0,0.0,0.0,0.0,0.0,0.0,0.0,0.0,0.0,0.0,0.0,0.0,0.0,0.0,0.0,0.0,0.0,0.0,0.0,0.0,0.0,0.0,0.0,0.0,0.0,0.0,0.0,0.0,0.0,0.0,0.0,0.0,0.0,0.0,0.0,0.0,0.0,0.0,0.0,0.0,0.0,0.0,0.0,0.0,0.0,0.0,0.0,0.0,0.0,0.0,0.0,0.0,0.0,0.0,0.0,0.0,0.0,0.0,0.0,0.0,0.0,0.0,0.0,0.0,0.0,0.0,0.0,0.0,0.0,0.0,0.0,0.0,0.0,0.0,0.0,0.0,0.0,0.0,0.0,0.0,0.0,0.0,0.0,0.0,0.0,0.0,0.0,0.0,0.0,0.0,0.0,0.0,0.0,0.0,0.0,0.0,0.0,0.0,0.0,0.0,0.0,0.0,0.0,0.0,0.0,0.0,0.0,0.0,0.0,0.0,0.0,0.0,0.0,0.0,0.0,0.0,-0.8308,0.0,0.0,0.0,0.0,0.0,0.0,0.0,0.0,0.0,0.0,0.0,0.0,0.0,0.0,0.0,0.0,0.0,0.0,0.0,0.0,0.0,0.0,0.0,0.0,0.0,0.0,0.0,0.0,0.0,0.0,0.0,0.0,0.0,0.0,0.0,0.0,0.0,0.0,0.0,0.0,0.0,0.0,0.0,0.0,0.0,0.0,0.0,0.0,0.0,0.0,0.0,0.0,0.0,0.0,0.0,0.0,0.0,0.0,0.0,0.0,0.0,0.0,0.0,0.0,0.0,0.0,0.0,0.0,0.0,0.0,0.0,0.0,0.0,0.0,0.0,0.0,0.0,0.0,0.0,0.0,0.0,0.0,0.0,0.0,0.0,0.0,0.0,0.0,0.0,0.0,0.0,0.0,0.0,0.0,0.0,0.0,0.0,0.0,0.0,0.0,0.0,0.0,0.0,0.0,0.0,0.0,0.0,0.0,0.0,0.0,-0.9863,-0.9625,-1.0098,-0.9797,-0.8691,0.0,0.0,0.0,0.0,0.0,0.0,0.0,0.0,0.0,0.0,0.0,0.0,0.0,0.0,0.0,0.0,0.0,0.0,0.0,0.0,0.0,0.0,0.0,0.0,0.0,0.0,0.0,0.0,0.0,0.0,0.0,0.0,0.0,0.0,0.0,0.0,0.0,0.0,0.0,0.0,0.0,0.0,0.0,0.0,0.0,0.0,0.0,0.0,0.0,0.0,0.0,0.0,0.0,0.0,0.0,0.0,0.0,0.0,0.0,0.0,0.0,0.0,0.0,0.0,0.0,0.0,0.0,0.0,0.0,0.0,0.0,0.0,0.0,0.0,0.0,0.0,0.0,0.0,0.0,0.0,0.0,0.0,0.0,0.0,0.0,0.0,0.0,0.0,0.0,0.0,0.0,0.0,0.0,0.0,0.0,0.0,0.0,0.0,0.0,0.0,0.0,0.0,0.0,0.0,0.0,0.0,0.0,0.0,0.0,0.0,0.0,0.0,-1.0135,-0.9967,-0.994,0.0,0.0,0.0,0.0,0.0,0.0,0.0,0.0,0.0,0.0,0.0,0.0,0.0,0.0,0.0,0.0,0.0,0.0,0.0,0.0,0.0,0.0,0.0,0.0,0.0,0.0,0.0,0.0,0.0,0.0,0.0,0.0,0.0,0.0,0.0,0.0,0.0,0.0,0.0,0.0,0.0,0.0,0.0,0.0,0.0,0.0,0.0,0.0,0.0,0.0,0.0,0.0,0.0,0.0,0.0,0.0,0.0,0.0,0.0,0.0,0.0,0.0,0.0,0.0,0.0,0.0,0.0,0.0,0.0,0.0,0.0,0.0,0.0,0.0,0.0,0.0,0.0,0.0,0.0,0.0,0.0,0.0,0.0,0.0,0.0,0.0,0.0,0.0,0.0,0.0,0.0,0.0,0.0,0.0,0.0,0.0,0.0,0.0,0.0,0.0,0.0,0.0,0.0,0.0,0.0,0.0,0.0,0.0,0.0,0.0,-1.0684,-1.2702,-1.2336,0.0,-1.2316,0.0,0.0,0.0,0.0,0.0,0.0,0.0,0.0,0.0,0.0,0.0,0.0,0.0,0.0,0.0,0.0,0.0,0.0,0.0,0.0,0.0,0.0,0.0,0.0,0.0,0.0,0.0,0.0,0.0,0.0,0.0,0.0,0.0,0.0,0.0,0.0,0.0,0.0,0.0,0.0,0.0,0.0,0.0,0.0,0.0,0.0,0.0,0.0,0.0,0.0,0.0,0.0,0.0,0.0,0.0,0.0,0.0,0.0,0.0,0.0,0.0,0.0,0.0,0.0,0.0,0.0,0.0,0.0,0.0,0.0,0.0,0.0,0.0,0.0,0.0,0.0,0.0,0.0,0.0,0.0,0.0,0.0,0.0,0.0,0.0,0.0,0.0,0.0,0.0,0.0,0.0,0.0,0.0,0.0,0.0,0.0,0.0,0.0,0.0,0.0,0.0,0.0,0.0,0.0,0.0,0.0,0.0,0.0,0.0,0.0,-1.0787,-1.3055,-1.2827,-1.2107,0.0,0.0,0.0,0.0,0.0,0.0,0.0,0.0,0.0,0.0,0.0,0.0,0.0,0.0,0.0,0.0,0.0,0.0,0.0,0.0,0.0,0.0,0.0,0.0,0.0,0.0,0.0,0.0,0.0,0.0,0.0,0.0,0.0,0.0,0.0,0.0,0.0,0.0,0.0,0.0,0.0,0.0,0.0,0.0,0.0,0.0,0.0,0.0,0.0,0.0,0.0,0.0,0.0,0.0,0.0,0.0,0.0,0.0,0.0,0.0,0.0,0.0,0.0,0.0,0.0,0.0,0.0,0.0,0.0,0.0,0.0,0.0,0.0,0.0,0.0,0.0,0.0,0.0,0.0,0.0,0.0,0.0,0.0,0.0,0.0,0.0,0.0,0.0,0.0,0.0,0.0,0.0,0.0,0.0,0.0,0.0,0.0,0.0,0.0,0.0,0.0,0.0,0.0,0.0,0.0,0.0,0.0,0.0,0.0,0.0,-1.1203,-1.1826,-1.3823,-1.2746,-1.1558,-1.0584,0.0,0.0,0.0,0.0,0.0,0.0,0.0,0.0,0.0,0.0,0.0,0.0,0.0,0.0,0.0,0.0,0.0,0.0,0.0,0.0,0.0,0.0,0.0,0.0,0.0,0.0,0.0,0.0,0.0,0.0,0.0,0.0,0.0,0.0,0.0,0.0,0.0,0.0,0.0,0.0,0.0,0.0,0.0,0.0,0.0,0.0,0.0,0.0,0.0,0.0,0.0,0.0,0.0,0.0,0.0,0.0,0.0,0.0,0.0,0.0,0.0,0.0,0.0,0.0,0.0,0.0,0.0,0.0,0.0,0.0,0.0,0.0,0.0,0.0,0.0,0.0,0.0,0.0,0.0,0.0,0.0,0.0,0.0,0.0,0.0,0.0,0.0,0.0,0.0,0.0,0.0,0.0,0.0,0.0,0.0,0.0,0.0,0.0,0.0,0.0,0.0,0.0,0.0,0.0,0.0,0.0,0.0,0.0,-1.6468,-1.457,-1.4345,-1.6073,-1.2188,-1.0886,0.0,0.0,0.0,0.0,0.0,0.0,0.0,0.0,0.0,0.0,0.0,0.0,0.0,0.0,0.0,0.0,0.0,0.0,0.0,0.0,0.0,0.0,0.0,0.0,0.0,0.0,0.0,0.0,0.0,0.0,0.0,0.0,0.0,0.0,0.0,0.0,0.0,0.0,0.0,0.0,0.0,0.0,0.0,0.0,0.0,0.0,0.0,0.0,0.0,0.0,0.0,0.0,0.0,0.0,0.0,0.0,0.0,0.0,0.0,0.0,0.0,0.0,0.0,0.0,0.0,0.0,0.0,0.0,0.0,0.0,0.0,0.0,0.0,0.0,0.0,0.0,0.0,0.0,0.0,0.0,0.0,0.0,0.0,0.0,0.0,0.0,0.0,0.0,0.0,0.0,0.0,0.0,0.0,0.0,0.0,0.0,0.0,0.0,0.0,0.0,0.0,0.0,0.0,0.0,0.0,0.0,0.0,0.0,0.0,-1.2632,-1.4296,-1.4729,-1.3799,-1.3765,-1.3487,0.0,0.0,0.0,0.0,0.0,0.0,0.0,0.0,0.0,0.0,0.0,0.0,0.0,0.0,0.0,0.0,0.0,0.0,0.0,0.0,0.0,0.0,0.0,0.0,0.0,0.0,0.0,0.0,0.0,0.0,0.0,0.0,0.0,0.0,0.0,0.0,0.0,0.0,0.0,0.0,0.0,0.0,0.0,0.0,0.0,0.0,0.0,0.0,0.0,0.0,0.0,0.0,0.0,0.0,0.0,0.0,0.0,0.0,0.0,0.0,0.0,0.0,0.0,0.0,0.0,0.0,0.0,0.0,0.0,0.0,0.0,0.0,0.0,0.0,0.0,0.0,0.0,0.0,0.0,0.0,0.0,0.0,0.0,0.0,0.0,0.0,0.0,0.0,0.0,0.0,0.0,0.0,0.0,0.0,0.0,0.0,0.0,0.0,0.0,0.0,0.0,0.0,0.0,0.0,0.0,0.0,0.0,0.0,0.0,-1.182,0.0,-1.5461,0.0,-1.4621,-1.4196,0.0,0.0,0.0,0.0,0.0,0.0,0.0,0.0,0.0,0.0,0.0,0.0,0.0,0.0,0.0,0.0,0.0,0.0,0.0,0.0,0.0,0.0,0.0,0.0,0.0,0.0,0.0,0.0,0.0,0.0,0.0,0.0,0.0,0.0,0.0,0.0,0.0,0.0,0.0,0.0,0.0,0.0,0.0,0.0,0.0,0.0,0.0,0.0,0.0,0.0,0.0,0.0,0.0,0.0,0.0,0.0,0.0,0.0,0.0,0.0,0.0,0.0,0.0,0.0,0.0,0.0,0.0,0.0,0.0,0.0,0.0,0.0,0.0,0.0,0.0,0.0,0.0,0.0,0.0,0.0,0.0,0.0,0.0,0.0,0.0,0.0,0.0,0.0,0.0,0.0,0.0,0.0,0.0,0.0,0.0,0.0,0.0,0.0,0.0,0.0,0.0,0.0,0.0,0.0,0.0,0.0,0.0,0.0,-1.188,-1.5078,-1.591,-1.6781,-1.767,-1.4549,-1.2747,0.0,0.0,0.0,0.0,0.0,0.0,0.0,0.0,0.0,0.0,0.0,0.0,0.0,0.0,0.0,0.0,0.0,0.0,0.0,0.0,0.0,0.0,0.0,0.0,0.0,0.0,0.0,0.0,0.0,0.0,0.0,0.0,0.0,0.0,0.0,0.0,0.0,0.0,0.0,0.0,0.0,0.0,0.0,0.0,0.0,0.0,0.0,0.0,0.0,0.0,0.0,0.0,0.0,0.0,0.0,0.0,0.0,0.0,0.0,0.0,0.0,0.0,0.0,0.0,0.0,0.0,0.0,0.0,0.0,0.0,0.0,0.0,0.0,0.0,0.0,0.0,0.0,0.0,0.0,0.0,0.0,0.0,0.0,0.0,0.0,0.0,0.0,0.0,0.0,0.0,0.0,0.0,0.0,0.0,0.0,0.0,0.0,0.0,0.0,0.0,0.0,0.0,0.0,0.0,0.0,0.0,0.0,0.0,0.0,-1.4501,-1.6445,-1.8153,-1.9394,-1.6304,-1.5043,0.0,0.0,0.0,0.0,0.0,0.0,0.0,0.0,0.0,0.0,0.0,0.0,0.0,0.0,0.0,0.0,0.0,0.0,0.0,0.0,0.0,0.0,0.0,0.0,0.0,0.0,0.0,0.0,0.0,0.0,0.0,0.0,0.0,0.0,0.0,0.0,0.0,0.0,0.0,0.0,0.0,0.0,0.0,0.0,0.0,0.0,0.0,0.0,0.0,0.0,0.0,0.0,0.0,0.0,0.0,0.0,0.0,0.0,0.0,0.0,0.0,0.0,0.0,0.0,0.0,0.0,0.0,0.0,0.0,0.0,0.0,0.0,0.0,0.0,0.0,0.0,0.0,0.0,0.0,0.0,0.0,0.0,0.0,0.0,0.0,0.0,0.0,0.0,0.0,0.0,0.0,0.0,0.0,0.0,0.0,0.0,0.0,0.0,0.0,0.0,0.0,0.0,0.0,0.0,0.0,0.0,0.0,0.0,0.0,-1.7079,-1.8278,-1.9444,-2.0462,-1.8078,-1.6829,-1.6813,0.0,0.0,0.0,0.0,0.0,0.0,0.0,0.0,0.0,0.0,0.0,0.0,0.0,0.0,0.0,0.0,0.0,0.0,0.0,0.0,0.0,0.0,0.0,0.0,0.0,0.0,0.0,0.0,0.0,0.0,0.0,0.0,0.0,0.0,0.0,0.0,0.0,0.0,0.0,0.0,0.0,0.0,0.0,0.0,0.0,0.0,0.0,0.0,0.0,0.0,0.0,0.0,0.0,0.0,0.0,0.0,0.0,0.0,0.0,0.0,0.0,0.0,0.0,0.0,0.0,0.0,0.0,0.0,0.0,0.0,0.0,0.0,0.0,0.0,0.0,0.0,0.0,0.0,0.0,0.0,0.0,0.0,0.0,0.0,0.0,0.0,0.0,0.0,0.0,0.0,0.0,0.0,0.0,0.0,0.0,0.0,0.0,0.0,0.0,0.0,0.0,0.0,0.0,0.0,0.0,0.0,0.0,0.0,-2.2011,-2.1463,-2.1208,-2.1171,-1.9947,-1.8148,0.0,0.0,0.0,0.0,0.0,0.0,0.0,0.0,0.0,0.0,0.0,0.0,0.0,0.0,0.0,0.0,0.0,0.0,0.0,0.0,0.0,0.0,0.0,0.0,0.0,0.0,0.0,0.0,0.0,0.0,0.0,0.0,0.0,0.0,0.0,0.0,0.0,0.0,0.0,0.0,0.0,0.0,0.0,0.0,0.0,0.0,0.0,0.0,0.0,0.0,0.0,0.0,0.0,0.0,0.0,0.0,0.0,0.0,0.0,0.0,0.0,0.0,0.0,0.0,0.0,0.0,0.0,0.0,0.0,0.0,0.0,0.0,0.0,0.0,0.0,0.0,0.0,0.0,0.0,0.0,0.0,0.0,0.0,0.0,0.0,0.0,0.0,0.0,0.0,0.0,0.0,0.0,0.0,0.0,0.0,0.0,0.0,0.0,0.0,0.0,0.0,0.0,0.0,0.0,0.0,0.0,0.0,0.0,0.0,-2.3621,-2.652,-2.7744,-2.7011,-2.2608,-2.0101,0.0,0.0,0.0,0.0,0.0,0.0,0.0,0.0,0.0,0.0,0.0,0.0,0.0,0.0,0.0,0.0,0.0,0.0,0.0,0.0,0.0,0.0,0.0,0.0,0.0,0.0,0.0,0.0,0.0,0.0,0.0,0.0,0.0,0.0,0.0,0.0,0.0,0.0,0.0,0.0,0.0,0.0,0.0,0.0,0.0,0.0,0.0,0.0,0.0,0.0,0.0,0.0,0.0,0.0,0.0,0.0,0.0,0.0,0.0,0.0,0.0,0.0,0.0,0.0,0.0,0.0,0.0,0.0,0.0,0.0,0.0,0.0,0.0,0.0,0.0,0.0,0.0,0.0,0.0,0.0,0.0,0.0,0.0,0.0,0.0,0.0,0.0,0.0,0.0,0.0,0.0,0.0,0.0,0.0,0.0,0.0,0.0,0.0,0.0,0.0,0.0,0.0,0.0,0.0,0.0,0.0,0.0,0.0,-2.3791,-2.5829,-3.0421,-3.2372,-3.1467,-2.6754,-2.3012,0.0,0.0,0.0,0.0,0.0,0.0,0.0,0.0,0.0,0.0,0.0,0.0,0.0,0.0,0.0,0.0,0.0,0.0,0.0,0.0,0.0,0.0,0.0,0.0,0.0,0.0,0.0,0.0,0.0,0.0,0.0,0.0,0.0,0.0,0.0,0.0,0.0,0.0,0.0,0.0,0.0,0.0,0.0,0.0,0.0,0.0,0.0,0.0,0.0,0.0,0.0,0.0,0.0,0.0,0.0,0.0,0.0,0.0,0.0,0.0,0.0,0.0,0.0,0.0,0.0,0.0,0.0,0.0,0.0,0.0,0.0,0.0,0.0,0.0,0.0,0.0,0.0,0.0,0.0,0.0,0.0,0.0,0.0,0.0,0.0,0.0,0.0,0.0,0.0,0.0,0.0,0.0,0.0,0.0,0.0,0.0,0.0,0.0,0.0,0.0,0.0,0.0,0.0,0.0,0.0,0.0,0.0,0.0,-2.539,-2.8182,-3.3106,-3.5235,-3.4257,-3.1039,-2.6271,0.0,0.0,0.0,0.0,0.0,0.0,0.0,0.0,0.0,0.0,0.0,0.0,0.0,0.0,0.0,0.0,0.0,0.0,0.0,0.0,0.0,0.0,0.0,0.0,0.0,0.0,0.0,0.0,0.0,0.0,0.0,0.0,0.0,0.0,0.0,0.0,0.0,0.0,0.0,0.0,0.0,0.0,0.0,0.0,0.0,0.0,0.0,0.0,0.0,0.0,0.0,0.0,0.0,0.0,0.0,0.0,0.0,0.0,0.0,0.0,0.0,0.0,0.0,0.0,0.0,0.0,0.0,0.0,0.0,0.0,0.0,0.0,0.0,0.0,0.0,0.0,0.0,0.0,0.0,0.0,0.0,0.0,0.0,0.0,0.0,0.0,0.0,0.0,0.0,0.0,0.0,0.0,0.0,0.0,0.0,0.0,0.0,0.0,0.0,0.0,0.0,0.0,0.0,0.0,0.0,0.0,0.0,0.0,-2.5014,-2.8839,-3.3288,-3.5185,-3.4237,-3.102,-2.7338,0.0,0.0,0.0,0.0,0.0,0.0,0.0,0.0,0.0,0.0,0.0,0.0,0.0,0.0,0.0,0.0,0.0,0.0,0.0,0.0,0.0,0.0,0.0,0.0,0.0,0.0,0.0,0.0,0.0,0.0,0.0,0.0,0.0,0.0,0.0,0.0,0.0,0.0,0.0,0.0,0.0,0.0,0.0,0.0,0.0,0.0,0.0,0.0,-0.8251,0.0,0.0,0.0,0.0,0.0,0.0,0.0,0.0,0.0,0.0,0.0,0.0,0.0,0.0,0.0,0.0,0.0,0.0,0.0,0.0,0.0,0.0,0.0,0.0,0.0,0.0,0.0,0.0,0.0,0.0,0.0,0.0,0.0,0.0,0.0,0.0,0.0,0.0,0.0,0.0,0.0,0.0,0.0,0.0,0.0,0.0,0.0,0.0,0.0,0.0,0.0,0.0,0.0,0.0,0.0,0.0,0.0,0.0,0.0,-2.6493,-3.0275,-3.4103,-3.5699,-3.4776,-3.2327,-2.8821,0.0,0.0,0.0,0.0,0.0,0.0,0.0,0.0,0.0,0.0,0.0,0.0,0.0,0.0,0.0,0.0,0.0,0.0,0.0,0.0,0.0,0.0,0.0,0.0,0.0,0.0,0.0,0.0,0.0,0.0,0.0,0.0,0.0,0.0,0.0,0.0,0.0,0.0,0.0,0.0,0.0,0.0,0.0,0.0,0.0,0.0,0.0,0.0,0.0,0.0,0.0,0.0,0.0,0.0,0.0,0.0,0.0,0.0,0.0,0.0,0.0,0.0,0.0,0.0,0.0,0.0,0.0,0.0,0.0,0.0,0.0,0.0,0.0,0.0,0.0,0.0,0.0,0.0,0.0,0.0,0.0,0.0,0.0,0.0,0.0,0.0,0.0,0.0,0.0,0.0,0.0,0.0,0.0,0.0,0.0,0.0,0.0,0.0,0.0,0.0,0.0,0.0,0.0,0.0,0.0,0.0,0.0,-2.4428,-2.7794,-3.1795,-3.4795,-3.6045,-3.5493,-3.3686,-3.0126,-2.4716,0.0,0.0,0.0,0.0,0.0,0.0,0.0,0.0,0.0,0.0,0.0,0.0,0.0,0.0,0.0,0.0,0.0,0.0,0.0,0.0,0.0,0.0,0.0,0.0,0.0,0.0,0.0,0.0,0.0,0.0,0.0,0.0,0.0,0.0,0.0,0.0,0.0,0.0,-0.9273,-1.2109,0.0,0.0,0.0,0.0,0.0,0.0,0.0,0.0,-1.0527,0.0,0.0,0.0,0.0,0.0,0.0,0.0,0.0,0.0,0.0,0.0,0.0,0.0,0.0,0.0,0.0,0.0,0.0,0.0,0.0,0.0,0.0,0.0,0.0,0.0,0.0,0.0,0.0,0.0,0.0,0.0,0.0,0.0,0.0,0.0,0.0,0.0,0.0,0.0,0.0,0.0,0.0,0.0,0.0,0.0,0.0,0.0,0.0,0.0,0.0,0.0,0.0,0.0,0.0,0.0,0.0,-2.2485,-2.2427,-2.5697,-3.2506,-3.3949,-3.4891,-3.5397,-3.3163,-3.0043,-2.6171,0.0,0.0,0.0,0.0,0.0,0.0,0.0,0.0,0.0,0.0,0.0,0.0,0.0,0.0,0.0,0.0,0.0,0.0,0.0,0.0,0.0,0.0,0.0,0.0,0.0,0.0,0.0,0.0,0.0,0.0,0.0,0.0,0.0,0.0,0.0,0.0,0.0,0.0,0.0,-1.3222,-1.4286,0.0,0.0,0.0,0.0,0.0,0.0,0.0,0.0,-1.1325,0.0,0.0,0.0,0.0,0.0,0.0,0.0,0.0,0.0,0.0,0.0,0.0,0.0,0.0,0.0,0.0,0.0,0.0,0.0,0.0,0.0,0.0,0.0,0.0,0.0,0.0,0.0,0.0,0.0,0.0,0.0,0.0,0.0,0.0,0.0,0.0,0.0,0.0,0.0,0.0,0.0,0.0,0.0,0.0,0.0,0.0,0.0,0.0,0.0,0.0,0.0,0.0,0.0,0.0,0.0,-2.2639,-2.4524,-2.7659,-3.2141,-3.3526,-3.4391,-3.4776,-3.2716,-3.0125,0.0,0.0,0.0,0.0,0.0,0.0,0.0,0.0,0.0,0.0,0.0,0.0,0.0,0.0,0.0,0.0,0.0,0.0,0.0,0.0,0.0,0.0,0.0,0.0,0.0,0.0,0.0,0.0,0.0,0.0,0.0,0.0,0.0,0.0,0.0,0.0,0.0,0.0,0.0,0.0,-1.455,-1.5672,-1.6582,0.0,0.0,0.0,0.0,0.0,0.0,-1.3536,-1.3434,0.0,0.0,0.0,0.0,0.0,0.0,0.0,0.0,0.0,0.0,0.0,0.0,0.0,0.0,0.0,0.0,0.0,0.0,0.0,0.0,0.0,0.0,0.0,0.0,0.0,0.0,0.0,0.0,0.0,0.0,0.0,0.0,0.0,0.0,0.0,0.0,0.0,0.0,0.0,0.0,0.0,0.0,0.0,0.0,0.0,0.0,0.0,0.0,0.0,0.0,0.0,0.0,0.0,0.0,0.0,-2.2859,-2.6621,-2.9602,-3.1641,-3.3006,-3.3776,-3.3891,-3.2006,-2.9786,0.0,0.0,0.0,0.0,0.0,0.0,0.0,0.0,0.0,0.0,0.0,0.0,0.0,0.0,0.0,0.0,0.0,0.0,0.0,0.0,0.0,0.0,0.0,0.0,0.0,0.0,0.0,0.0,0.0,0.0,0.0,0.0,0.0,0.0,0.0,0.0,0.0,0.0,0.0,0.0,0.0,-1.7313,-1.7811,-1.7727,0.0,0.0,0.0,0.0,-1.5273,-1.6202,0.0,0.0,0.0,0.0,0.0,0.0,0.0,0.0,0.0,0.0,0.0,0.0,0.0,0.0,0.0,0.0,0.0,0.0,0.0,0.0,0.0,0.0,0.0,0.0,0.0,0.0,0.0,0.0,0.0,0.0,0.0,0.0,0.0,0.0,0.0,0.0,0.0,0.0,0.0,0.0,0.0,0.0,0.0,0.0,0.0,0.0,0.0,0.0,0.0,0.0,0.0,0.0,0.0,0.0,0.0,0.0,-2.2774,-2.5486,-2.8448,-3.1525,-3.1891,-3.2333,-3.2987,-3.0663,-2.8396,0.0,0.0,0.0,0.0,0.0,0.0,0.0,0.0,0.0,0.0,0.0,0.0,0.0,0.0,0.0,0.0,0.0,0.0,0.0,0.0,0.0,0.0,0.0,0.0,0.0,0.0,0.0,0.0,0.0,0.0,0.0,0.0,0.0,0.0,0.0,0.0,0.0,0.0,0.0,0.0,0.0,-1.8556,-1.7901,-1.7149,-1.6792,0.0,0.0,-1.8814,-1.9452,-2.1536,0.0,0.0,0.0,0.0,0.0,0.0,0.0,0.0,0.0,0.0,0.0,0.0,0.0,0.0,0.0,0.0,0.0,0.0,0.0,0.0,0.0,0.0,0.0,0.0,0.0,0.0,0.0,0.0,0.0,0.0,0.0,0.0,0.0,0.0,0.0,0.0,0.0,0.0,0.0,0.0,0.0,0.0,0.0,0.0,0.0,0.0,0.0,0.0,0.0,0.0,0.0,0.0,0.0,0.0,0.0,-2.1216,-2.2851,-2.6255,-2.8986,-3.0891,-3.1448,-3.1872,-3.2218,-3.0093,-2.8045,0.0,0.0,0.0,0.0,0.0,0.0,0.0,0.0,0.0,0.0,0.0,0.0,0.0,0.0,0.0,0.0,0.0,0.0,0.0,0.0,0.0,0.0,0.0,0.0,0.0,0.0,0.0,0.0,0.0,0.0,0.0,0.0,0.0,0.0,0.0,0.0,0.0,0.0,0.0,0.0,0.0,0.0,-2.0662,-2.0385,0.0,0.0,0.0,-2.1509,-2.0446,0.0,0.0,0.0,0.0,0.0,0.0,0.0,0.0,0.0,0.0,0.0,0.0,0.0,0.0,0.0,0.0,0.0,0.0,0.0,0.0,0.0,0.0,0.0,0.0,0.0,0.0,0.0,0.0,0.0,0.0,0.0,0.0,0.0,0.0,0.0,0.0,0.0,0.0,0.0,0.0,0.0,0.0,0.0,0.0,0.0,0.0,0.0,0.0,0.0,0.0,0.0,0.0,0.0,0.0,0.0,0.0,0.0,-2.2851,-2.6948,-2.9525,-3.0359,-3.1025,-3.1371,-3.1352,-2.9752,0.0,0.0,0.0,0.0,0.0,0.0,0.0,0.0,0.0,0.0,0.0,0.0,0.0,0.0,0.0,0.0,0.0,0.0,0.0,0.0,0.0,0.0,0.0,0.0,0.0,0.0,0.0,-0.8153,0.0,0.0,0.0,0.0,0.0,0.0,0.0,0.0,0.0,0.0,0.0,0.0,0.0,0.0,-2.1789,-2.2815,-2.3093,-2.3099,0.0,0.0,-2.3816,-2.2136,-2.4697,-2.5956,0.0,0.0,0.0,0.0,0.0,0.0,0.0,0.0,0.0,0.0,0.0,0.0,0.0,0.0,0.0,0.0,0.0,0.0,0.0,0.0,0.0,0.0,0.0,0.0,0.0,0.0,0.0,0.0,0.0,0.0,0.0,0.0,0.0,0.0,0.0,0.0,0.0,0.0,0.0,0.0,0.0,0.0,0.0,0.0,0.0,0.0,0.0,0.0,0.0,0.0,0.0,0.0,0.0,0.0,0.0,-2.2889,-2.6967,-2.9506,-3.0359,-3.0448,-3.0487,-3.0475,-2.9563,-2.785,0.0,0.0,0.0,0.0,0.0,0.0,0.0,0.0,0.0,0.0,0.0,0.0,0.0,0.0,0.0,0.0,0.0,0.0,0.0,0.0,0.0,0.0,0.0,0.0,0.0,0.0,0.0,0.0,0.0,0.0,0.0,0.0,0.0,0.0,0.0,0.0,0.0,0.0,0.0,0.0,0.0,-2.3674,-2.2929,-2.3506,-2.4553,0.0,0.0,-2.5421,-2.6083,-2.9019,-3.0133,-2.6798,0.0,0.0,0.0,0.0,0.0,0.0,0.0,0.0,0.0,0.0,0.0,0.0,0.0,0.0,0.0,0.0,0.0,0.0,0.0,0.0,0.0,0.0,0.0,0.0,0.0,0.0,0.0,0.0,0.0,0.0,0.0,0.0,0.0,0.0,0.0,0.0,0.0,0.0,0.0,0.0,0.0,0.0,0.0,0.0,0.0,0.0,0.0,0.0,0.0,0.0,0.0,0.0,0.0,-2.1927,-2.2831,-2.6467,-2.9025,-3.0321,-3.0398,-3.0398,-3.0398,-2.9563,-2.8084,0.0,0.0,0.0,0.0,0.0,0.0,0.0,0.0,0.0,0.0,0.0,0.0,0.0,0.0,0.0,0.0,0.0,0.0,0.0,0.0,0.0,0.0,0.0,0.0,0.0,0.0,0.0,0.0,-1.2781,-1.4494,-1.4719,0.0,0.0,0.0,0.0,0.0,0.0,0.0,0.0,0.0,0.0,-2.5197,-2.591,-2.6252,0.0,0.0,-2.7517,-2.7595,-2.7468,-2.8948,-2.9302,-2.7054,-2.7187,0.0,0.0,0.0,0.0,0.0,0.0,0.0,0.0,0.0,0.0,0.0,0.0,0.0,0.0,0.0,0.0,0.0,0.0,0.0,0.0,0.0,0.0,0.0,0.0,0.0,0.0,0.0,0.0,0.0,0.0,0.0,0.0,0.0,0.0,0.0,0.0,0.0,0.0,0.0,0.0,0.0,0.0,0.0,0.0,0.0,0.0,0.0,0.0,0.0,0.0,0.0,0.0,-2.2197,-2.2812,-2.639,-2.8967,-3.0359,-3.0398,-3.0398,-3.0379,-2.9813,-2.8664,0.0,0.0,0.0,0.0,0.0,0.0,0.0,0.0,0.0,0.0,0.0,0.0,0.0,0.0,0.0,0.0,0.0,0.0,0.0,0.0,0.0,0.0,0.0,0.0,0.0,0.0,0.0,0.0,-1.461,-1.5714,-1.6442,0.0,0.0,0.0,0.0,0.0,0.0,0.0,0.0,0.0,0.0,-2.6883,-2.7835,-2.8137,-2.8266,-2.8255,-2.8536,-2.8632,-2.8362,-2.8589,-2.8382,-2.7277,0.0,0.0,0.0,0.0,0.0,0.0,0.0,0.0,0.0,0.0,0.0,0.0,0.0,0.0,0.0,0.0,0.0,0.0,0.0,0.0,0.0,0.0,0.0,0.0,0.0,0.0,0.0,0.0,0.0,0.0,-1.5698,0.0,0.0,0.0,0.0,0.0,0.0,0.0,0.0,0.0,0.0,0.0,0.0,0.0,0.0,0.0,0.0,0.0,0.0,0.0,0.0,0.0,0.0,-2.2774,-2.2859,-2.6909,-2.9486,-3.0359,-3.0398,-3.0398,-3.0398,-3.0359,-2.9586,-2.7869,0.0,0.0,0.0,0.0,0.0,0.0,0.0,0.0,0.0,0.0,0.0,0.0,0.0,0.0,0.0,0.0,0.0,0.0,0.0,0.0,0.0,0.0,0.0,0.0,0.0,0.0,-1.3184,-1.4453,-1.6434,0.0,0.0,0.0,0.0,0.0,0.0,0.0,0.0,0.0,0.0,-2.8052,-2.8799,-2.8025,-2.8544,-2.9006,-2.9025,-2.842,-2.82,-2.892,-2.8457,-2.8006,0.0,0.0,0.0,0.0,0.0,0.0,0.0,0.0,0.0,0.0,0.0,0.0,0.0,0.0,0.0,0.0,0.0,0.0,0.0,0.0,0.0,0.0,0.0,0.0,0.0,0.0,0.0,-1.6008,-1.6505,0.0,0.0,0.0,0.0,0.0,0.0,0.0,0.0,0.0,0.0,0.0,-2.8612,-2.9136,0.0,0.0,0.0,0.0,0.0,0.0,0.0,0.0,0.0,0.0,0.0,0.0,-2.2793,-2.2985,-2.6977,-2.9506,-3.0359,-3.0398,-3.0398,-3.0398,-3.0398,-2.934,-2.7089,0.0,0.0,0.0,0.0,0.0,0.0,0.0,0.0,0.0,0.0,0.0,0.0,0.0,0.0,0.0,0.0,0.0,0.0,0.0,0.0,0.0,0.0,0.0,0.0,0.0,-1.8086,0.0,0.0,0.0,0.0,0.0,0.0,0.0,0.0,0.0,0.0,0.0,-2.6367,-2.7424,-2.7511,-2.7561,-2.7852,-2.8121,-2.8486,0.0,0.0,0.0,0.0,0.0,0.0,0.0,0.0,0.0,0.0,0.0,0.0,0.0,0.0,-2.6292,-2.4044,-2.4591,-2.5293,-2.4841,0.0,0.0,0.0,0.0,0.0,0.0,0.0,0.0,0.0,0.0,0.0,0.0,0.0,0.0,-1.877,0.0,-1.9246,0.0,0.0,0.0,0.0,0.0,0.0,0.0,0.0,-2.6434,-2.944,-3.1914,-3.2372,-3.3121,0.0,-3.3622,-3.0854,0.0,0.0,0.0,0.0,0.0,0.0,0.0,0.0,-2.4274,-2.387,-2.7563,-2.9813,-3.0371,-3.0398,-3.0398,-3.0398,-3.0398,-2.961,-2.7986,-2.6473,-2.5198,0.0,0.0,0.0,0.0,0.0,0.0,0.0,0.0,0.0,0.0,0.0,0.0,0.0,0.0,0.0,0.0,0.0,0.0,0.0,0.0,0.0,0.0,0.0,-2.1367,0.0,0.0,0.0,0.0,0.0,0.0,0.0,0.0,0.0,-2.7027,-2.7212,-2.7399,-2.7926,-2.7725,-2.7505,-2.7477,0.0,0.0,0.0,0.0,0.0,0.0,0.0,-2.7015,-2.6768,-2.7651,-2.8588,-2.9132,-2.9874,-3.04,-3.0398,0.0,0.0,-2.7014,-2.7758,-2.8702,-2.8276,-2.8813,-2.9321,-2.9283,-2.9682,-2.9901,0.0,0.0,0.0,0.0,0.0,0.0,0.0,0.0,-2.2692,-2.3153,0.0,-2.2974,0.0,0.0,0.0,0.0,0.0,-2.1905,0.0,0.0,-3.1374,-3.3513,-3.3186,-3.3961,-3.4345,-3.4353,-3.4386,-3.3862,-3.2821,-3.0489,0.0,0.0,0.0,0.0,0.0,0.0,-2.7005,-2.5476,-2.8648,-3.0398,-3.0398,-3.0398,-3.0398,-3.0398,-3.0398,-3.0379,-3.0283,-2.8042,-2.6688,-2.6563,-2.1966,0.0,0.0,0.0,0.0,0.0,0.0,0.0,0.0,0.0,0.0,0.0,0.0,0.0,0.0,0.0,0.0,0.0,0.0,0.0,0.0,-2.2216,0.0,0.0,0.0,0.0,0.0,0.0,0.0,0.0,0.0,0.0,-2.7052,-2.7547,-2.7961,-2.7981,0.0,0.0,0.0,0.0,-2.8529,-2.6928,-2.6659,-2.6678,-2.6726,-2.7421,-2.8221,-2.901,0.0,0.0,-3.1782,-3.1115,-3.0669,-3.0597,-3.1371,-3.1218,-2.9321,-2.9789,-3.0505,-3.0602,-3.1191,-3.1688,-3.1761,-3.1742,-3.1751,-3.2184,0.0,0.0,0.0,0.0,-2.6101,-2.7,-2.7988,-2.8088,-2.8272,-2.8394,-2.6952,0.0,0.0,0.0,0.0,0.0,0.0,-2.6269,-2.9194,-3.1935,-3.4356,-3.6546,-3.6781,-3.7224,-3.7815,-3.7198,-3.6469,-3.5584,-3.4301,-3.1756,-2.8016,0.0,0.0,0.0,0.0,-2.6101,-2.639,-2.8986,-3.0398,-3.0398,-3.0398,-3.0398,-3.0398,-3.0398,-3.0398,-3.0398,-2.9713,-2.8752,-2.7563,-2.5543,0.0,0.0,0.0,0.0,0.0,0.0,0.0,0.0,0.0,0.0,0.0,0.0,0.0,0.0,0.0,0.0,0.0,0.0,0.0,-2.3919,-2.578,-2.5918,0.0,0.0,0.0,0.0,0.0,0.0,0.0,0.0,0.0,-2.7615,-2.7296,-2.7285,0.0,0.0,-2.6462,-2.6602,-2.7035,-2.74,-2.7505,-2.7525,0.0,0.0,-2.8135,-2.82,-2.8996,-3.1047,-3.2769,-3.3382,-3.3799,-3.4043,-3.4013,-3.4224,-3.4199,-3.366,-3.275,-3.2653,-3.366,-3.3288,-3.282,-3.3333,-3.3498,-3.3489,-3.9653,-3.5334,-3.2598,-3.1303,-3.1202,-3.1807,-3.273,-3.3805,-3.3884,-3.3923,-3.3801,-3.1796,-3.0575,-2.9855,-2.7152,0.0,0.0,0.0,-2.9522,-3.2826,-3.4249,-3.6199,-3.845,-3.8834,-3.945,-4.0239,-3.94,-3.8727,-3.818,-3.7051,-3.5012,-3.2115,0.0,0.0,-2.7174,-2.7907,-2.8409,-2.8679,-3.0121,-3.091,-3.0898,-3.0571,-3.0398,-3.0398,-3.0398,-3.0398,-3.0398,-3.0398,-2.9948,-2.8909,-2.7428,-2.589,0.0,0.0,0.0,0.0,0.0,0.0,0.0,0.0,0.0,0.0,0.0,-1.9156,-2.0697,0.0,0.0,0.0,-2.2692,-2.4012,-2.6523,-2.7363,0.0,0.0,0.0,0.0,0.0,0.0,0.0,-2.5476,-2.6832,-2.7845,-2.7642,-2.7391,-2.7507,-2.8305,-2.7547,-2.6997,-2.7129,0.0,-2.7678,-2.7881,-2.789,-2.8063,-2.8555,-2.8779,-2.9374,-3.0898,-3.2344,-3.367,-3.4576,-3.5166,-3.5488,-3.5507,-3.5507,-3.5507,-3.5507,-3.4622,-3.4199,-3.5276,-3.4941,-3.4639,-3.5119,-3.5201,-3.5182,-4.589,-4.5329,-3.8865,-3.6604,-3.7292,-3.7298,-3.8219,-3.9662,-3.9681,-3.9634,-3.9403,-3.6999,-3.5817,-3.5455,-3.1507,0.0,-3.2292,-3.2259,-3.3978,-3.7123,-3.793,-3.8777,-3.9604,-4.0312,-4.1046,-4.1893,-4.1085,-4.07,-4.0604,-3.9092,-3.7824,-3.6862,-3.4501,-3.2807,-3.1896,-3.2442,-3.2449,-3.1698,-3.1679,-3.1698,-3.1679,-3.0852,-3.0398,-3.0398,-3.0379,-3.0379,-3.0398,-3.0379,-3.0379,-3.0321,-2.8159,-2.6871,-2.6697,0.0,0.0,0.0,0.0,0.0,0.0,0.0,0.0,0.0,0.0,0.0,0.0,0.0,0.0,0.0,-2.6966,0.0,-2.832,-2.7695,0.0,0.0,0.0,-2.7332,-2.8106,-2.8159,-2.7871,-2.7272,0.0,0.0,-2.7392,-2.7806,-2.8412,-2.9212,-2.9283,-2.901,-2.8203,-2.8687,-2.8901,-2.814,-2.8082,-2.811,-2.8387,-2.9586,-3.1291,-3.3313,-3.4159,-3.4441,-3.5089,-3.5199,-3.5276,-3.5353,-3.5391,-3.543,-3.5488,-3.5416,-3.5507,-3.5488,-3.6021,-3.6535,-3.654,-3.6559,-3.654,-4.8489,-4.8296,-4.5973,-4.4035,-4.2501,-4.2511,-4.2739,-4.3104,-4.3104,-4.2761,-4.2071,-4.015,-3.8604,-3.7348,-3.6329,-3.6471,-3.7521,-3.8089,-3.9161,-4.0566,-4.0796,-4.1354,-4.2143,-4.1716,-4.1963,-4.2739,-4.259,-4.2494,-4.2431,-4.1408,-4.0142,-3.8685,-3.7411,-3.5391,-3.2699,-3.2199,-3.1891,-3.1718,-3.1698,-3.1698,-3.1679,-3.0852,-3.0398,-3.0398,-3.0206,-3.0206,-3.0398,-3.0206,-3.0206,-3.0379,-2.9802,-2.9217,-2.8506,-2.5909,0.0,0.0,0.0,0.0,0.0,0.0,0.0,0.0,0.0,-2.411,-2.5348,0.0,-2.7284,0.0,-2.8149,-2.9056,-2.9258,-2.9101,0.0,0.0,-2.8105,-2.8025,-2.8176,-2.8753,-2.8637,-2.7349,-2.8261,-2.8906,-2.8538,-2.8858,-2.939,-3.0064,-2.9117,-2.8456,-2.8845,-2.9014,-2.9055,-2.892,-2.9371,-2.9802,-2.9879,-3.1205,-3.2443,-3.3114,-3.3736,-3.4263,-3.4468,-3.3962,-3.3712,-3.4334,-3.4487,-3.4757,-3.5372,-3.5507,-3.5507,-3.5507,-3.568,-3.5988,-3.6546,-3.6699,-3.6704,-4.9644,-4.9856,-4.8625,-4.7067,-4.5509,-4.624,-4.6355,-4.6028,-4.6413,-4.5913,-4.4722,-4.3359,-4.1827,-4.0277,-4.0277,-4.0539,-4.1008,-4.1459,-4.192,-4.2374,-4.2393,-4.2643,-4.3066,-4.2621,-4.2813,-4.3605,-4.3265,-4.3265,-4.3566,-4.2794,-4.1889,-4.0992,-4.0115,-3.8378,-3.579,-3.4199,-3.3564,-3.391,-3.3199,-3.2468,-3.1718,-3.1237,-3.0739,-3.0241,-2.9735,-2.9524,-2.9666,-2.921,-2.9033,-2.9256,-2.9294,-2.9071,-2.8571,-2.7255,-2.6697,0.0,0.0,0.0,0.0,0.0,0.0,0.0,0.0,0.0,0.0,0.0,-2.8642,-2.8047,-2.8965,-2.9453,-2.9043,-2.9023,-2.8984,-2.8906,-2.8887,-2.8984,-2.9277,-2.9753,-2.9687,-2.8816,-2.9448,-2.9854,-2.9693,-2.9858,-3.0289,-3.103,-3.0289,-2.9694,-2.9752,-3.0013,-3.0121,-2.9794,-3.0737,-3.1371,-3.1056,-3.1737,-3.2366,-3.2409,-3.2762,-3.3173,-3.3437,-3.3179,-3.316,-3.3848,-3.412,-3.4487,-3.5315,-3.5507,-3.5507,-3.5507,-3.5507,-3.5661,-3.6065,-3.6166,-3.6166,-5.001,-5.0548,-4.9067,-4.8047,-4.7507,-4.8951,-4.8779,-4.7509,-4.8259,-4.7854,-4.6525,-4.5892,-4.4778,-4.3453,-4.3528,-4.3528,-4.3431,-4.3532,-4.3513,-4.3412,-4.3297,-4.3316,-4.3412,-4.3297,-4.3662,-4.4412,-4.3763,-4.3782,-4.4412,-4.3758,-4.3316,-4.3085,-4.2341,-4.1123,-3.9422,-3.7156,-3.6122,-3.6372,-3.5045,-3.3583,-3.2064,-3.1698,-3.1066,-3.0075,-2.9136,-2.8638,-2.8662,-2.7977,-2.7698,-2.7871,-2.789,-2.7967,-2.806,-2.8102,-2.8191,0.0,-2.8367,0.0,0.0,0.0,0.0,0.0,0.0,0.0,0.0,-2.8816,-2.9179,-2.9394,-2.9531,-2.9336,-2.8691,-2.8633,-2.8945,-2.9668,-2.9766,-3.0039,-3.0644,-3.0723,-3.0699,-3.0646,-3.0741,-3.0801,-3.0821,-3.0794,-3.1088,-3.1676,-3.1699,-3.1314,-3.0833,-3.1275,-3.1525,-3.0794,-3.1872,-3.2333,-3.1941,-3.1819,-3.1872,-3.1962,-3.2179,-3.2095,-3.2573,-3.2623,-3.2864,-3.3513,-3.3829,-3.4314,-3.5295,-3.5507,-3.5507,-3.5507,-3.5507,-3.5507,-3.5551,-3.5676,-3.558,-5.0548,-5.0664,-5.0337,-5.0106,-5.0029,-5.0298,-4.8009,-4.4066,-4.422,-4.4472,-4.4821,-4.5357,-4.5413,-4.5201,-4.5853,-4.5796,-4.5163,-4.5853,-4.5796,-4.5105,-4.4393,-4.4451,-4.5066,-4.441,-4.4526,-4.5297,-4.5201,-4.522,-4.5336,-4.5182,-4.4434,-4.3131,-4.2936,-4.1992,-4.0312,0.0,0.0,0.0,-3.5064,-3.4757,-3.3699,-3.1698,-3.054,-3.0292,-2.8639,0.0,-2.8046,-2.7719,-2.7633,-2.7871,-2.789,0.0,0.0,0.0,0.0,0.0,0.0,0.0,0.0,0.0,0.0,0.0,-3.0376,-3.0163,-3.0279,-2.98,-2.9796,-3.0469,-3.0,-2.9824,-3.0351,-3.041,-3.0469,-3.0625,-3.0644,-3.0723,-3.0859,-3.0879,-3.0857,-3.0866,-3.1465,-3.1932,-3.2016,-3.1878,-3.1754,-3.1885,-3.1808,-3.1712,-3.1552,-3.2192,-3.2576,-3.2449,-3.2487,-3.2429,-3.2622,-3.2333,-3.2474,-3.3108,-3.3403,-3.3115,-3.2555,-3.1986,-3.2001,-3.2894,-3.3109,-3.3718,-3.5185,-3.5507,-3.546,-3.5474,-3.5474,-3.5507,-3.5493,-3.5844,-3.5959,-5.0683,0.0,-5.0683,-5.0183,0.0,-4.9433,-4.7471,-4.4451,-4.6124,-4.6837,-4.6857,-4.7278,-4.7221,-4.6817,-4.645,-4.5776,-4.4932,-4.4562,-4.4388,-4.4355,-4.3912,-4.4374,-4.5586,-4.5141,-4.5161,-4.5586,-4.5586,-4.5586,-4.5586,-4.5586,-4.5182,-4.432,-4.3899,-4.3052,-4.1777,-4.0527,-3.8623,-3.6103,-3.6084,-3.5699,-3.4814,-3.2737,-3.1392,-3.0803,0.0,0.0,0.0,0.0,0.0,0.0,0.0,0.0,0.0,0.0,0.0,-3.1168,-3.1649,-3.2172,-3.2674,-3.2713,-3.2932,-3.338,-3.3419,-3.2849,-3.1598,-3.1472,-3.166,-3.207,-3.1367,-3.1055,-3.1484,-3.1152,-3.0918,-3.0937,-3.1269,-3.1543,-3.1582,-3.1894,-3.2012,-3.1836,-3.2344,-3.2887,-3.3141,-3.2825,-3.2737,-3.2949,-3.2987,-3.309,-3.3474,-3.3526,-3.3654,-3.4064,-3.3449,-3.3026,-3.3294,-3.3502,-3.3184,-3.3105,-3.2634,-3.2226,-3.18,-3.1504,-3.1577,-3.2393,-3.2951,-3.3761,-3.4778,-3.5105,-3.5102,-3.5108,-3.5119,-3.5152,-3.5268,-3.5518,-3.5552,-5.0683,-5.0683,-5.0683,-4.9875,-4.8548,-4.8567,-4.7778,-4.6644,0.0,0.0,0.0,-4.9106,-4.8797,-4.8029,-4.6817,-4.5701,-4.4701,-4.3481,-4.3153,-4.3528,-4.3547,-4.4259,-4.5566,-4.5586,-4.5586,-4.5586,-4.5586,-4.5586,-4.5586,-4.5586,-4.5586,-4.5528,-4.4876,-4.4049,-4.3066,-4.1373,-3.9815,-3.8469,-3.745,-3.6526,-3.5699,-3.3872,-3.248,-3.1599,-2.9958,-2.9029,-2.8867,-2.8418,-2.8179,-2.8268,-2.9081,-2.9603,-2.9719,-3.1322,-3.2317,-3.2411,-3.3315,-3.417,-3.4883,-3.4941,-3.5234,-3.5957,-3.6016,-3.5117,-3.3008,-3.334,-3.3633,-3.3633,-3.2891,-3.2402,-3.2402,-3.1797,-3.1348,-3.1348,-3.1992,-3.2422,-3.2461,-3.2969,-3.3164,-3.2891,-3.3262,-3.374,-3.4017,-3.3688,-3.3588,-3.4045,-3.4084,-3.4513,-3.5193,-3.4814,-3.4609,-3.5033,-3.4537,-3.4083,-3.4045,-3.4225,-3.4073,-3.2876,-3.2144,-3.1525,-3.1373,-3.1466,-3.1853,-3.2429,-3.32,-3.3902,-3.4546,-3.4734,-3.4696,-3.4699,-3.4704,-3.4776,-3.498,-3.5021,-3.4977,-5.0683,-5.0683,-5.0683,-5.0548,-5.0337,-5.0317,-5.0202,-4.9837,-4.8202,-4.7375,-4.7298,-4.7971,-4.8221,-4.8125,-4.8624,-4.8028,-4.6605,-4.6992,-4.6529,-4.5259,-4.524,-4.5355,-4.5586,-4.5586,-4.5586,-4.5586,-4.5586,-4.5586,-4.5586,-4.5586,-4.5586,-4.5566,-4.547,-4.4624,-4.3085,-4.1373,-4.0373,-4.0104,-3.8604,-3.7411,-3.6526,-3.416,-3.284,-3.2635,-3.1099,-2.9897,-2.9194,-2.9852,-2.994,-2.9261,-3.0021,-3.0794,-3.1507,-3.2519,-3.34,-3.4173,-3.5061,-3.5635,-3.5801,-3.582,-3.5859,-3.5976,-3.6016,-3.582,-3.5508,-3.4863,-3.4531,-3.4473,-3.375,-3.3223,-3.3223,-3.3066,-3.293,-3.2988,-3.3144,-3.3242,-3.3223,-3.3379,-3.3476,-3.3398,-3.4004,-3.448,-3.4451,-3.4375,-3.4288,-3.4243,-3.4353,-3.4537,-3.5215,-3.5411,-3.5264,-3.5219,-3.5234,-3.5037,-3.4591,-3.4158,-3.3944,-3.3956,-3.3877,-3.3419,-3.2639,-3.2741,-3.294,-3.3184,-3.3373,-3.3807,-3.4502,-3.4694,-3.4634,-3.4637,-3.4637,-3.4701,-3.4778,-3.4824,-3.4875,-5.0683,-5.0683,-5.0683,-5.0683,-5.0683,-5.0683,-5.0683,-5.0587,-4.949,-4.8952,-4.899,-4.9356,-4.951,-4.9471,-4.8952,-4.8029,-4.6874,-4.6313,-4.589,-4.5566,-4.5124,-4.5393,-4.6201,-4.5817,-4.5586,-4.5586,-4.5586,-4.5586,-4.5586,-4.5586,-4.5586,-4.5547,-4.5163,-4.428,-4.3104,-4.1854,-4.0969,-4.0466,-3.8854,-3.7815,-3.7373,-3.4911,-3.3603,-3.3622,-3.2512,-3.1736,-3.1394,-3.1819,-3.1882,-3.1529,-3.2358,-3.297,-3.3351,-3.4218,-3.4897,-3.5292,-3.5717,-3.5958,-3.6015,-3.6016,-3.6016,-3.6016,-3.6016,-3.6016,-3.6016,-3.5625,-3.541,-3.5371,-3.4609,-3.4101,-3.4082,-3.3691,-3.3379,-3.3379,-3.3809,-3.4101,-3.418,-3.457,-3.4805,-3.4802,-3.5084,-3.5266,-3.5116,-3.5085,-3.5051,-3.493,-3.4897,-3.5038,-3.5253,-3.5283,-3.5258,-3.5122,-3.4992,-3.4767,-3.4485,-3.4072,-3.3887,-3.3981,-3.3734,-3.3455,-3.3008,-3.3128,-3.3187,-3.3248,-3.3527,-3.3885,-3.4242,-3.4208,-3.4208,-3.4232,-3.4353,-3.4437,-3.4629,-3.4914,-3.5114,-5.0683,-5.0683,-5.0683,-5.0683,-5.0683,-5.0683,-5.0683,-5.0683,-5.0664,-5.0683,-5.0683,-5.0683,-5.0683,-5.0548,-4.9279,-4.8241,-4.7356,-4.6071,-4.5743,-4.6047,-4.547,-4.5874,-4.6971,-4.6278,-4.5911,-4.5853,-4.5719,-4.5586,-4.5586,-4.5586,-4.5586,-4.5509,-4.4741,-4.3915,-4.3104,-4.2258,-4.1373,-4.045,-3.8873,-3.8027,-3.793,-3.5718,-3.4545,-3.4545,-3.4045,-3.3666,-3.3526,-3.3707,-3.3763,-3.368,-3.4457,-3.4899,-3.4961,-3.5605,-3.5976,-3.5937,-3.5976,-3.6016,-3.6016,-3.6016,-3.6016,-3.6016,-3.6016,-3.6016,-3.6016,-3.6016,-3.6016,-3.5937,-3.5371,-3.5,-3.4922,-3.4434,-3.3984,-3.4023,-3.457,-3.498,-3.5059,-3.5597,-3.5967,-3.5919,-3.5886,-3.5771,-3.5641,-3.5622,-3.5526,-3.5468,-3.5507,-3.5404,-3.5173,-3.5078,-3.5,-3.4851,-3.4623,-3.4369,-3.4167,-3.3944,-3.3842,-3.3788,-3.3434,-3.3241,-3.3241,-3.3248,-3.3254,-3.3324,-3.3682,-3.3932,-3.385,-3.3834,-3.386,-3.3895,-3.4074,-3.4363,-3.4755,-3.5154,-3.5403,-5.0683,-5.0683,-5.0683,-5.0683,-5.0683,-5.0683,-5.0683,-5.0683,-5.0683,-5.0683,-5.0683,-5.0683,-5.0683,-5.0664,-5.0491,-4.9913,-4.9144,-4.901,-4.851,-4.7894,-4.7798,-4.7855,-4.7913,-4.7162,-4.6775,-4.6641,-4.6007,-4.5661,-4.5586,-4.5586,-4.5586,-4.549,-4.4722,-4.3915,-4.3104,-4.2239,-4.1373,-4.0504,-3.8896,-3.805,-3.7911,-3.6353,-3.5488,-3.5468,-3.5584,-3.5276,-3.453,-3.5286,-3.5371,-3.4724,-3.5371,-3.5859,-3.5879,-3.5957,-3.5996,-3.5976,-3.5996,-3.6016,-3.6016,-3.6016,-3.6016,-3.6016,-3.6016,-3.6016,-3.6016,-3.6016,-3.6016,-3.5976,-3.5937,-3.582,-3.5859,-3.5723,-3.5586,-3.5527,-3.5703,-3.5879,-3.582,-3.5869,-3.592,-3.59,-3.5776,-3.5699,-3.5622,-3.5603,-3.5565,-3.5507,-3.5507,-3.5381,-3.5097,-3.4904,-3.4653,-3.4427,-3.4317,-3.4211,-3.3944,-3.385,-3.3807,-3.3815,-3.3956,-3.382,-3.3727,-3.3817,-3.4017,-3.361,-3.3729,-3.385,-3.3815,-3.3807,-3.3807,-3.3852,-3.4062,-3.4375,-3.4927,-3.5296,-3.5446,-5.0683,-5.0683,-5.0683,-5.0683,-5.0683,-5.0683,-5.0683,-5.0683,-5.0683,-5.0683,-5.0683,-5.0683,-5.0683,-5.0683,-5.0683,-5.0471,-5.0164,-5.0183,-4.999,-4.9586,-4.9125,-4.8875,-4.8779,-4.8008,-4.7391,-4.6928,-4.6525,-4.6084,-4.568,-4.5586,-4.5586,-4.549,-4.472,-4.3893,-4.3104,-4.2239,-4.1412,-4.062,-3.9484,-3.889,-3.8698,-3.6787,-3.5699,-3.5757,-3.5853,-3.5781,-3.5502,-3.581,-3.584,-3.5527,-3.5801,-3.6016,-3.6016,-3.6016,-3.6016,-3.6016,-3.6016,-3.5976,-3.5957,-3.5976,-3.5976,-3.5957,-3.5976,-3.6016,-3.6016,-3.6016,-3.6016,-3.6016,-3.6016,-3.6016,-3.6016,-3.6016,-3.6016,-3.6016,-3.6016,-3.5984,-3.5939,-3.5913,-3.5853,-3.5738,-3.568,-3.5603,-3.5565,-3.5545,-3.5526,-3.5507,-3.5507,-3.5346,-3.4964,-3.4751,-3.4505,-3.4074,-3.4012,-3.3988,-3.3842,-3.3807,-3.3807,-3.3834,-3.3876,-3.3876,-3.3895,-3.3868,-3.3928,-3.3807,-3.3807,-3.3807,-3.3807,-3.3807,-3.3807,-3.3897,-3.4242,-3.4675,-3.5212,-3.5412,-3.5493,-5.0683,-5.0683,-5.0683,-5.0683,-5.0683,-5.0683,-5.0683,-5.0683,-5.0683,-5.0683,-5.0683,-5.0683,-5.0683,-5.0683,-5.0683,-5.0683,-5.0683,-5.0683,-5.0683,-5.0625,-5.0029,-4.976,-4.9663,-4.8875,-4.8029,-4.7316,-4.6987,-4.6448,-4.5699,-4.5586,-4.5586,-4.5468,-4.4718,-4.3891,-4.3104,-4.2258,-4.147,-4.0716,-3.9888,-3.9534,-3.9331,-3.7578,-3.6419,-3.6265,-3.6041,-3.5963,-3.6016,-3.6016,-3.6016,-3.6016,-3.6016,-3.6016,-3.6016,-3.6016,-3.6016,-3.6016,-3.6016,-3.5957,-3.5898,-3.594,-3.5935,-3.5861,-3.5929,-3.5976,-3.5976,-3.5996,-3.6016,-3.6016,-3.6016,-3.6016,-3.6016,-3.6016,-3.6016,-3.6016,-3.5986,-3.5937,-3.5907,-3.5853,-3.5757,-3.5622,-3.5603,-3.5565,-3.5526,-3.5507,-3.5507,-3.5507,-3.5474,-3.5304,-3.4851,-3.4674,-3.4486,-3.3921,-3.3834,-3.3834,-3.3807,-3.3807,-3.3807,-3.3807,-3.3815,-3.3815,-3.3807,-3.3807,-3.3807,-3.3807,-3.3807,-3.3807,-3.3807,-3.3807,-3.3862,-3.396,-3.4259,-3.4745,-3.5209,-3.5345,-3.5416,-5.0683,-5.0683,-5.0683,-5.0683,-5.0683,-5.0683,-5.0683,-5.0683,-5.0683,-5.0683,-5.0683,-5.0683,-5.0683,-5.0683,-5.0683,-5.0683,-5.0683,-5.0683,-5.0683,-5.0683,-5.0606,-5.0606,-5.0587,-4.976,-4.8894,-4.8049,-4.7335,-4.6525,-4.5643,-4.5586,-4.5586,-4.5528,-4.4737,-4.391,-4.3181,-4.2393,-4.1566,-4.0831,-4.0123,-3.9719,-3.9649,-3.8888,-3.7983,-3.7262,-3.642,-3.6055,-3.6035,-3.6016,-3.6016,-3.6016,-3.6016,-3.6016,-3.6016,-3.6016,-3.6016,-3.6016,-3.6016,-3.5957,-3.5918,-3.5908,-3.5861,-3.5774,-3.584,-3.5898,-3.5918,-3.5976,-3.6016,-3.6016,-3.6016,-3.6016,-3.5996,-3.5996,-3.5996,-3.5996,-3.5943,-3.59,-3.59,-3.5718,-3.5641,-3.5603,-3.5565,-3.5526,-3.5507,-3.5507,-3.5507,-3.5507,-3.5507,-3.5304,-3.4851,-3.4694,-3.4439,-3.4005,-3.3807,-3.3807,-3.3807,-3.3807,-3.3807,-3.3807,-3.3807,-3.3807,-3.3807,-3.3807,-3.3807,-3.3807,-3.3807,-3.3807,-3.3807,-3.3844,-3.3944,-3.4049,-3.4135,-3.4539,-3.5015,-3.5091,-3.5196,-5.0683,-5.0683,-5.0683,-5.0683,-5.0683,-5.0683,-5.0683,-5.0683,-5.0683,-5.0683,-5.0683,-5.0683,-5.0683,-5.0683,-5.0683,-5.0683,-5.0683,-5.0683,-5.0683,-5.0683,-5.0683,-5.0683,-5.0664,-5.0356,-4.9779,-4.8914,-4.8066,-4.6931,-4.5719,-4.5586,-4.5586,-4.5451,-4.472,-4.4182,-4.3794,-4.2662,-4.1889,-4.1674,-4.0927,-4.0566,-4.0545,-3.9866,-3.9253,-3.8883,-3.7569,-3.6836,-3.6816,-3.6309,-3.6016,-3.6016,-3.6016,-3.6016,-3.6016,-3.6016,-3.6016,-3.6016,-3.6016,-3.5976,-3.5918,-3.5899,-3.5834,-3.5732,-3.5831,-3.5917,-3.5898,-3.5976,-3.6016,-3.6016,-3.6016,-3.5996,-3.5937,-3.5939,-3.594,-3.5924,-3.5844,-3.5757,-3.5699,-3.5622,-3.5584,-3.5565,-3.5526,-3.5507,-3.5507,-3.5507,-3.5507,-3.5507,-3.5507,-3.5239,-3.487,-3.4694,-3.4483,-3.3979,-3.3807,-3.3807,-3.3807,-3.3807,-3.3807,-3.3807,-3.3807,-3.3807,-3.3807,-3.3807,-3.3807,-3.3807,-3.3807,-3.3807,-3.3807,-3.3825,-3.3944,-3.4076,-3.4186,-3.4319,-3.4756,-3.4897,-3.507,-5.0683,-5.0683,-5.0683,-5.0683,-5.0683,-5.0683,-5.0683,-5.0683,-5.0683,-5.0683,-5.0683,-5.0683,-5.0683,-5.0702,-5.0741,-5.0721,-5.0683,-5.0683,-5.0683,-5.0683,-5.0683,-5.0683,-5.0683,-5.0683,-5.026,-4.9337,-4.8259,-4.7257,-4.6527,-4.6219,-4.6103,-4.6084,-4.5259,-4.4739,-4.4391,-4.3195,-4.2499,-4.2221,-4.1725,-4.1382,-4.117,-4.0629,-4.0312,-4.0059,-3.8633,-3.7578,-3.7305,-3.6465,-3.6016,-3.6016,-3.6016,-3.6016,-3.6016,-3.6016,-3.6016,-3.6016,-3.6016,-3.5976,-3.5918,-3.5897,-3.5852,-3.5726,-3.5828,-3.5977,-3.6241,-3.6124,-3.6126,-3.6277,-3.6055,-3.5923,-3.5853,-3.5806,-3.5806,-3.583,-3.5738,-3.5661,-3.5622,-3.5584,-3.5545,-3.5507,-3.5507,-3.5507,-3.5507,-3.5507,-3.5507,-3.5507,-3.5417,-3.5176,-3.4812,-3.4572,-3.4375,-3.3921,-3.3807,-3.3807,-3.3807,-3.3807,-3.3807,-3.3807,-3.3807,-3.3807,-3.3807,-3.3807,-3.3807,-3.3807,-3.3807,-3.3807,-3.3807,-3.3807,-3.3925,-3.4054,-3.4072,-3.4125,-3.4467,-3.4753,-3.4926,-5.0683,-5.0683,-5.0683,-5.0683,-5.0683,-5.0683,-5.0683,-5.0683,-5.0683,-5.0683,-5.0683,-5.0702,-5.0721,-5.0721,-5.0837,-5.0818,-5.0741,-5.0741,-5.0721,-5.0683,-5.0683,-5.0702,-5.0702,-5.0702,-5.0279,-4.9394,-4.7874,-4.7544,-4.8039,-4.7458,-4.7149,-4.7039,-4.6356,-4.5626,-4.478,-4.4039,-4.3162,-4.2576,-4.2323,-4.1933,-4.1289,-4.1113,-4.1074,-4.0937,-3.9473,-3.8223,-3.7402,-3.6484,-3.6016,-3.6016,-3.6016,-3.6016,-3.6016,-3.6016,-3.6016,-3.6016,-3.6016,-3.5957,-3.5918,-3.5898,-3.5841,-3.5783,-3.5874,-3.635,-3.6806,-3.6487,-3.6387,-3.6822,-3.6311,-3.577,-3.5717,-3.5667,-3.5663,-3.568,-3.5641,-3.5603,-3.5584,-3.5545,-3.5507,-3.5507,-3.5507,-3.5512,-3.5532,-3.5661,-3.568,-3.5633,-3.548,-3.5172,-3.4787,-3.4498,-3.4165,-3.3921,-3.3807,-3.3807,-3.3807,-3.3807,-3.3807,-3.3807,-3.3807,-3.3807,-3.3807,-3.3807,-3.3807,-3.3807,-3.3807,-3.3807,-3.3807,-3.3807,-3.3807,-3.3925,-3.3879,-3.3931,-3.4173,-3.4476,-3.4762,-5.0683,-5.0683,-5.0683,-5.0683,-5.0683,-5.0683,-5.0683,-5.0683,-5.0683,-5.0683,-5.0702,-5.0798,-5.0818,-5.0875,-5.0972,-5.101,-5.0991,-5.0972,-5.0875,-5.0721,-5.0683,-5.0741,-5.0818,-5.0837,-5.0414,-4.9721,-4.9087,-4.8643,-4.8431,-4.8138,-4.7994,-4.7911,-4.724,-4.6766,-4.6384,-4.5158,-4.404,-4.3295,-4.2667,-4.1992,-4.1289,-4.1191,-4.1191,-4.1074,-4.0078,-3.9082,-3.8203,-3.6797,-3.6055,-3.6016,-3.6016,-3.6016,-3.6016,-3.6016,-3.6016,-3.6016,-3.6016,-3.5996,-3.5957,-3.5918,-3.5898,-3.5963,-3.6396,-3.6864,-3.7145,-3.6975,-3.692,-3.7115,-3.6323,-3.5708,-3.563,-3.5624,-3.5622,-3.5622,-3.5584,-3.5526,-3.5545,-3.5526,-3.5507,-3.5507,-3.5507,-3.5806,-3.6387,-3.6479,-3.6271,-3.6309,-3.6185,-3.5844,-3.4963,-3.4626,-3.4325,-3.3928,-3.3868,-3.3807,-3.3807,-3.3807,-3.3807,-3.3807,-3.3807,-3.3807,-3.3807,-3.3807,-3.3807,-3.3807,-3.3807,-3.3807,-3.3807,-3.3807,-3.3807,-3.3807,-3.3852,-3.3887,-3.3947,-3.4198,-3.4605,-5.0683,-5.0683,-5.0683,-5.0683,-5.0683,-5.0683,-5.0683,-5.0702,-5.0741,-5.076,-5.0798,-5.0914,-5.0987,-5.0979,-5.1104,-5.1106,-5.1087,-5.1126,-5.1029,-5.0895,-5.0837,-5.0895,-5.0972,-5.0914,-5.0664,-5.0142,-4.9809,-4.9627,-4.9472,-4.9161,-4.8898,-4.8567,-4.8098,-4.7474,-4.7028,-4.5947,-4.4878,-4.3808,-4.3164,-4.2344,-4.1445,-4.1191,-4.1191,-4.1074,-4.0351,-3.9648,-3.8984,-3.7402,-3.6328,-3.6074,-3.6016,-3.6016,-3.6016,-3.6016,-3.6016,-3.6016,-3.5996,-3.5976,-3.5957,-3.5937,-3.5937,-3.6055,-3.6732,-3.74,-3.7547,-3.7508,-3.7327,-3.7469,-3.6477,-3.568,-3.5622,-3.5892,-3.5872,-3.5565,-3.5545,-3.5507,-3.5507,-3.5507,-3.5507,-3.5507,-3.5507,-3.6075,-3.6786,-3.6921,-3.6887,-3.7021,-3.679,-3.6339,-3.5299,-3.4772,-3.4333,-3.3972,-3.386,-3.3807,-3.3807,-3.3807,-3.3807,-3.3807,-3.3807,-3.3807,-3.3807,-3.3807,-3.3807,-3.3807,-3.3807,-3.3807,-3.3807,-3.3807,-3.3807,-3.3807,-3.3807,-3.386,-3.395,-3.4263,-3.4606,-5.0683,-5.0683,-5.0683,-5.0683,-5.0683,-5.0683,-5.0683,-5.0702,-5.0818,-5.0875,-5.0913,-5.1029,-5.1115,-5.1105,-5.117,-5.1203,-5.1141,-5.1189,-5.1175,-5.114,-5.1104,-5.1104,-5.1068,-5.1029,-5.0895,-5.0678,-5.0207,-5.033,-5.0782,-5.0374,-4.9863,-4.9257,-4.8906,-4.8125,-4.6973,-4.6426,-4.541,-4.4082,-4.3789,-4.2988,-4.1465,-4.1328,-4.125,-4.1191,-4.0488,-3.998,-3.9551,-3.8086,-3.6816,-3.6133,-3.6016,-3.6016,-3.6016,-3.6016,-3.6016,-3.6016,-3.6016,-3.5976,-3.5937,-3.5937,-3.5937,-3.5976,-3.6869,-3.7713,-3.8326,-3.8039,-3.7824,-3.8093,-3.6785,-3.5757,-3.5776,-3.6199,-3.6257,-3.5757,-3.5603,-3.5526,-3.5589,-3.5641,-3.5641,-3.557,-3.557,-3.6045,-3.7224,-3.7108,-3.7454,-3.77,-3.7315,-3.6731,-3.5894,-3.5235,-3.4394,-3.4097,-3.4005,-3.3925,-3.3962,-3.3807,-3.3807,-3.3807,-3.3825,-3.3825,-3.3825,-3.3825,-3.3807,-3.3807,-3.3807,-3.3807,-3.3807,-3.3807,-3.3807,-3.3807,-3.3807,-3.3807,-3.3962,-3.4228,-3.4538,-5.0683,-5.0683,-5.0683,-5.0683,-5.0683,-5.0683,-5.0683,-5.0702,-5.0837,-5.0921,-5.0937,-5.1099,-5.1173,-5.1191,-5.1289,-5.1333,-5.1308,-5.1328,-5.1351,-5.1319,-5.1334,-5.1266,-5.1202,-5.1241,-5.1222,-5.1142,-5.084,-5.0973,-5.1277,-5.0992,-5.0746,-5.0683,-4.9453,-4.8711,-4.8125,-4.6914,-4.5781,-4.4824,-4.4629,-4.3769,-4.2324,-4.2012,-4.1777,-4.1211,-4.0957,-4.0508,-3.9844,-3.8223,-3.6894,-3.6113,-3.6016,-3.6016,-3.6055,-3.6094,-3.6152,-3.6074,-3.6074,-3.6001,-3.5985,-3.5951,-3.591,-3.5972,-3.7203,-3.8303,-3.8961,-3.8952,-3.8651,-3.8248,-3.7118,-3.6199,-3.5853,-3.6281,-3.6526,-3.6378,-3.6026,-3.5795,-3.6161,-3.6392,-3.618,-3.5738,-3.6584,-3.7329,-3.7824,-3.8209,-3.8584,-3.8781,-3.8497,-3.7847,-3.6833,-3.6251,-3.5633,-3.4667,-3.4326,-3.4171,-3.4054,-3.388,-3.3807,-3.3807,-3.3825,-3.3862,-3.3844,-3.3844,-3.3825,-3.3807,-3.3807,-3.3807,-3.3807,-3.3807,-3.3807,-3.3807,-3.3807,-3.3807,-3.3815,-3.3997,-3.4367,-5.0683,-5.0683,-5.0683,-5.0683,-5.0683,-5.0683,-5.0683,-5.0721,-5.0895,-5.0967,-5.1011,-5.12,-5.1303,-5.1308,-5.1367,-5.1387,-5.1387,-5.1387,-5.1387,-5.1396,-5.138,-5.13,-5.1238,-5.1284,-5.1302,-5.1261,-5.1185,-5.12,-5.1292,-5.1225,-5.1128,-5.0703,-4.9941,-4.9121,-4.8203,-4.7441,-4.6191,-4.5156,-4.4668,-4.375,-4.2519,-4.2051,-4.1699,-4.1269,-4.1172,-4.0801,-3.9863,-3.8906,-3.7988,-3.7246,-3.6777,-3.6543,-3.6582,-3.6934,-3.6934,-3.6641,-3.6813,-3.7007,-3.6845,-3.6603,-3.6493,-3.6841,-3.7822,-3.8566,-3.9187,-3.945,-3.9142,-3.8291,-3.7642,-3.6949,-3.6416,-3.6796,-3.7353,-3.768,-3.7065,-3.6488,-3.6315,-3.6469,-3.6661,-3.6796,-3.7373,-3.8368,-3.884,-3.921,-3.9427,-3.9604,-3.9381,-3.8593,-3.7759,-3.7395,-3.6817,-3.5754,-3.4895,-3.4705,-3.4393,-3.4146,-3.3862,-3.3825,-3.4191,-3.4154,-3.3944,-3.3944,-3.3999,-3.3981,-3.388,-3.3807,-3.3807,-3.3807,-3.3807,-3.3807,-3.3807,-3.3825,-3.3834,-3.4161,-3.4483,-5.0683,-5.0683,-5.0683,-5.0683,-5.0683,-5.0683,-5.0702,-5.076,-5.0991,-5.1109,-5.1139,-5.1324,-5.1387,-5.1387,-5.1387,-5.1387,-5.1387,-5.1387,-5.1387,-5.1387,-5.1387,-5.1328,-5.1269,-5.1269,-5.125,-5.1191,-5.1196,-5.1219,-5.1259,-5.1322,-5.1027,-5.0605,-5.0293,-4.9316,-4.8262,-4.7637,-4.668,-4.5391,-4.4726,-4.3867,-4.291,-4.2344,-4.1933,-4.125,-4.1191,-4.0879,-4.0293,-3.9824,-3.9453,-3.8887,-3.7969,-3.748,-3.7519,-3.8203,-3.8125,-3.7637,-3.7849,-3.8138,-3.8131,-3.745,-3.7286,-3.7745,-3.8117,-3.8777,-3.9492,-3.9742,-3.9431,-3.8599,-3.8315,-3.7877,-3.7493,-3.7815,-3.8334,-3.8757,-3.8411,-3.7411,-3.6372,-3.6469,-3.7296,-3.8104,-3.8296,-3.9046,-3.9734,-3.9985,-3.9692,-4.0065,-3.9858,-3.9319,-3.8651,-3.8251,-3.7562,-3.6653,-3.5906,-3.5276,-3.4844,-3.4412,-3.4091,-3.3925,-3.4494,-3.4586,-3.4109,-3.4072,-3.4191,-3.4191,-3.3944,-3.3807,-3.3807,-3.3807,-3.3852,-3.3921,-3.3998,-3.3931,-3.3942,-3.4498,-3.4924,-5.0683,-5.0683,-5.0683,-5.0683,-5.0683,-5.0683,-5.076,-5.0875,-5.1049,-5.1143,-5.1199,-5.1333,-5.1387,-5.1387,-5.1387,-5.1387,-5.1387,-5.1387,-5.1387,-5.1387,-5.1387,-5.1387,-5.1348,-5.1348,-5.1348,-5.1308,-5.123,-5.1269,-5.1328,-5.1288,-5.122,-5.1094,-5.0488,-4.9668,-4.8691,-4.793,-4.7129,-4.6152,-4.5742,-4.4785,-4.3769,-4.3633,-4.291,-4.1465,-4.1191,-4.1133,-4.084,-4.0273,-4.0156,-4.0137,-3.9258,-3.8398,-3.8359,-3.8486,-3.8449,-3.8313,-3.8278,-3.8357,-3.8166,-3.805,-3.7738,-3.7738,-3.8546,-3.9411,-4.0181,-4.0258,-3.9892,-3.9277,-3.9046,-3.8911,-3.8777,-3.8892,-3.9123,-3.9277,-3.9161,-3.8623,-3.7853,-3.818,-3.8892,-3.9508,-3.9796,-4.0085,-4.0446,-4.0389,-4.0292,-4.045,-4.0258,-3.9896,-3.9501,-3.905,-3.8364,-3.753,-3.6838,-3.6213,-3.5597,-3.5129,-3.4623,-3.4403,-3.4852,-3.5183,-3.4706,-3.4421,-3.4651,-3.4348,-3.3862,-3.3807,-3.3807,-3.3952,-3.4015,-3.4097,-3.416,-3.4049,-3.4161,-3.4779,-3.5495,-5.0683,-5.0683,-5.0683,-5.0721,-5.0779,-5.0779,-5.0875,-5.0991,-5.1106,-5.1164,-5.1208,-5.1341,-5.1387,-5.1387,-5.1387,-5.1387,-5.1387,-5.1387,-5.1387,-5.1387,-5.1387,-5.1387,-5.1387,-5.1387,-5.1387,-5.1387,-5.1348,-5.1348,-5.1367,-5.1348,-5.1336,-5.1387,-5.0937,-5.0098,-4.9062,-4.8398,-4.7539,-4.6387,-4.5859,-4.5176,-4.4531,-4.3828,-4.3144,-4.1562,-4.1191,-4.1191,-4.1113,-4.0801,-4.0801,-4.084,-4.0242,-3.9492,-3.9301,-3.9423,-3.9388,-3.9061,-3.9309,-3.9366,-3.9307,-3.8931,-3.87,-3.87,-3.9181,-3.9662,-4.0258,-4.0489,-4.0104,-3.9623,-3.9604,-3.9873,-3.9873,-3.9869,-3.9854,-3.9854,-3.9854,-3.9623,-3.9296,-3.9292,-3.935,-3.9792,-4.0027,-4.0296,-4.0489,-4.0489,-4.0489,-4.0489,-4.0489,-4.0165,-4.0068,-3.9643,-3.9205,-3.8488,-3.7794,-3.7132,-3.646,-3.5872,-3.5303,-3.5165,-3.5312,-3.5579,-3.5487,-3.5303,-3.5202,-3.4623,-3.3972,-3.3825,-3.3825,-3.3989,-3.4166,-3.4232,-3.4252,-3.4139,-3.4437,-3.5184,-3.5907,-5.0683,-5.0702,-5.0721,-5.0779,-5.0875,-5.0931,-5.1009,-5.1126,-5.1164,-5.1217,-5.1237,-5.1347,-5.1387,-5.1387,-5.1387,-5.1387,-5.1387,-5.1387,-5.1387,-5.1387,-5.1387,-5.1387,-5.1387,-5.1387,-5.1387,-5.1387,-5.1387,-5.1387,-5.1387,-5.1387,-5.1387,-5.1387,-5.1387,-5.0566,-4.9414,-4.8867,-4.8125,-4.6738,-4.5879,-4.5254,-4.4922,-4.3906,-4.3066,-4.2266,-4.1582,-4.1504,-4.1445,-4.125,-4.1172,-4.1191,-4.1072,-4.0597,-4.0291,-4.0403,-4.0677,-3.9819,-4.0192,-4.0308,-4.0231,-3.9892,-3.9738,-4.0446,-3.9931,-3.9835,-4.035,-4.0469,-4.0181,-4.0027,-4.0027,-4.0373,-4.0489,-4.0392,-4.0412,-4.0431,-4.045,-4.0489,-4.0373,-3.9869,-3.9561,-3.9446,-4.0027,-4.0431,-4.0489,-4.0489,-4.0489,-4.0489,-4.0489,-4.0473,-4.0336,-4.0119,-3.9631,-3.9246,-3.854,-3.7732,-3.7055,-3.5634,-3.5174,-3.5495,-3.5634,-3.5762,-3.5899,-3.5485,-3.5082,-3.4614,-3.4156,-3.4027,-3.3913,-3.3981,-3.4153,-3.4314,-3.4623,-3.4809,-3.5176,-3.5627,-3.6449,-5.0683,-5.0702,-5.0818,-5.0875,-5.0931,-5.1009,-5.1102,-5.1164,-5.1201,-5.1276,-5.1348,-5.1387,-5.1387,-5.1387,-5.1387,-5.1387,-5.1387,-5.1387,-5.1387,-5.1387,-5.1387,-5.1387,-5.1387,-5.1387,-5.1387,-5.1387,-5.1387,-5.1387,-5.1387,-5.1387,-5.1387,-5.1387,-5.1387,-5.0781,-4.9961,-4.9297,-4.8476,-4.7305,-4.6484,-4.584,-4.5234,-4.5078,-4.4655,-4.3702,-4.2688,-4.2168,-4.1933,-4.1523,-4.1191,-4.1191,-4.1055,-4.0855,-4.063,-4.067,-4.0635,-4.0508,-4.045,-4.0546,-4.0469,-4.0412,-4.0315,-4.0446,-4.0296,-4.0239,-4.045,-4.0489,-4.0354,-4.0354,-4.0315,-4.0489,-4.0489,-4.0489,-4.0489,-4.0489,-4.0489,-4.0489,-4.045,-4.0408,-4.0196,-4.0062,-4.0335,-4.0489,-4.0489,-4.0489,-4.0489,-4.0489,-4.0489,-4.0489,-4.0422,-4.0212,-3.9905,-3.9547,-3.9189,-3.8377,-3.7576,-3.5771,-3.4706,-3.5355,-3.5604,-3.5695,-3.5637,-3.5271,-3.4916,-3.5064,-3.4724,-3.4357,-3.4249,-3.4136,-3.4426,-3.482,-3.5185,-3.5543,-3.5968,-3.6408,-3.7501,-5.0779,-5.0798,-5.0952,-5.1037,-5.1072,-5.112,-5.1205,-5.1279,-5.1307,-5.1336,-5.1387,-5.1387,-5.1387,-5.1387,-5.1387,-5.1387,-5.1387,-5.1387,-5.1387,-5.1387,-5.1387,-5.1387,-5.1387,-5.1387,-5.1387,-5.1387,-5.1387,-5.1387,-5.1387,-5.1387,-5.1387,-5.1387,-5.1387,-5.0996,-5.0332,-4.9805,-4.8828,-4.7851,-4.7168,-4.6523,-4.5664,-4.5724,-4.5034,-4.4175,-4.3458,-4.2767,-4.2285,-4.2031,-4.1523,-4.1172,-4.0957,-4.0855,-4.0757,-4.0696,-4.0639,-4.0604,-4.0546,-4.0489,-4.0489,-4.0489,-4.0469,-4.0489,-4.0489,-4.0489,-4.0489,-4.0489,-4.0489,-4.0489,-4.0489,-4.0489,-4.0489,-4.0489,-4.0489,-4.0489,-4.0508,-4.0527,-4.0604,-4.0931,-4.0873,-4.0642,-4.0511,-4.0492,-4.0489,-4.0489,-4.0489,-4.0489,-4.0489,-4.0489,-4.0489,-4.0302,-4.0062,-3.9709,-3.9339,-3.8627,-3.7912,-3.6666,-3.5293,-3.5648,-3.5857,-3.5948,-3.6083,-3.604,-3.6179,-3.6366,-3.5826,-3.4798,-3.4623,-3.4541,-3.495,-3.5321,-3.5583,-3.5965,-3.6562,-3.7313,-3.8362,-5.0914,-5.0952,-5.1068,-5.1152,-5.1193,-5.1228,-5.1298,-5.1387,-5.1387,-5.1387,-5.1387,-5.1387,-5.1387,-5.1387,-5.1387,-5.1387,-5.1387,-5.1387,-5.1387,-5.1387,-5.1387,-5.1387,-5.1387,-5.1387,-5.1387,-5.1387,-5.1387,-5.1387,-5.1387,-5.1387,-5.1387,-5.1387,-5.1387,-5.1133,-5.0566,-5.0234,-4.9219,-4.8535,-4.7656,-4.7148,-4.6259,-4.5479,-4.4761,-4.409,-4.3803,-4.3395,-4.2969,-4.2363,-4.1914,-4.1373,-4.0986,-4.0754,-4.0718,-4.0739,-4.0777,-4.0739,-4.0604,-4.0508,-4.0489,-4.0489,-4.0489,-4.0489,-4.0489,-4.0489,-4.0489,-4.0489,-4.0489,-4.0489,-4.0489,-4.0489,-4.0489,-4.0489,-4.0489,-4.0566,-4.0662,-4.0816,-4.1008,-4.1219,-4.1389,-4.1104,-4.0707,-4.046,-4.0441,-4.0377,-4.036,-4.0408,-4.0408,-4.046,-4.0425,-4.0372,-4.0139,-3.9816,-3.9364,-3.8718,-3.8187,-3.79,-3.6886,-3.6732,-3.678,-3.6736,-3.6989,-3.7186,-3.7289,-3.7228,-3.6046,-3.5156,-3.5046,-3.5046,-3.5377,-3.5661,-3.5914,-3.6481,-3.7261,-3.8055,-3.8969,-5.0972,-5.1106,-5.1164,-5.119,-5.123,-5.1308,-5.1387,-5.1387,-5.1387,-5.1387,-5.1387,-5.1387,-5.1387,-5.1387,-5.1387,-5.1387,-5.1387,-5.1387,-5.1387,-5.1387,-5.1387,-5.1387,-5.1387,-5.1387,-5.1387,-5.1387,-5.1387,-5.1387,-5.1387,-5.1387,-5.1387,-5.1387,-5.1387,-5.1328,-5.1074,-5.0625,-5.0117,-4.9609,-4.8359,-4.7129,-4.6274,-4.5957,-4.5661,-4.5336,-4.4855,-4.4347,-4.3866,-4.3059,-4.2247,-4.1976,-4.1177,-4.0791,-4.0812,-4.1335,-4.1585,-4.1412,-4.1008,-4.0508,-4.0604,-4.0527,-4.0489,-4.0489,-4.0489,-4.0489,-4.0489,-4.0489,-4.0489,-4.0489,-4.0489,-4.0489,-4.0489,-4.0489,-4.0489,-4.0796,-4.1146,-4.1453,-4.1684,-4.1673,-4.1788,-4.1447,-4.1031,-4.0571,-4.0321,-4.0252,-4.0215,-4.029,-4.0342,-4.036,-4.0323,-4.0213,-4.0024,-3.9649,-3.9408,-3.8793,-3.8475,-3.8169,-3.8004,-3.7686,-3.7441,-3.7364,-3.7581,-3.7766,-3.7949,-3.7594,-3.6457,-3.5909,-3.6002,-3.6039,-3.5936,-3.6179,-3.6687,-3.735,-3.8122,-3.8877,-3.954,-5.1106,-5.1183,-5.1272,-5.1308,-5.1308,-5.1367,-5.1387,-5.1387,-5.1387,-5.1387,-5.1387,-5.1387,-5.1387,-5.1387,-5.1387,-5.1387,-5.1387,-5.1387,-5.1387,-5.1387,-5.1387,-5.1387,-5.1387,-5.1387,-5.1387,-5.1387,-5.1387,-5.1387,-5.1387,-5.1387,-5.1387,-5.1387,-5.1387,-5.1387,-5.1387,-5.1074,-5.0605,-4.9824,-4.8535,-4.7148,-4.6361,-4.6026,-4.5911,-4.5796,-4.5393,-4.4972,-4.4434,-4.3989,-4.3185,-4.2847,-4.2229,-4.2117,-4.2136,-4.2371,-4.253,-4.2514,-4.2223,-4.1777,-4.1296,-4.0816,-4.0662,-4.0527,-4.0527,-4.0489,-4.0489,-4.0527,-4.0527,-4.0489,-4.0489,-4.0508,-4.0508,-4.0489,-4.0835,-4.1165,-4.1502,-4.1903,-4.2155,-4.2238,-4.2182,-4.1762,-4.1246,-4.0557,-4.0001,-3.9863,-3.9835,-3.9939,-4.0019,-4.0076,-3.9979,-3.9861,-3.963,-3.9357,-3.9149,-3.8915,-3.8663,-3.8456,-3.8456,-3.8145,-3.7625,-3.7649,-3.7985,-3.8193,-3.8255,-3.8383,-3.7881,-3.7434,-3.7208,-3.6814,-3.6544,-3.6961,-3.7497,-3.8089,-3.8638,-3.9169,-3.9812,-5.1254,-5.1269,-5.1355,-5.1387,-5.1387,-5.1387,-5.1387,-5.1387,-5.1387,-5.1387,-5.1387,-5.1387,-5.1387,-5.1387,-5.1387,-5.1387,-5.1387,-5.1387,-5.1387,-5.1387,-5.1387,-5.1387,-5.1387,-5.1387,-5.1387,-5.1387,-5.1387,-5.1387,-5.1387,-5.1387,-5.1387,-5.1387,-5.1387,-5.1387,-5.1387,-5.1269,-5.0957,-5.0098,-4.873,-4.7484,-4.6568,-4.6075,-4.5871,-4.5738,-4.5605,-4.5336,-4.4857,-4.4434,-4.3953,-4.3624,-4.314,-4.2909,-4.2945,-4.3179,-4.3357,-4.3378,-4.3261,-4.3066,-4.245,-4.1889,-4.1274,-4.1081,-4.0873,-4.0989,-4.1008,-4.0893,-4.0893,-4.1046,-4.095,-4.0816,-4.062,-4.0677,-4.0883,-4.1295,-4.1666,-4.2124,-4.2393,-4.2143,-4.1846,-4.1374,-4.0745,-3.9958,-3.9539,-3.9382,-3.943,-3.9576,-3.967,-3.9736,-3.9698,-3.9585,-3.9419,-3.9207,-3.9104,-3.8943,-3.8748,-3.8652,-3.8689,-3.8566,-3.8047,-3.7955,-3.8255,-3.834,-3.8328,-3.8493,-3.8689,-3.8469,-3.7941,-3.7524,-3.7206,-3.7683,-3.8168,-3.8563,-3.9058,-3.9596,-4.0196,-5.1372,-5.1384,-5.1387,-5.1387,-5.1387,-5.1387,-5.1387,-5.1387,-5.1387,-5.1387,-5.1387,-5.1387,-5.1387,-5.1387,-5.1387,-5.1387,-5.1387,-5.1387,-5.1387,-5.1387,-5.1387,-5.1387,-5.1387,-5.1387,-5.1387,-5.1387,-5.1387,-5.1387,-5.1387,-5.1387,-5.1387,-5.1387,-5.1387,-5.1387,-5.1387,-5.1367,-5.0957,-5.018,-4.9109,-4.8099,-4.7088,-4.6356,-4.5853,-4.5661,-4.5605,-4.5547,-4.547,-4.4857,-4.4453,-4.422,-4.3797,-4.3508,-4.366,-4.3987,-4.4203,-4.4222,-4.4222,-4.4105,-4.3758,-4.3099,-4.2848,-4.2621,-4.2239,-4.1797,-4.1912,-4.1797,-4.1835,-4.195,-4.1797,-4.1412,-4.1197,-4.1085,-4.1327,-4.1398,-4.1787,-4.2082,-4.2098,-4.1556,-4.1259,-4.0898,-4.0464,-4.0021,-3.9629,-3.9649,-3.9227,-3.935,-3.9268,-3.9309,-3.9507,-3.9432,-3.9308,-3.9156,-3.9111,-3.8952,-3.8743,-3.8707,-3.8707,-3.8707,-3.842,-3.8401,-3.8579,-3.853,-3.8438,-3.853,-3.8707,-3.8707,-3.867,-3.8198,-3.8025,-3.8424,-3.8785,-3.9008,-3.9631,-4.0346,-4.09,-5.1401,-5.1387,-5.1387,-5.1387,-5.1387,-5.1387,-5.1387,-5.1387,-5.1387,-5.1387,-5.1387,-5.1387,-5.1387,-5.1387,-5.1387,-5.1387,-5.1387,-5.1387,-5.1387,-5.1387,-5.1387,-5.1387,-5.1387,-5.1367,-5.1387,-5.1367,-5.1367,-5.1387,-5.1387,-5.1387,-5.1387,-5.1387,-5.1387,-5.1387,-5.1387,-5.1348,-5.0898,-5.0254,-4.9575,-4.8764,-4.7259,-4.6796,-4.624,-4.5624,-4.5586,-4.5586,-4.5528,-4.5316,-4.5163,-4.5009,-4.472,-4.4566,-4.447,-4.4855,-4.497,-4.501,-4.5009,-4.5009,-4.4778,-4.3948,-4.3124,-4.3069,-4.278,-4.2643,-4.2777,-4.2643,-4.2643,-4.2681,-4.2681,-4.2297,-4.229,-4.2156,-4.2078,-4.1876,-4.1889,-4.2164,-4.1924,-4.141,-4.1301,-4.1194,-4.1059,-4.0751,-4.0412,-4.0055,-3.9527,-3.91,-3.8997,-3.896,-3.9147,-3.9259,-3.9091,-3.9017,-3.8943,-3.8934,-3.8732,-3.8707,-3.8707,-3.8707,-3.8707,-3.8707,-3.8707,-3.8689,-3.8634,-3.8689,-3.8707,-3.8707,-3.8707,-3.8707,-3.8707,-3.8707,-3.8929,-3.9221,-4.0023,-4.0996,-4.156,-5.1387,-5.1387,-5.1387,-5.1387,-5.1387,-5.1387,-5.1387,-5.1387,-5.1387,-5.1387,-5.1387,-5.1387,-5.1387,-5.1387,-5.1387,-5.1387,-5.1289,-5.1152,-5.123,-5.1211,-5.1152,-5.1094,-5.1133,-5.123,-5.125,-5.1191,-5.1348,-5.1387,-5.1387,-5.1387,-5.1387,-5.1387,-5.1367,-5.1348,-5.1387,-5.1318,-5.0986,-5.0463,-4.9548,-4.9009,-4.747,-4.674,-4.6336,-4.5643,-4.5586,-4.5586,-4.5586,-4.549,-4.5509,-4.549,-4.5451,-4.5528,-4.5547,-4.5586,-4.5586,-4.5586,-4.5586,-4.5586,-4.524,-4.4701,-4.3722,-4.3628,-4.3511,-4.3451,-4.3451,-4.3451,-4.347,-4.3451,-4.3451,-4.3338,-4.3184,-4.2813,-4.2419,-4.2104,-4.2257,-4.2407,-4.1946,-4.15,-4.1601,-4.1653,-4.1391,-4.1052,-4.0758,-4.0286,-3.9595,-3.911,-3.8859,-3.8822,-3.8877,-3.8925,-3.884,-3.8803,-3.8773,-3.8732,-3.8707,-3.8707,-3.8707,-3.8707,-3.8707,-3.8707,-3.8707,-3.8707,-3.8707,-3.8707,-3.8707,-3.8707,-3.8707,-3.8707,-3.8707,-3.8707,-3.9172,-3.9869,-4.0568,-4.15,-4.2033,-5.1387,-5.1387,-5.1387,-5.1387,-5.1387,-5.1387,-5.1387,-5.1387,-5.1387,-5.1348,-5.1289,-5.1328,-5.1328,-5.1308,-5.1191,-5.1191,-5.1035,-5.0547,-5.0488,-5.0781,-5.0644,-5.0351,-5.0547,-5.082,-5.1016,-5.0605,-5.084,-5.1191,-5.1367,-5.1367,-5.1367,-5.1328,-5.1269,-5.1284,-5.1374,-5.1282,-5.1182,-5.0875,-4.9355,-4.8604,-4.7854,-4.6738,-4.6028,-4.5643,-4.5586,-4.5586,-4.5586,-4.5586,-4.5586,-4.5586,-4.5586,-4.5586,-4.5586,-4.5586,-4.5586,-4.5586,-4.5586,-4.5586,-4.5547,-4.547,-4.5009,-4.4397,-4.4297,-4.4297,-4.4278,-4.4278,-4.4297,-4.4297,-4.4243,-4.3733,-4.3404,-4.3149,-4.2784,-4.2448,-4.2567,-4.2433,-4.1963,-4.1754,-4.1865,-4.2247,-4.1682,-4.113,-4.0873,-4.0469,-3.9698,-3.916,-3.8817,-3.8726,-3.8762,-3.8762,-3.8707,-3.8707,-3.8707,-3.8707,-3.8707,-3.8707,-3.8707,-3.8707,-3.8707,-3.8707,-3.8707,-3.8707,-3.8707,-3.8707,-3.8707,-3.8707,-3.8707,-3.8707,-3.8939,-3.9301,-4.0085,-4.0772,-4.1417,-4.2082,-4.2701,-5.1387,-5.1387,-5.1387,-5.1387,-5.1387,-5.1387,-5.1387,-5.1387,-5.1367,-5.1113,-5.0801,-5.1113,-5.1055,-5.0781,-5.0605,-5.0605,-5.0449,-4.9746,-4.9648,-4.9766,-4.9941,-5.0215,-5.0312,-5.043,-5.0703,-5.084,-5.0957,-5.094,-5.125,-5.1272,-5.123,-5.1191,-5.1178,-5.1164,-5.1162,-5.1127,-5.1078,-5.0817,-4.9798,-4.8874,-4.8124,-4.7048,-4.6144,-4.5643,-4.5643,-4.5586,-4.5586,-4.5586,-4.5586,-4.5586,-4.5586,-4.5586,-4.5586,-4.5586,-4.5586,-4.5586,-4.5586,-4.5586,-4.5586,-4.5528,-4.547,-4.5201,-4.5086,-4.5066,-4.5143,-4.5163,-4.5163,-4.5052,-4.4825,-4.4459,-4.448,-4.3937,-4.3446,-4.2728,-4.2613,-4.2426,-4.2128,-4.2095,-4.2224,-4.2827,-4.2708,-4.1882,-4.1423,-4.117,-4.0524,-3.9575,-3.919,-3.8836,-3.8762,-3.8762,-3.8726,-3.8707,-3.8707,-3.8707,-3.8744,-3.9111,-3.916,-3.9105,-3.894,-3.8707,-3.8707,-3.8781,-3.8707,-3.8707,-3.8707,-3.8707,-3.8781,-3.8983,-3.9527,-4.0057,-4.0872,-4.1482,-4.1972,-4.2797,-4.3684,-5.1387,-5.1387,-5.1387,-5.1387,-5.1387,-5.1387,-5.1387,-5.1387,-5.1387,-5.1094,-5.0781,-5.0918,-5.0723,-5.0234,-4.9902,-4.9766,-4.9668,-4.8867,-4.916,-4.916,-4.916,-4.9629,-4.9922,-4.9961,-5.0137,-5.0566,-5.0575,-5.046,-5.1141,-5.1164,-5.1114,-5.1068,-5.1001,-5.0996,-5.0995,-5.0966,-5.0983,-5.0567,-4.9682,-4.8836,-4.8182,-4.7336,-4.6297,-4.6028,-4.5836,-4.5586,-4.5586,-4.5586,-4.5586,-4.5586,-4.5586,-4.5586,-4.5586,-4.5586,-4.5586,-4.5586,-4.5586,-4.5586,-4.5586,-4.5586,-4.5547,-4.5509,-4.5586,-4.5586,-4.5586,-4.549,-4.5399,-4.5304,-4.5199,-4.4944,-4.4649,-4.412,-4.3748,-4.3008,-4.2873,-4.2671,-4.2653,-4.2653,-4.2708,-4.3296,-4.3369,-4.2616,-4.2047,-4.1812,-4.1464,-4.051,-3.958,-3.9263,-3.8964,-3.8964,-3.8982,-3.8964,-3.9105,-3.9252,-3.9577,-3.9968,-3.9908,-3.9608,-3.9375,-3.9129,-3.8958,-3.9068,-3.8903,-3.8707,-3.8744,-3.8799,-3.8958,-3.9294,-4.016,-4.0967,-4.1694,-4.2202,-4.2552,-4.3376,-4.4357,-5.1387,-5.1387,-5.1387,-5.1387,-5.1387,-5.1387,-5.1387,-5.1387,-5.1387,-5.1308,-5.1172,-5.0391,-5.0078,-4.9844,-4.9199,-4.8965,-4.8789,-4.8027,-4.8535,-4.9023,-4.8535,-4.9062,-4.9394,-4.9394,-4.9785,-5.0,-5.0121,-5.0352,-5.1029,-5.1029,-5.0971,-5.0836,-5.0798,-5.0586,-5.0487,-5.0661,-5.07,-5.0221,-4.9471,-4.8759,-4.8202,-4.7009,-4.6374,-4.6124,-4.5932,-4.5643,-4.5586,-4.5586,-4.5586,-4.5586,-4.5586,-4.5586,-4.5586,-4.5586,-4.5586,-4.5586,-4.5586,-4.5586,-4.5586,-4.5586,-4.5586,-4.5586,-4.555,-4.5568,-4.5568,-4.5513,-4.54,-4.5161,-4.4915,-4.4537,-4.4158,-4.3968,-4.3763,-4.3494,-4.3403,-4.3332,-4.3332,-4.3332,-4.3314,-4.3479,-4.3479,-4.3094,-4.2763,-4.2525,-4.2142,-4.1328,-4.0524,-4.0294,-3.996,-3.9533,-3.9515,-3.9454,-3.9651,-3.9958,-4.0307,-4.0648,-4.0616,-4.0304,-4.0134,-3.99,-3.9675,-3.9485,-3.9381,-3.9252,-3.8909,-3.8982,-3.9546,-4.0283,-4.1184,-4.1914,-4.2582,-4.306,-4.347,-4.3934,-4.4626,-5.1387,-5.1387,-5.1387,-5.1387,-5.1387,-5.1387,-5.1387,-5.1387,-5.1367,-5.082,-4.9609,-5.0058,-4.9492,-4.8359,-4.8086,-4.8359,-4.8105,-4.7676,-4.7578,-4.7676,-4.7832,-4.8418,-4.8789,-4.9043,-4.9629,-5.0156,-5.0343,-5.0202,-5.0779,-5.0895,-5.0394,-4.9952,-5.0414,-5.001,-4.9837,-5.0125,-5.0106,-4.9875,-4.9125,-4.8702,-4.8048,-4.6951,-4.6471,-4.6105,-4.5855,-4.5605,-4.5586,-4.5586,-4.5566,-4.5528,-4.5566,-4.5586,-4.5586,-4.5586,-4.5586,-4.5586,-4.5586,-4.5586,-4.5586,-4.5586,-4.5566,-4.5512,-4.54,-4.5282,-4.5302,-4.5342,-4.5263,-4.4919,-4.4617,-4.4261,-4.4005,-4.3794,-4.368,-4.3575,-4.3479,-4.3479,-4.3479,-4.3479,-4.3479,-4.3479,-4.3479,-4.3314,-4.3091,-4.313,-4.2708,-4.1967,-4.1489,-4.1277,-4.0936,-4.0492,-4.012,-4.006,-4.0239,-4.0583,-4.0799,-4.1086,-4.1104,-4.0998,-4.0863,-4.0777,-4.0657,-4.0417,-4.011,-3.9877,-3.9779,-4.0024,-4.0469,-4.1329,-4.2296,-4.2819,-4.3437,-4.3905,-4.4355,-4.4722,-4.501,-5.1113,-5.1289,-5.0664,-5.0586,-5.0957,-5.1269,-5.123,-5.0976,-5.0918,-5.0137,-4.9004,-4.9062,-4.8594,-4.7734,-4.7324,-4.7324,-4.7637,-4.6953,-4.6855,-4.7402,-4.7177,-4.8164,-4.8613,-4.8682,-4.9336,-5.004,-5.0375,-5.0086,-5.0606,-5.0664,-5.0279,-4.9567,-5.0029,-4.949,-4.9278,-4.9606,-4.9548,-4.9336,-4.899,-4.8682,-4.8009,-4.7182,-4.6567,-4.6124,-4.5836,-4.5605,-4.5586,-4.5586,-4.5451,-4.5297,-4.5278,-4.5374,-4.5355,-4.5336,-4.5566,-4.5586,-4.5586,-4.549,-4.5432,-4.5528,-4.549,-4.5379,-4.5206,-4.5074,-4.5007,-4.4988,-4.4738,-4.4455,-4.4269,-4.4036,-4.3812,-4.3624,-4.3572,-4.3479,-4.3479,-4.3479,-4.3479,-4.3479,-4.3479,-4.3479,-4.3387,-4.3275,-4.3256,-4.3387,-4.3259,-4.247,-4.2194,-4.2286,-4.1889,-4.1445,-4.102,-4.0726,-4.0974,-4.1245,-4.1445,-4.1745,-4.1965,-4.1999,-4.1776,-4.1658,-4.1558,-4.119,-4.0722,-4.068,-4.073,-4.1029,-4.1346,-4.2451,-4.3386,-4.3792,-4.4143,-4.4652,-4.4951,-4.5143,-4.5393,-5.0625,-5.1172,-4.9707,-4.9629,-5.0176,-5.0996,-5.0859,-5.0058,-5.0039,-4.9609,-4.8711,-4.7988,-4.7656,-4.7246,-4.6797,-4.666,-4.6836,-4.6543,-4.6831,-4.7386,-4.6607,-4.7366,-4.8428,-4.8273,-4.8681,-4.9676,-5.0202,-4.9971,-5.0491,-5.0471,-5.001,-4.9413,-4.9295,-4.9026,-4.9029,-4.9356,-4.9317,-4.899,-4.9183,-4.9202,-4.8432,-4.7625,-4.6913,-4.6567,-4.6067,-4.5586,-4.5586,-4.5451,-4.522,-4.4989,-4.4951,-4.5182,-4.5143,-4.5201,-4.5509,-4.5586,-4.5586,-4.5399,-4.5303,-4.5361,-4.5266,-4.515,-4.5008,-4.4792,-4.4657,-4.4657,-4.4428,-4.4125,-4.3878,-4.3818,-4.3627,-4.3572,-4.3511,-4.3479,-4.3479,-4.3479,-4.3479,-4.3479,-4.3479,-4.3479,-4.3442,-4.3348,-4.3367,-4.3479,-4.3424,-4.2803,-4.2729,-4.2949,-4.2784,-4.2289,-4.1959,-4.1552,-4.1566,-4.1856,-4.2338,-4.2656,-4.3041,-4.3057,-4.2653,-4.2506,-4.2393,-4.1897,-4.1258,-4.1475,-4.1797,-4.1922,-4.2327,-4.3392,-4.4112,-4.4291,-4.4679,-4.5303,-4.5566,-4.5547,-4.5547,-5.0312,-5.0527,-5.0723,-5.0234,-4.9453,-5.0781,-5.0137,-4.834,-4.8945,-4.873,-4.7988,-4.7656,-4.7226,-4.668,-4.6484,-4.6523,-4.6953,-4.6505,-4.7139,-4.7311,-4.674,-4.7193,-4.8388,-4.7928,-4.8114,-4.8636,-4.926,-4.9933,-5.0433,-5.0183,-4.9683,-4.9336,-4.8988,-4.8699,-4.8586,-4.8952,-4.9086,-4.8798,-4.949,-4.8759,-4.7105,-4.7509,-4.7394,-4.6432,-4.5586,-4.5586,-4.5586,-4.5547,-4.549,-4.5413,-4.547,-4.547,-4.5355,-4.5509,-4.5566,-4.5586,-4.5531,-4.5304,-4.5166,-4.5104,-4.5017,-4.4732,-4.4493,-4.429,-4.4204,-4.428,-4.4154,-4.3809,-4.36,-4.355,-4.3534,-4.3497,-4.3479,-4.3479,-4.3479,-4.3479,-4.3479,-4.3479,-4.3479,-4.3479,-4.3479,-4.3479,-4.3479,-4.3461,-4.3387,-4.3332,-4.3314,-4.3369,-4.3314,-4.3039,-4.2947,-4.2561,-4.2191,-4.2463,-4.2944,-4.322,-4.3406,-4.3479,-4.313,-4.3112,-4.3133,-4.2616,-4.2099,-4.254,-4.2868,-4.293,-4.3278,-4.4164,-4.4706,-4.4808,-4.497,-4.5493,-4.5586,-4.5566,-4.5566,-4.9258,-4.9648,-5.0098,-4.9531,-4.8691,-4.9746,-4.9238,-4.791,-4.8125,-4.7832,-4.7109,-4.6992,-4.6738,-4.6308,-4.6308,-4.6465,-4.6914,-4.6406,-4.6857,-4.7201,-4.7337,-4.7739,-4.7854,-4.7951,-4.8757,-4.9201,-4.9682,-5.026,-5.0529,-5.0356,-4.9952,-4.9433,-4.8817,-4.847,-4.8317,-4.8644,-4.8913,-4.8817,-4.9798,-4.8606,-4.6451,-4.7182,-4.7201,-4.6105,-4.5586,-4.5586,-4.5586,-4.5547,-4.5316,-4.5084,-4.4833,-4.5092,-4.5074,-4.5163,-4.5223,-4.5263,-4.5203,-4.5077,-4.4947,-4.483,-4.4701,-4.4365,-4.4199,-4.4076,-4.4016,-4.4046,-4.3868,-4.3566,-4.3566,-4.3497,-4.3497,-4.3479,-4.3479,-4.3479,-4.3479,-4.3479,-4.3479,-4.3479,-4.3479,-4.3479,-4.3479,-4.3479,-4.3479,-4.3479,-4.3442,-4.3442,-4.3479,-4.3479,-4.3479,-4.3479,-4.3479,-4.3387,-4.2926,-4.2834,-4.3238,-4.3369,-4.3442,-4.3479,-4.3479,-4.3424,-4.3296,-4.3109,-4.2962,-4.3295,-4.3578,-4.3823,-4.428,-4.4836,-4.5131,-4.5227,-4.5381,-4.5586,-4.5586,-4.5586,-4.5586,-4.8086,-4.8691,-4.8887,-4.834,-4.7656,-4.8535,-4.834,-4.7539,-4.7539,-4.7148,-4.6445,-4.6367,-4.6289,-4.6289,-4.6289,-4.6289,-4.625,-4.6152,-4.663,-4.7278,-4.7125,-4.7913,-4.8393,-4.8585,-4.9086,-4.9644,-5.0144,-5.0414,-5.0644,-5.0337,-4.9894,-4.9548,-4.924,-4.8971,-4.8548,-4.8355,-4.8586,-4.8952,-4.926,-4.8682,-4.8048,-4.7682,-4.6932,-4.6182,-4.5586,-4.5586,-4.5586,-4.547,-4.5105,-4.4746,-4.4383,-4.4574,-4.4786,-4.4862,-4.4891,-4.4938,-4.4853,-4.4706,-4.4556,-4.4504,-4.4271,-4.4061,-4.3979,-4.3924,-4.3849,-4.374,-4.3582,-4.3513,-4.3479,-4.3479,-4.3479,-4.3479,-4.3479,-4.3479,-4.3479,-4.3479,-4.3479,-4.3479,-4.3479,-4.3479,-4.3516,-4.3516,-4.3516,-4.3516,-4.3516,-4.3516,-4.3479,-4.3479,-4.3479,-4.3479,-4.3479,-4.3479,-4.3259,-4.3332,-4.3479,-4.3479,-4.3479,-4.3479,-4.3479,-4.3479,-4.3493,-4.3402,-4.3476,-4.3788,-4.4085,-4.4356,-4.4643,-4.5077,-4.5342,-4.5513,-4.5568,-4.5586,-4.5586,-4.5586,-4.5586,-4.7695,-4.7891,-4.8594,-4.8008,-4.6933,-4.8183,-4.8008,-4.6816,-4.7285,-4.7109,-4.6465,-4.6289,-4.6289,-4.6289,-4.6289,-4.6289,-4.625,-4.6111,-4.7047,-4.8006,-4.7413,-4.8163,-4.8856,-4.899,-4.8932,-4.9375,-4.9933,-5.0106,-5.047,-5.0086,-4.999,-5.0279,-4.8798,-4.8952,-4.999,-4.9625,-4.9106,-4.9356,-4.9317,-4.9029,-4.8856,-4.8202,-4.7048,-4.6278,-4.5586,-4.5586,-4.5586,-4.5586,-4.5342,-4.4995,-4.4582,-4.4539,-4.4512,-4.4587,-4.4568,-4.4572,-4.4527,-4.438,-4.4288,-4.4177,-4.393,-4.3735,-4.366,-4.366,-4.3612,-4.3612,-4.3479,-4.3479,-4.3479,-4.3479,-4.3479,-4.3479,-4.3479,-4.3479,-4.3479,-4.3479,-4.3479,-4.3479,-4.3479,-4.3534,-4.3608,-4.3626,-4.3697,-4.3697,-4.3679,-4.3642,-4.3516,-4.3516,-4.3479,-4.3479,-4.3532,-4.3479,-4.3479,-4.3479,-4.3479,-4.3479,-4.3479,-4.3479,-4.3513,-4.3548,-4.3642,-4.3782,-4.3953,-4.4223,-4.4552,-4.485,-4.5143,-4.5301,-4.5419,-4.5568,-4.5586,-4.5586,-4.5586,-4.5586,-4.5586]}]]